[[{"header":{"parameterUnit":"m.s-1","parameterCategory":1,"la1":30.6,"la2":28.766,"lo1":-90.7593,"lo2":-88.6598,"dy":0.0162,"dx":0.0183,"nx":116,"ny":114,"refTime":"2023-09-28T00:00:00:Z","depth":0,"parameterNumber":2,"parameterNumberName":"U-component_of_WINDS"},"data":[0.0,0.0,0.0,0.0,0.0,0.0,0.0,0.0,0.0,0.0,0.0,0.0,0.0,0.0,0.0,0.0,0.0,0.0,0.0,0.0,0.0,0.0,0.0,0.0,0.0,0.0,0.0,0.0,0.0,0.0,0.0,0.0,0.0,0.0,0.0,0.0,0.0,0.0,0.0,0.0,0.0,0.0,0.0,0.0,0.0,0.0,0.0,0.0,0.0,0.0,0.0,0.0,0.0,0.0,0.0,0.0,0.0,0.0,0.0,0.0,0.0,0.0,0.0,0.0,0.0,0.0,0.0,0.0,0.0,0.0,0.0,0.0,0.0,0.0,0.0,0.0,0.0,0.0,0.0,0.0,0.0,0.0,0.0,0.0,0.0,0.0,0.0,0.0,0.0,0.0,0.0,0.0,0.0,0.0,0.0,0.0,0.0,0.0,0.0,0.0,0.0,0.0,0.0,0.0,0.0,0.0,0.0,0.0,0.0,0.0,0.0,0.0,0.0,0.0,0.0,0.0,0.0,0.0,0.0,0.0,0.0,0.0,0.0,0.0,0.0,0.0,0.0,0.0,0.0,0.0,0.0,0.0,0.0,0.0,0.0,0.0,0.0,0.0,0.0,0.0,0.0,0.0,0.0,0.0,0.0,0.0,0.0,0.0,0.0,0.0,0.0,0.0,0.0,0.0,0.0,0.0,0.0,0.0,0.0,0.0,0.0,0.0,0.0,0.0,0.0,0.0,0.0,0.0,0.0,0.0,0.0,0.0,0.0,0.0,0.0,0.0,0.0,0.0,0.0,0.0,0.0,0.0,0.0,0.0,0.0,0.0,0.0,0.0,0.0,0.0,0.0,0.0,0.0,0.0,0.0,0.0,0.0,0.0,0.0,0.0,0.0,0.0,0.0,0.0,0.0,0.0,0.0,0.0,0.0,0.0,0.0,0.0,0.0,0.0,0.0,0.0,0.0,0.0,0.0,0.0,0.0,0.0,0.0,0.0,0.0,0.0,0.0,0.0,0.0,0.0,0.0,0.0,0.0,0.0,0.0,0.0,0.0,0.0,0.0,0.0,0.0,0.0,0.0,0.0,0.0,0.0,0.0,0.0,0.0,0.0,0.0,0.0,0.0,0.0,0.0,0.0,0.0,0.0,0.0,0.0,0.0,0.0,0.0,0.0,0.0,0.0,0.0,0.0,0.0,0.0,0.0,0.0,0.0,0.0,0.0,0.0,0.0,0.0,0.0,0.0,0.0,0.0,0.0,0.0,0.0,0.0,0.0,0.0,0.0,0.0,0.0,0.0,0.0,0.0,0.0,0.0,0.0,0.0,0.0,0.0,0.0,0.0,0.0,0.0,0.0,0.0,0.0,0.0,0.0,0.0,0.0,0.0,0.0,0.0,0.0,0.0,0.0,0.0,0.0,0.0,0.0,0.0,0.0,0.0,0.0,0.0,0.0,0.0,0.0,0.0,0.0,0.0,0.0,0.0,0.0,0.0,0.0,0.0,0.0,0.0,0.0,0.0,0.0,0.0,0.0,0.0,0.0,0.0,0.0,0.0,0.0,0.0,0.0,0.0,0.0,0.0,0.0,0.0,0.0,0.0,0.0,0.0,0.0,0.0,0.0,0.0,0.0,0.0,0.0,0.0,0.0,0.0,0.0,0.0,0.0,0.0,0.0,0.0,0.0,0.0,0.0,0.0,0.0,0.0,0.0,0.0,0.0,0.0,0.0,0.0,0.0,0.0,0.0,0.0,0.0,0.0,0.0,0.0,0.0,0.0,0.0,0.0,0.0,0.0,0.0,0.0,0.0,0.0,0.0,0.0,0.0,0.0,0.0,0.0,0.0,0.0,0.0,0.0,0.0,0.0,0.0,0.0,0.0,0.0,0.0,0.0,0.0,0.0,0.0,0.0,0.0,0.0,0.0,0.0,0.0,0.0,0.0,0.0,0.0,0.0,0.0,0.0,0.0,0.0,0.0,0.0,0.0,0.0,0.0,0.0,0.0,0.0,0.0,0.0,0.0,0.0,0.0,0.0,0.0,0.0,0.0,0.0,0.0,0.0,0.0,0.0,0.0,0.0,0.0,0.0,0.0,0.0,0.0,0.0,0.0,0.0,0.0,0.0,0.0,0.0,0.0,0.0,0.0,0.0,0.0,0.0,0.0,0.0,0.0,0.0,0.0,0.0,0.0,0.0,0.0,0.0,0.0,0.0,0.0,0.0,0.0,0.0,0.0,0.0,0.0,0.0,0.0,0.0,0.0,0.0,0.0,0.0,0.0,0.0,0.0,0.0,0.0,0.0,0.0,0.0,0.0,0.0,0.0,0.0,0.0,0.0,0.0,0.0,0.0,0.0,0.0,0.0,0.0,0.0,0.0,0.0,0.0,0.0,0.0,0.0,0.0,0.0,0.0,0.0,0.0,0.0,0.0,0.0,0.0,0.0,0.0,0.0,0.0,0.0,0.0,0.0,0.0,0.0,0.0,0.0,0.0,0.0,0.0,0.0,0.0,0.0,0.0,0.0,0.0,0.0,0.0,0.0,0.0,0.0,0.0,0.0,0.0,0.0,0.0,0.0,0.0,0.0,0.0,0.0,0.0,0.0,0.0,0.0,0.0,0.0,0.0,0.0,0.0,0.0,0.0,0.0,0.0,0.0,0.0,0.0,0.0,0.0,0.0,0.0,0.0,0.0,0.0,0.0,0.0,0.0,0.0,0.0,0.0,0.0,0.0,0.0,0.0,0.0,0.0,0.0,0.0,0.0,0.0,0.0,0.0,0.0,0.0,0.0,0.0,0.0,0.0,0.0,0.0,0.0,0.0,0.0,0.0,0.0,0.0,0.0,0.0,0.0,0.0,0.0,0.0,0.0,0.0,0.0,0.0,0.0,0.0,0.0,0.0,0.0,0.0,0.0,0.0,0.0,0.0,0.0,0.0,0.0,0.0,0.0,0.0,0.0,0.0,0.0,0.0,0.0,0.0,0.0,0.0,0.0,0.0,0.0,0.0,0.0,0.0,0.0,0.0,0.0,0.0,0.0,0.0,0.0,0.0,0.0,0.0,0.0,0.0,0.0,0.0,0.0,0.0,0.0,0.0,0.0,0.0,0.0,0.0,0.0,0.0,0.0,0.0,0.0,0.0,0.0,0.0,0.0,0.0,0.0,0.0,0.0,0.0,0.0,0.0,0.0,0.0,0.0,0.0,0.0,0.0,0.0,0.0,0.0,0.0,0.0,0.0,0.0,0.0,0.0,0.0,0.0,0.0,0.0,0.0,0.0,0.0,0.0,0.0,0.0,0.0,0.0,0.0,0.0,0.0,0.0,0.0,0.0,0.0,0.0,0.0,0.0,0.0,0.0,0.0,0.0,0.0,0.0,0.0,0.0,0.0,0.0,0.0,0.0,0.0,0.0,0.0,0.0,0.0,0.0,0.0,0.0,0.0,0.0,0.0,0.0,0.0,0.0,0.0,0.0,0.0,0.0,0.0,0.0,0.0,0.0,0.0,0.0,0.0,0.0,0.0,0.0,0.0,0.0,0.0,0.0,0.0,0.0,0.0,0.0,0.0,0.0,0.0,0.0,0.0,0.0,0.0,0.0,0.0,0.0,0.0,0.0,0.0,0.0,0.0,0.0,0.0,0.0,0.0,0.0,0.0,0.0,0.0,0.0,0.0,0.0,0.0,0.0,0.0,0.0,0.0,0.0,0.0,0.0,0.0,0.0,0.0,0.0,0.0,0.0,0.0,0.0,0.0,0.0,0.0,0.0,0.0,0.0,0.0,0.0,0.0,0.0,0.0,0.0,0.0,0.0,0.0,0.0,0.0,0.0,0.0,0.0,0.0,0.0,0.0,0.0,0.0,0.0,0.0,0.0,0.0,0.0,0.0,0.0,0.0,0.0,0.0,0.0,0.0,0.0,0.0,0.0,0.0,0.0,0.0,0.0,0.0,0.0,0.0,0.0,0.0,0.0,0.0,0.0,0.0,0.0,0.0,0.0,0.0,0.0,0.0,0.0,0.0,0.0,0.0,0.0,0.0,0.0,0.0,0.0,0.0,0.0,0.0,0.0,0.0,0.0,0.0,0.0,0.0,0.0,0.0,0.0,0.0,0.0,0.0,0.0,0.0,0.0,0.0,0.0,0.0,0.0,0.0,0.0,0.0,0.0,0.0,0.0,0.0,0.0,0.0,0.0,0.0,0.0,0.0,0.0,0.0,0.0,0.0,0.0,0.0,0.0,0.0,0.0,0.0,0.0,0.0,0.0,0.0,0.0,0.0,0.0,0.0,0.0,0.0,0.0,0.0,0.0,0.0,0.0,0.0,0.0,0.0,0.0,0.0,0.0,0.0,0.0,0.0,0.0,0.0,0.0,0.0,0.0,0.0,0.0,0.0,0.0,0.0,0.0,0.0,0.0,0.0,0.0,0.0,0.0,0.0,0.0,0.0,0.0,0.0,0.0,0.0,0.0,0.0,0.0,0.0,0.0,0.0,0.0,0.0,0.0,0.0,0.0,0.0,0.0,0.0,0.0,0.0,0.0,0.0,0.0,0.0,0.0,0.0,0.0,0.0,0.0,0.0,0.0,0.0,0.0,0.0,0.0,0.0,0.0,0.0,0.0,0.0,0.0,0.0,0.0,0.0,0.0,0.0,0.0,0.0,0.0,0.0,0.0,0.0,0.0,0.0,0.0,0.0,0.0,0.0,0.0,0.0,0.0,0.0,0.0,0.0,0.0,0.0,0.0,0.0,0.0,0.0,0.0,0.0,0.0,0.0,0.0,0.0,0.0,0.0,0.0,0.0,0.0,0.0,0.0,0.0,0.0,0.0,0.0,0.0,0.0,0.0,0.0,0.0,0.0,0.0,0.0,0.0,0.0,0.0,0.0,0.0,0.0,0.0,0.0,0.0,0.0,0.0,0.0,0.0,0.0,0.0,0.0,0.0,0.0,0.0,0.0,0.0,0.0,0.0,0.0,0.0,0.0,0.0,0.0,0.0,0.0,0.0,0.0,0.0,0.0,0.0,0.0,0.0,0.0,0.0,0.0,0.0,0.0,0.0,0.0,0.0,0.0,0.0,0.0,0.0,0.0,0.0,0.0,0.0,0.0,0.0,0.0,0.0,0.0,0.0,0.0,0.0,0.0,0.0,0.0,0.0,0.0,0.0,0.0,0.0,0.0,0.0,0.0,0.0,0.0,0.0,0.0,0.0,0.0,0.0,0.0,0.0,0.0,0.0,0.0,0.0,0.0,0.0,0.0,0.0,0.0,0.0,0.0,0.0,0.0,0.0,0.0,0.0,0.0,0.0,0.0,0.0,0.0,0.0,0.0,0.0,0.0,0.0,0.0,0.0,0.0,0.0,0.0,0.0,0.0,0.0,0.0,0.0,0.0,0.0,0.0,0.0,0.0,0.0,0.0,0.0,0.0,0.0,0.0,0.0,0.0,0.0,0.0,0.0,0.0,0.0,0.0,0.0,0.0,0.0,0.0,0.0,0.0,0.0,0.0,0.0,0.0,0.0,0.0,0.0,0.0,0.0,0.0,0.0,0.0,0.0,0.0,0.0,0.0,0.0,0.0,0.0,0.0,0.0,0.0,0.0,0.0,0.0,0.0,0.0,0.0,0.0,0.0,0.0,0.0,0.0,0.0,0.0,0.0,0.0,0.0,0.0,0.0,0.0,0.0,0.0,0.0,0.0,0.0,0.0,0.0,0.0,0.0,0.0,0.0,0.0,0.0,0.0,0.0,0.0,0.0,0.0,0.0,0.0,0.0,0.0,0.0,0.0,0.0,0.0,0.0,0.0,0.0,0.0,0.0,0.0,0.0,0.0,0.0,0.0,0.0,0.0,0.0,0.0,0.0,0.0,0.0,0.0,0.0,0.0,0.0,0.0,0.0,0.0,0.0,0.0,0.0,0.0,0.0,0.0,0.0,0.0,0.0,0.0,0.0,0.0,0.0,0.0,0.0,0.0,0.0,0.0,0.0,0.0,0.0,0.0,0.0,0.0,0.0,0.0,0.0,0.0,0.0,0.0,0.0,0.0,0.0,0.0,0.0,0.0,0.0,0.0,0.0,0.0,0.0,0.0,0.0,0.0,0.0,0.0,0.0,0.0,0.0,0.0,0.0,1.0506,0.0,0.0,0.0,0.0,0.0,0.0,0.0,0.0,0.0,0.0,0.0,0.0,0.0,0.0,0.0,0.0,0.0,0.0,0.0,0.0,0.0,0.0,0.0,0.0,0.0,0.0,0.0,0.0,0.0,0.0,0.0,0.0,0.0,0.0,0.0,0.0,0.0,0.0,-1.9845,-1.9464,-1.9335,-1.9485,-2.0294,-2.0125,-1.926,0.0,0.0,0.0,0.0,0.0,0.0,0.0,0.0,0.0,0.0,0.0,0.0,0.0,0.0,0.0,0.0,0.0,0.0,0.0,0.0,0.0,0.0,0.0,0.0,0.0,0.0,0.0,0.0,0.0,0.0,0.0,0.0,0.0,0.0,0.0,0.0,0.0,0.0,0.0,0.0,0.0,0.0,0.0,0.0,0.0,0.0,0.0,0.0,0.0,0.0,0.0,0.0,0.0,0.0,0.0,0.0,0.0,0.0,0.0,0.0,0.0,0.0,0.0,0.0,0.0,0.0,0.0,0.0,0.0,0.0,0.0,1.1175,0.0,0.0,0.0,0.0,0.0,0.0,0.0,0.0,0.0,0.0,0.0,0.0,0.0,0.0,0.0,0.0,0.0,0.0,0.0,0.0,0.0,0.0,0.0,0.0,-1.8732,-1.8458,-1.9136,-1.9234,0.0,0.0,0.0,0.0,0.0,0.0,-1.9394,-1.9007,-1.9519,-2.0964,-2.0024,-1.9985,-2.0789,-2.1787,-2.1132,-1.9219,-2.048,0.0,0.0,0.0,0.0,0.0,0.0,0.0,0.0,0.0,0.0,0.0,0.0,0.0,0.0,0.0,0.0,0.0,0.0,0.0,0.0,0.0,0.0,0.0,0.0,0.0,0.0,0.0,0.0,0.0,0.0,0.0,0.0,0.0,0.0,0.0,0.0,0.0,0.0,0.0,0.0,0.0,0.0,0.0,0.0,0.0,0.0,0.0,0.0,0.0,0.0,0.0,0.0,0.0,0.0,0.0,0.0,0.0,0.0,0.0,0.0,0.0,0.0,0.0,1.1488,1.2091,1.2861,1.2309,1.2488,1.3302,1.4272,1.3751,1.2223,1.1951,0.0,0.0,0.0,0.0,0.0,0.0,0.0,0.0,0.0,0.0,0.0,0.0,0.0,0.0,0.0,0.0,0.0,0.0,0.0,0.0,0.0,-1.7888,-1.778,-1.9579,-1.8955,-1.865,0.0,0.0,0.0,0.0,0.0,0.0,-1.9824,-1.9766,-1.981,-1.9955,-2.0754,-2.1458,-2.2122,-2.2603,-2.25,-2.1928,-2.2452,-2.1708,-1.9991,0.0,0.0,0.0,0.0,0.0,0.0,0.0,0.0,0.0,0.0,0.0,0.0,0.0,0.0,0.0,0.0,0.0,0.0,0.0,0.0,0.0,0.0,0.0,0.0,0.0,0.0,0.0,0.0,0.0,0.0,0.0,0.0,0.0,0.0,0.0,0.0,0.0,0.0,0.0,0.0,0.0,-0.4555,-0.3786,0.0,0.0,0.0,0.0,0.0,0.0,0.0,0.0,0.0,0.0,0.0,0.0,0.0,0.9341,1.2179,1.3626,1.3922,1.3182,1.4767,1.5062,1.4199,1.5116,1.5648,1.579,1.5691,0.0,1.0876,1.0247,0.0,0.0,0.0,0.0,0.0,0.0,0.0,0.0,0.0,0.0,0.0,0.0,0.0,0.0,0.0,0.0,0.0,0.0,0.0,0.0,0.0,-1.7623,-1.751,-1.7578,-1.8532,-1.8592,-1.7396,-1.8295,0.0,0.0,0.0,-1.9752,-2.0605,-2.0562,-2.0945,-2.1684,-2.2179,-2.2585,-2.2893,-2.2846,-2.2577,-2.2075,-2.2256,-2.1792,-2.0869,-2.0254,0.0,0.0,0.0,0.0,0.0,0.0,0.0,0.0,0.0,0.0,0.0,0.0,0.0,0.0,0.0,0.0,0.0,0.0,0.0,0.0,0.0,0.0,0.0,0.0,0.0,0.0,0.0,0.0,0.0,0.0,0.0,0.0,0.0,0.0,0.0,0.0,0.0,0.0,0.0,-0.4638,-0.3652,-0.2956,-0.16,-0.0493,0.0,0.0,0.0,0.0,0.0,0.0,0.0,0.0,0.0,0.6848,0.9224,1.172,1.419,1.5103,1.5326,1.5021,1.5283,1.5454,1.5505,1.563,1.5891,1.6336,1.5661,1.4315,1.2592,1.1832,1.0976,0.9958,0.0,0.0,0.0,0.0,0.9537,0.9639,0.0,0.0,0.0,0.0,0.0,0.0,0.0,0.0,0.0,0.0,0.0,0.0,-1.6456,-1.6593,-1.6308,-1.5621,-1.738,-1.7607,-1.5548,-1.705,-1.838,-1.9143,-1.9211,-1.999,-2.1502,-2.1206,-2.1706,-2.3185,-2.3038,-2.3197,-2.3615,-2.3202,-2.2752,-2.2342,-2.2034,-2.1686,-2.1293,-2.0064,-1.855,-1.6937,0.0,0.0,0.0,0.0,0.0,0.0,0.0,0.0,0.0,0.0,0.0,0.0,0.0,0.0,0.0,0.0,0.0,0.0,0.0,0.0,0.0,0.0,0.0,0.0,0.0,0.0,0.0,0.0,0.0,0.0,0.0,0.0,0.0,0.0,0.0,0.0,0.0,-0.4277,-0.3096,-0.2687,-0.1091,0.0054,0.0,0.0,0.0,0.0,0.0,0.0,0.1914,0.3677,0.5606,0.7631,1.0612,1.3095,1.5017,1.6001,1.6453,1.6347,1.5689,1.5624,1.6169,1.5667,1.5633,1.6097,1.541,1.4726,1.4217,1.3419,1.2258,1.0962,1.0507,1.031,1.0304,1.0493,1.0588,1.0683,0.0,0.0,0.0,0.0,0.0,0.0,0.0,0.0,0.0,0.0,0.0,-1.2404,-1.6116,-1.4005,-1.314,-1.5139,-1.5072,-1.4865,-1.4593,-1.6138,-1.7498,-1.8496,-1.9454,-2.0721,-2.2399,-2.1357,-2.159,-2.3126,-2.2572,-2.3057,-2.4419,-2.3858,-2.373,-2.3963,-2.2605,-2.1601,-2.0931,-1.9477,-1.8203,-1.7086,-1.6282,0.0,0.0,0.0,0.0,0.0,0.0,0.0,0.0,0.0,0.0,0.0,0.0,0.0,0.0,0.0,0.0,0.0,0.0,0.0,0.0,0.0,0.0,0.0,0.0,0.0,0.0,0.0,0.0,0.0,0.0,0.0,0.0,0.0,0.0,0.0,0.0,0.0,0.0,-0.4295,-0.1779,0.0,0.0,0.0,0.0,0.2412,0.2655,0.2801,0.299,0.389,0.5185,0.6818,1.0177,1.2806,1.4532,1.6939,1.7797,1.7002,1.7173,1.6598,1.5608,1.5757,1.5759,1.5472,1.5235,1.4997,1.4611,1.3486,1.2783,1.2318,1.1443,1.128,1.1511,1.1382,1.143,1.1558,0.0,0.0,0.0,0.0,0.0,0.0,0.0,0.0,-1.183,-1.2561,-1.2319,-1.2711,-1.4413,-1.3576,-1.3026,-1.3375,-1.36,-1.3519,-1.3051,-1.4113,-1.5551,-1.7223,-1.8218,-1.9678,-2.1588,-2.0327,-2.0792,-2.3086,-2.2058,-2.2286,-2.3652,-2.2939,-2.2544,-2.2448,-2.1762,-2.1436,-2.1313,-2.0217,-1.8845,-1.738,-1.6498,-1.5672,0.0,0.0,0.0,0.0,0.0,0.0,0.0,0.0,0.0,0.0,0.0,0.0,0.0,0.0,0.0,0.0,0.0,0.0,0.0,0.0,0.0,0.0,0.0,0.0,0.0,0.0,0.0,0.0,0.0,0.0,0.0,0.0,0.0,0.0,0.0,0.0,0.0,-0.2051,-0.0332,0.0,0.2117,0.228,0.2503,0.2856,0.3442,0.3954,0.4218,0.5017,0.6227,0.7999,1.0955,1.333,1.5028,1.6799,1.756,1.7329,1.6705,1.6168,1.5642,1.5784,1.5689,1.5404,1.535,1.516,1.4855,1.4428,1.3851,1.318,1.2657,1.2467,1.2488,1.2522,1.2637,1.2766,0.0,0.0,0.0,0.0,0.0,0.0,0.0,0.0,-1.2148,-1.2412,-1.2156,-1.2168,-1.2745,-1.2164,-1.155,-1.1335,-1.2014,-1.2142,-1.1303,-1.2852,-1.4451,-1.5801,-1.7782,-1.9277,-2.0091,-1.974,-2.0371,-2.1925,-2.1464,-2.1733,-2.263,-2.2266,-2.1924,-2.1614,-2.1456,-2.151,-2.1681,-2.1003,-1.9745,-1.8103,-1.7166,-1.642,-1.5858,0.0,0.0,0.0,0.0,0.0,0.0,0.0,0.0,0.0,0.0,0.0,0.0,0.0,0.0,0.0,0.0,0.0,0.0,0.0,0.0,0.0,0.0,0.0,0.0,0.0,0.0,0.0,0.0,0.0,0.0,0.0,0.0,0.0,0.0,0.0,-0.092,-0.0263,0.1015,0.2274,0.3182,0.3316,0.3505,0.3903,0.4489,0.5051,0.5231,0.5855,0.67,0.7984,1.027,1.2285,1.3966,1.5368,1.6412,1.6911,1.6272,1.5805,1.571,1.5757,1.5649,1.5411,1.5411,1.5269,1.5038,1.4991,1.4618,1.4048,1.3743,1.36,1.3566,1.3607,1.3661,1.3695,0.0,0.0,0.0,0.0,0.0,0.0,0.0,-1.1201,-1.2398,-1.2735,-1.1308,-1.0544,-1.1388,-0.9563,-0.8544,-0.9084,-1.0215,-1.0504,-0.9459,-1.24,-1.4274,-1.4435,-1.8166,-1.9587,-1.8104,-1.9749,-2.028,-1.9674,-2.095,-2.1628,-2.1577,-2.2151,-2.2124,-2.1655,-2.1857,-2.1991,-2.1977,-2.1762,-2.0797,-1.939,-1.813,-1.7514,-1.7112,0.0,0.0,0.0,0.0,0.0,0.0,0.0,0.0,0.0,0.0,0.0,0.0,0.0,0.0,0.0,0.0,0.0,0.0,0.0,0.0,0.0,0.0,0.0,0.0,0.0,0.0,0.0,0.0,0.0,0.0,0.0,0.0,0.0,-0.22,-0.1096,0.0,0.0831,0.2164,0.3358,0.4198,0.4276,0.4705,0.5657,0.5837,0.6014,0.6188,0.6308,0.6401,0.6461,0.8065,0.9769,1.1273,1.2973,1.4576,1.6076,1.5927,1.5852,1.5845,1.5696,1.5554,1.5411,1.5404,1.5316,1.5174,1.5031,1.4977,1.4943,1.4631,1.4604,1.4719,1.457,1.4428,1.4292,0.0,0.0,0.0,0.0,0.0,0.0,0.0,-1.1293,-1.2273,-1.2164,-1.1453,-1.0899,-1.0718,-0.9494,-0.8847,-0.9226,-0.9251,-0.972,-1.0674,-1.1869,-1.36,-1.5992,-1.6728,-1.7308,-1.7861,-1.8445,-1.8917,-1.9206,-2.0994,-2.1608,-2.1082,-2.1978,-2.2338,-2.2178,-2.2044,-2.2098,-2.2285,-2.1991,-2.151,-2.0918,-1.9666,-1.8758,-1.8063,0.0,0.0,0.0,0.0,0.0,0.0,0.0,0.0,0.0,0.0,0.0,0.0,0.0,0.0,0.0,0.0,0.0,0.0,0.0,0.0,0.0,0.0,0.0,0.0,0.0,0.0,0.0,0.0,0.0,0.0,0.0,-0.1207,0.0,-0.0066,0.1151,0.2327,0.3219,0.3739,0.4402,0.5317,0.5504,0.5728,0.6093,0.6194,0.6289,0.6382,0.6417,0.6444,0.6461,0.9167,1.0872,1.1273,1.4077,1.5625,1.5913,1.5872,1.5798,1.5689,1.554,1.5452,1.5404,1.5296,1.5221,1.5181,1.514,1.5126,1.5086,1.4672,1.4604,1.4719,1.457,1.4557,1.4597,0.0,0.0,0.0,0.0,0.0,0.0,0.0,-1.0512,-1.1292,-1.15,-1.07,-0.9983,-0.9566,-0.8574,-0.8109,-0.8565,-0.8437,-0.905,-1.0787,-1.1737,-1.3163,-1.5328,-1.5589,-1.6113,-1.7012,-1.7958,-1.8536,-1.8777,-2.0376,-2.1002,-2.0702,-2.1564,-2.2083,-2.2245,-2.2311,-2.2445,-2.2592,-2.2082,-2.1725,-2.1332,-1.9876,-1.9122,-1.8855,-1.7685,-1.6667,-1.5611,-1.3826,-1.2408,-1.1097,-0.9642,0.0,0.0,0.0,0.0,0.0,0.0,0.0,0.0,0.0,0.0,0.0,0.0,0.0,0.0,0.0,0.0,0.0,0.0,0.0,0.0,0.0,0.0,0.0,0.0,0.0266,0.161,0.2661,0.3173,0.3819,0.4804,0.5041,0.5342,0.5893,0.6074,0.6158,0.6234,0.6322,0.6387,0.6422,0.6447,0.6461,0.6461,0.897,1.0572,1.1273,1.3772,1.5407,1.5852,1.5852,1.5744,1.554,1.5452,1.5377,1.5309,1.5221,1.5181,1.5181,1.5181,1.5181,0.0,0.0,0.0,0.0,0.0,1.476,1.4814,0.0,0.0,0.0,0.0,0.0,0.0,0.0,-0.9187,-0.9877,-1.0613,-0.9364,-0.8376,-0.8172,-0.7085,-0.6786,-0.7708,-0.799,-0.8909,-1.0679,-1.1972,-1.3026,-1.3658,-1.4799,-1.5574,-1.6082,-1.7955,-1.8724,-1.8313,-1.9464,-2.0099,-2.0338,-2.1028,-2.1533,-2.1912,-2.2428,-2.2654,-2.2585,-2.1966,-2.1414,-2.0903,-1.9153,-1.8835,-1.9137,-1.7078,-1.595,-1.5196,-1.244,-1.1347,-1.094,-0.934,0.0,0.0,0.0,0.0,0.0,0.0,0.0,0.0,0.0,0.0,0.0,0.0,0.0,0.0,0.0,0.0,0.0,0.0,0.0,0.0,0.0,0.0,0.0,0.0,0.1657,0.315,0.5192,0.4913,0.4818,0.5743,0.5962,0.6057,0.6123,0.6226,0.627,0.6224,0.6319,0.6382,0.6382,0.0,0.0,0.0,0.0,1.0183,1.1573,1.319,1.4626,1.5852,1.5852,1.5716,1.5459,1.5425,1.5343,1.5228,1.5201,1.5181,1.5181,1.5181,1.5181,1.5181,1.5181,1.5174,1.5147,1.5038,1.5004,1.4997,0.0,0.0,0.0,0.0,0.0,0.0,0.0,-0.8524,-0.9105,-0.8764,-0.8372,-0.7834,-0.7085,-0.6447,-0.6799,-0.8645,-0.9455,-1.0785,-1.2935,-1.3335,-1.378,-1.436,-1.4569,-1.5227,-1.6517,-1.7927,-1.8336,-1.7849,-1.9654,-2.0278,-1.9657,-2.0464,-2.0902,-2.0921,-2.1101,-2.1151,-2.1151,-2.0943,-2.034,-1.9288,-1.874,-1.8306,-1.7815,-1.6506,-1.5351,-1.4311,-1.2942,-1.2071,-1.1432,-0.9821,-0.9408,-0.9476,-0.873,-0.837,0.0,0.0,0.0,0.0,0.0,0.0,0.0,0.0,0.0,0.0,0.0,0.0,0.0,0.0,0.0,0.0,0.0,0.0,0.0,0.0625,0.303,0.5004,0.5569,0.5594,0.5705,0.603,0.6109,0.6196,0.6308,0.6338,0.6368,0.6406,0.6431,0.6444,0.6444,0.7757,0.8467,0.8467,1.1359,1.3077,1.3279,1.4894,1.5824,1.5852,0.0,0.0,1.5757,1.552,1.5459,1.554,1.5289,1.5181,1.5181,1.5181,1.5181,1.5181,1.5181,1.5113,1.5025,1.5113,1.5221,1.5303,0.0,0.0,0.0,0.0,0.0,0.0,0.0,-0.7445,-0.7655,-0.7982,-0.7704,-0.7269,-0.669,-0.6536,-0.7233,-0.9074,-1.098,-1.2161,-1.242,-1.3069,-1.3334,-1.3048,-1.3741,-1.4792,-1.6213,-1.7489,-1.8048,-1.8078,-1.8956,-1.9358,-1.9278,-1.9772,-2.0128,-2.0404,-1.997,-1.9808,-1.9738,-1.8821,-1.804,-1.7388,-1.6308,-1.5718,-1.5375,-1.5017,-1.429,-1.3319,-1.2219,-1.1577,-1.1106,-1.0191,-0.9876,-0.9829,-0.9232,-0.8893,-0.8722,0.0,0.0,0.0,0.0,0.0,0.0,0.0,0.0,0.0,0.0,0.0,0.0,0.0,0.0,-0.2526,-0.2017,0.0,0.1151,0.174,0.3537,0.51,0.5716,0.5935,0.6044,0.6134,0.6169,0.6224,0.6316,0.6382,0.6417,0.6417,0.7245,0.7666,0.7666,0.9271,1.007,1.007,1.2532,1.3742,1.3678,1.5351,1.6083,1.5852,1.5934,1.5886,1.5744,1.5594,1.5527,1.5513,1.5282,1.5181,1.5181,1.5181,1.5181,1.5181,1.5181,1.514,1.5086,1.5153,1.5276,1.5391,0.0,0.0,0.0,0.0,0.0,0.0,0.0,-0.6412,-0.6325,-0.7325,-0.7084,-0.6706,-0.637,-0.6568,-0.7523,-0.9655,-1.21,-1.298,-1.1746,-1.2428,-1.2498,-1.1674,-1.2921,-1.4276,-1.5539,-1.6573,-1.7348,-1.7721,-1.7544,-1.7818,-1.8335,-1.8404,-1.8702,-1.9254,-1.8514,-1.8248,-1.8167,-1.6561,-1.5763,-1.5479,-1.3896,-1.3167,-1.2963,-1.3229,-1.2988,-1.2283,-1.1247,-1.0751,-1.0514,-1.0304,-1.0073,-0.9822,-0.9517,-0.93,-0.9125,-0.8648,-0.8171,0.0,0.0,0.0,0.0,0.0,0.0,0.0,0.0,-0.49,-0.3799,-0.2567,-0.2034,-0.145,-0.0208,0.0736,0.1559,0.2446,0.3523,0.4579,0.5454,0.5936,0.6125,0.6196,0.6215,0.6248,0.6308,0.6403,0.6643,0.6888,0.8145,0.9093,0.9395,1.0918,1.1828,1.1808,1.3458,1.4255,1.4177,1.5531,1.6076,1.59,1.6022,1.5954,1.5723,1.5696,1.5594,1.5445,1.5262,1.5181,1.5181,1.5181,1.5181,1.5181,1.5181,1.5181,1.5187,1.5215,1.5323,1.5432,0.0,0.0,0.0,0.0,0.0,0.0,0.0,0.0,-0.5909,-0.6166,-0.6132,-0.6048,-0.5884,-0.5898,-0.743,-1.1112,-1.2064,-1.2803,-1.3529,-1.2464,-1.194,-1.2188,-1.2621,-1.3384,-1.4596,-1.4999,-1.5265,-1.531,-1.5363,-1.5435,-1.5669,-1.5669,-1.5768,-1.6013,-1.5884,-1.5902,-1.5811,-1.5487,-1.4694,-1.3737,-1.3451,-1.26,-1.1621,-1.1657,-1.1643,-1.1454,-1.0894,-1.0392,-0.9937,-0.9977,-0.9707,-0.935,-0.9517,-0.9388,-0.9146,-0.8777,-0.8447,-0.8238,-0.8255,-0.791,-0.7209,-0.6056,-0.6355,-0.6763,0.0,-0.5637,-0.5147,-0.4229,-0.2887,-0.1516,-0.0221,0.0698,0.1387,0.1522,0.3178,0.4481,0.4674,0.5488,0.6139,0.6256,0.6316,0.6373,0.6436,0.6452,0.7062,0.8557,0.8929,0.9686,1.1111,1.2823,1.3752,1.3649,1.5404,1.6177,1.5884,1.6239,1.6334,1.6056,1.6076,1.6062,1.6029,1.5893,1.575,1.5594,1.5309,1.5181,1.5181,1.5181,1.5181,1.5181,1.5181,1.5181,1.5201,1.5337,1.5486,1.5594,0.0,0.0,0.0,0.0,0.0,0.0,0.0,0.0,0.0,-0.6376,-0.6412,-0.6429,-0.6415,-0.7057,-0.823,-1.0135,-1.1298,-1.189,-1.1833,-1.1956,-1.1703,-1.0967,-1.234,-1.3318,-1.3782,-1.4597,-1.5049,-1.5041,-1.5235,-1.527,-1.5235,-1.5349,-1.5445,-1.5458,-1.4794,-1.4498,-1.449,-1.3679,-1.3081,-1.2474,-1.2416,-1.2029,-1.1369,-1.1199,-1.0968,-1.0717,-1.0534,-1.0188,0.0,-0.937,-0.9327,-0.9397,-0.9247,-0.9176,-0.9166,-0.8906,-0.842,-0.789,-0.7413,-0.7287,-0.7188,-0.6465,-0.6691,-0.689,-0.6097,-0.5201,-0.4267,-0.3154,-0.1749,-0.0626,-0.008,0.0332,0.0775,0.1326,0.273,0.383,0.4478,0.5437,0.6117,0.6166,0.6229,0.6316,0.645,0.7364,0.8183,0.8933,1.0793,1.2267,1.2947,1.4638,1.543,1.5297,1.6095,1.649,1.6218,1.6422,1.6463,1.6334,1.6334,1.6293,1.6212,1.6056,1.5811,1.5499,1.5371,1.5262,1.5181,1.5181,1.5181,1.5181,1.5181,1.5235,1.5323,1.5391,1.5506,1.5628,0.0,0.0,0.0,0.0,0.0,0.0,0.0,0.0,0.0,0.0,-0.5688,-0.587,-0.6264,-0.7389,-0.8395,-0.9103,-1.0101,-1.0607,-1.0488,-1.1117,-1.102,-0.9968,-1.1674,-1.2692,-1.2663,-1.3733,-1.4375,-1.4367,-1.4531,-1.4523,-1.4375,-1.458,-1.467,-1.4645,-1.3821,-1.3454,-1.3372,-1.251,-1.2033,-1.1884,-1.1809,-1.1572,-1.124,-1.0934,-1.0493,-1.0039,-1.008,-0.9795,-0.9336,-0.889,-0.891,-0.9111,-0.8967,-0.9013,-0.9062,-0.892,-0.8438,-0.781,-0.7039,-0.6788,-0.6777,-0.6932,-0.6477,-0.5941,-0.5796,-0.471,-0.3431,-0.2182,-0.1204,-0.0412,-0.0084,0.0,0.0355,0.1361,0.241,0.3497,0.4518,0.5456,0.6098,0.6098,0.6109,0.6378,0.6961,0.8111,0.9267,1.0261,1.2557,1.4159,1.4765,1.5982,1.6585,1.6435,1.6571,1.6558,1.6368,1.6469,1.6503,1.6463,1.6422,1.6347,1.6239,1.609,1.5839,1.5527,1.5445,1.535,1.5242,1.5201,1.5181,1.5181,1.5181,1.5276,1.5418,1.5459,1.5567,1.5696,0.0,0.0,0.0,0.0,0.0,0.0,0.0,0.0,0.0,0.0,0.0,0.0,0.0,-0.5836,-0.7212,-0.8792,-0.8402,-0.8911,-1.074,-0.9828,-0.9431,-0.989,-1.0443,-1.0854,-1.1106,-1.196,-1.2429,-1.2429,-1.2285,-1.2285,-1.2429,-1.2353,-1.2505,-1.2565,-1.2565,-1.2565,-1.2558,-1.2338,-1.2196,-1.2033,-1.1742,-1.1362,-1.086,-1.0622,-1.0053,-0.9429,-0.9578,-0.9062,-0.8384,-0.8757,-0.8514,-0.8137,-0.8723,-0.8898,-0.8858,-0.8764,-0.8608,-0.8395,-0.7871,-0.6719,-0.5957,-0.7102,-0.5286,-0.3604,-0.5174,-0.4493,-0.3285,-0.2135,-0.19,-0.1499,-0.0256,0.0,0.0351,0.1359,0.241,0.3488,0.4476,0.5432,0.6098,0.6098,0.6,0.6559,0.0,0.8652,1.0171,1.3273,1.3903,1.4765,1.6312,1.6802,1.6897,1.6741,1.689,1.6822,1.6517,1.6517,1.6449,1.6313,1.6164,1.609,1.6083,1.5934,1.5852,1.5825,1.5533,1.5404,1.5391,1.5242,1.5181,1.5181,1.5181,1.5276,1.5432,1.5581,1.5723,1.6041,0.0,0.0,0.0,0.0,0.0,0.0,0.0,0.0,0.0,0.0,0.0,0.0,0.0,0.0,0.0,0.0,-0.7283,-0.7997,-0.8528,-0.8935,-0.901,-0.8727,-0.955,-1.0008,-0.9928,-1.0915,-1.1339,-1.1244,-1.181,-1.2088,-1.2142,-1.2142,-1.2271,-1.2501,-1.2406,-1.2413,-1.2494,-1.2352,-1.2203,-1.2026,-1.1626,-1.0975,-1.0274,-1.0086,-0.9466,-0.8514,0.0,-0.7849,-0.8244,-0.7968,-0.7464,-0.6845,-0.6722,-0.6909,-0.7165,-0.7099,-0.698,-0.6569,-0.5412,-0.4665,-0.435,-0.468,-0.4045,-0.355,-0.4223,-0.3383,-0.2347,-0.1959,-0.1204,-0.0476,-0.0081,0.0,0.0336,0.1292,0.2344,0.3461,0.447,0.5432,0.6068,0.5989,0.6952,0.0,0.0,0.0,0.0,1.1948,1.3323,1.4343,1.524,1.6394,1.6958,1.6904,1.6951,1.6883,1.6673,1.6673,1.67,1.6754,1.6497,1.6327,1.6225,1.6076,1.5947,1.5845,1.5649,1.5506,1.5398,1.5248,1.5181,1.5194,1.5296,1.5425,1.5581,1.573,1.6363,1.7089,0.0,0.0,0.0,0.0,0.0,0.0,0.0,0.0,0.0,0.0,0.0,0.0,0.0,0.0,0.0,0.0,0.0,-0.6777,-0.6911,-0.79,-0.8334,-0.8094,-0.8957,-0.938,-0.9267,-1.0199,-1.0696,-1.0652,-1.1344,-1.1721,-1.1823,-1.1877,-1.206,-1.2338,-1.2189,-1.221,-1.2338,-1.1963,-1.1723,-1.1633,-1.0955,-1.0324,-0.9742,-0.9546,-0.8686,0.0,-0.6711,-0.6592,-0.6698,-0.6342,-0.5879,-0.5426,-0.5128,-0.5287,-0.5554,-0.5514,-0.5443,-0.5144,-0.4026,-0.3397,-0.3084,-0.344,-0.2916,-0.2408,-0.3015,-0.2119,-0.1217,-0.1207,-0.0545,0.0,0.0,0.0,0.0311,0.1291,0.2034,0.3023,0.4453,0.5146,0.5724,0.6016,0.7457,0.897,0.0,0.0,0.0,1.2776,1.3604,1.4446,1.5228,1.6394,1.6978,1.6978,1.6978,1.6931,1.6836,1.6781,1.6768,1.6815,1.6564,1.6395,1.6307,1.6151,1.6029,1.5927,1.5778,1.5628,1.5486,1.5384,1.5316,1.5276,1.5432,1.5581,1.5723,1.5818,1.6933,1.8259,0.0,0.0,0.0,0.0,0.0,0.0,0.0,0.0,0.0,0.0,0.0,0.0,0.0,0.0,0.0,0.0,0.0,0.0,-0.5919,-0.681,-0.7528,-0.8031,-0.8563,-0.8842,-0.8892,-0.9805,-1.026,-1.0395,-1.0685,-1.1036,-1.1328,-1.1463,-1.1687,-1.1965,-1.1809,-1.1823,-1.1959,-1.1078,-1.078,-1.0739,-0.9711,-0.9268,-0.9231,-0.8811,-0.7696,-0.6343,-0.6122,-0.5145,-0.3917,-0.3964,-0.3974,-0.3883,-0.389,-0.3993,-0.4047,-0.3935,-0.3963,-0.4024,-0.3691,-0.2749,-0.2195,-0.3287,-0.1804,-0.0331,-0.1571,-0.0901,0.0,0.0,0.0,0.0,0.0,0.007,0.0421,0.1423,0.1707,0.245,0.4446,0.4814,0.5196,0.6161,0.7612,0.9192,1.0883,0.0,0.0,1.5636,0.0,1.4765,1.6326,1.6815,1.6985,1.6992,1.6985,1.6978,1.6978,1.6836,1.668,1.6517,1.6388,1.632,1.6307,1.6151,1.6083,1.6076,1.592,1.5778,1.5649,1.5642,1.5554,1.5438,1.5588,1.5737,1.595,1.5957,1.7326,1.9232,0.0,0.0,0.0,0.0,0.0,0.0,0.0,0.0,0.0,0.0,0.0,0.0,0.0,0.0,0.0,0.0,0.0,0.0,-0.5522,-0.6455,-0.7141,-0.7422,-0.7621,-0.7741,-0.7828,-0.8658,-0.9156,-0.9187,-0.9761,-1.0209,-1.0456,-1.0317,-1.0439,-1.0731,-1.0575,-1.0588,-1.0724,-1.0372,-1.0225,-1.0116,-0.8543,-0.7638,-0.7048,-0.5996,-0.5079,-0.4176,-0.338,-0.2826,-0.2663,-0.3667,-0.3357,-0.2524,-0.2535,-0.2528,-0.2534,-0.2508,-0.2522,-0.232,-0.1227,-0.0768,-0.0566,-0.0903,-0.0495,-0.0083,-0.0414,-0.0241,0.0,0.0,0.0,0.0,0.0,0.0535,0.1331,0.2443,0.318,0.416,0.5592,0.5849,0.6509,0.7828,0.9501,1.1099,1.2554,1.2845,0.0,0.0,1.4812,1.4296,1.4807,1.6243,1.7026,1.7134,1.7032,1.6978,1.6978,1.6944,1.6788,1.6524,1.6483,1.6415,1.6307,1.6151,1.6083,1.6076,1.592,1.5832,1.5791,1.5683,1.5615,1.5594,1.5744,1.5818,1.5964,1.687,1.8122,1.9528,0.0,0.0,0.0,0.0,0.0,0.0,0.0,0.0,0.0,0.0,0.0,0.0,0.0,0.0,0.0,0.0,0.0,0.0,0.0,-0.6251,-0.6957,-0.7135,-0.7339,-0.7425,-0.7479,-0.8042,-0.8331,-0.8331,-0.8911,-0.9313,-0.9462,-0.9442,-0.9295,-0.9136,-0.8998,-0.8678,-0.8285,-0.7795,-0.7681,0.0,0.0,-0.5605,-0.5251,-0.4575,-0.3681,-0.2742,-0.218,-0.1637,-0.1259,-0.1983,-0.1763,-0.1138,-0.1124,-0.1094,-0.1128,-0.1137,-0.1128,-0.0961,-0.0233,0.0,0.0,0.0,0.0,0.0,0.0,0.0,0.0,0.0,0.0,0.0,0.0,0.0683,0.1513,0.2169,0.3116,0.4372,0.625,0.6663,0.7505,0.9579,1.143,1.2795,1.354,1.4419,1.5259,0.0,1.4923,1.444,1.5277,1.6367,1.7019,1.71,1.7026,1.6978,1.6978,1.6978,1.6897,1.672,1.6585,1.6476,1.6395,1.6178,1.6083,1.6076,0.0,1.5913,1.5852,1.5839,1.5791,1.575,1.5893,1.625,1.675,1.7437,1.9042,2.1094,0.0,0.0,0.0,0.0,0.0,0.0,0.0,0.0,0.0,0.0,0.0,0.0,0.0,0.0,0.0,0.0,0.0,0.0,0.0,0.0,-0.6873,-0.6838,-0.7171,-0.7248,-0.712,-0.7235,-0.7292,-0.7292,-0.7712,-0.7955,-0.8083,-0.8205,-0.784,-0.7142,-0.698,-0.6421,-0.5536,-0.4775,-0.4557,-0.4698,-0.3781,-0.3503,-0.3704,0.0,-0.2764,-0.1712,-0.1712,-0.0989,0.0,0.0,0.0,0.0,0.0,0.0,0.0,0.0,0.0,0.0,0.0,0.0,0.0,0.0,0.0,0.0,0.0,0.0,0.0,0.0,0.0,0.0,0.0,0.0689,0.1395,0.1583,0.2461,0.4077,0.6879,0.7343,0.8488,1.1455,1.3096,1.4075,1.4349,1.5731,1.6571,1.6551,1.5212,1.5056,1.6637,1.6897,1.6978,1.6978,1.6958,1.6958,1.6978,1.6978,1.6978,1.6978,1.6666,1.653,1.6544,1.6246,1.611,1.611,1.611,1.6029,1.5893,1.6029,1.61,1.6195,1.6227,1.707,1.8259,1.8358,2.0504,2.3433,0.0,0.0,0.0,0.0,0.0,0.0,0.0,0.0,0.0,0.0,-0.0775,-0.1367,0.0,0.0,0.0,0.0,0.0,0.0,0.0,0.0,0.0,-0.547,-0.5756,-0.5552,-0.4651,-0.4664,-0.4672,-0.4672,-0.4722,-0.48,-0.4817,-0.4833,-0.4761,-0.4642,-0.4577,-0.4491,-0.432,-0.4157,-0.4135,-0.4065,-0.2778,-0.2281,-0.2214,-0.1102,0.0,0.0,-0.0353,-0.0205,0.0,0.0,0.0,0.0,0.0,0.0,0.0,0.0,0.0,0.0,0.0,0.0,0.0,0.0,0.0,0.0,0.0,0.0,0.0,0.0,0.0,0.0,0.0,0.0729,0.1605,0.2601,0.355,0.5184,0.7985,0.8547,0.9915,1.3127,1.4043,1.4892,1.6025,1.654,0.0,0.0,1.6397,1.641,1.6644,1.6897,1.6978,1.6978,1.6856,1.6849,1.6978,1.6978,1.6978,1.6978,1.6666,1.6585,1.67,1.6402,1.6273,1.6273,1.6273,0.0,1.6042,1.6069,1.6559,1.743,1.736,1.8837,2.0978,2.1869,2.3423,2.5367,0.0,0.0,0.0,0.0,0.0,0.0,0.0,0.0,0.0,0.0,-0.0934,-0.1755,-0.223,-0.3257,0.0,0.0,0.0,0.0,0.0,0.0,0.0,0.0,-0.4432,-0.4324,-0.3814,-0.3857,-0.3857,-0.3772,0.0,-0.3857,-0.3772,-0.3779,-0.3445,-0.2854,-0.2854,-0.2508,-0.1938,-0.1911,-0.193,-0.1857,-0.1215,-0.098,-0.0884,0.0,0.0,0.0,0.0,0.0,0.0,0.0,0.0,0.0,0.0,0.0,0.0,0.0,0.0,0.0,0.0,0.0,0.0,0.0,0.0,0.0,0.0,0.0,0.0,0.0,0.0534,0.1043,0.1025,0.2377,0.3401,0.327,0.4884,0.682,0.887,1.0095,1.2004,1.4917,1.5537,1.6021,1.6765,1.6937,1.6978,1.6978,1.691,1.687,1.687,1.6937,1.6978,1.6978,1.691,1.6944,1.7087,1.7019,1.7019,1.7087,1.6781,1.668,1.6637,1.6524,1.6422,1.6422,1.6422,0.0,1.6198,1.6792,1.7341,1.7771,1.8259,2.0111,2.2447,2.2945,2.4979,2.7696,0.0,0.0,0.0,0.0,0.0,0.0,0.0,-0.0236,-0.0287,-0.0041,-0.1381,-0.2504,-0.2914,-0.4011,-0.4991,0.0,0.0,0.0,0.0,0.0,0.0,0.0,0.0,0.0,-0.2839,0.0,0.0,-0.2833,-0.2937,0.0,0.0,0.0,0.0,0.0,-0.1434,-0.0879,0.0,0.0,0.0,0.0,0.0,0.0,0.0,0.0,0.0,0.0,0.0,0.0,0.0,0.0,0.0,0.0,0.0,0.0,0.0,0.0,0.0,0.0,0.0,0.0,0.0,0.0,0.0084,0.0157,0.0069,0.0129,0.0178,0.0052,0.1058,0.2012,0.2012,0.373,0.4911,0.4065,0.5939,0.8094,0.9822,1.1512,1.3644,1.6239,1.6761,1.6971,1.7175,1.7121,0.0,1.7141,1.7046,1.6978,1.6978,1.6951,1.6944,1.6978,1.6951,1.6998,1.7148,1.7066,1.7066,1.7148,1.691,1.6802,1.6795,1.6639,1.6571,1.6571,1.6537,0.0,0.0,1.7572,1.8275,1.8944,1.9725,2.1869,2.4407,2.4407,2.6732,2.9924,0.0,0.0,0.0,0.0,0.0,0.0,0.0,-0.0946,-0.1233,-0.0161,-0.277,-0.4338,-0.3195,-0.4068,-0.4732,0.0,0.0,0.0,0.0,0.0,0.0,0.0,0.0,0.0,0.0,0.0,0.0,-0.0323,-0.0329,0.0,0.0,0.0,0.0,0.0,0.0,-0.0088,0.0,0.0,0.0,0.0,0.0,0.0,0.0,0.0,0.0,0.0,0.0,0.0,0.0,0.0,0.0,0.0,0.0,0.0,0.0,0.0,0.0,0.0,0.0,0.0,0.0,0.0,0.0505,0.0856,0.0138,0.051,0.082,0.0156,0.1058,0.2012,0.2012,0.3186,0.4498,0.5592,0.6093,0.7652,1.1248,1.2289,1.3668,1.6379,1.71,1.7317,1.7202,1.7304,1.7277,1.7019,1.6985,1.6978,1.6978,1.6849,1.6836,1.6978,1.6842,1.6842,1.6998,1.7114,1.7114,1.6998,1.6971,1.6958,1.6951,1.6802,1.6727,1.672,1.6578,0.0,0.0,1.7747,1.9643,2.2652,2.275,2.527,2.886,2.886,2.9924,3.1474,0.0,0.0,0.0,0.0,0.0,0.0,0.0033,-0.0843,-0.1407,-0.1123,-0.2719,-0.3988,-0.426,-0.4046,-0.4089,-0.4633,0.0,0.0,0.0,0.0,0.0,0.0,0.0,0.0,0.0,0.0,0.0,0.0,0.0,0.0,0.0,0.0,0.0,0.0,0.0,0.0,0.0,0.0,0.0,0.0,0.0,0.0,0.0,0.0,0.0,0.0,0.0,0.0,0.0,0.0,0.0,0.0,0.0,0.0,0.0,0.0,0.0,0.0,0.0,0.0,0.0,0.0,0.0247,0.0378,0.0069,0.0249,0.0564,0.108,0.2264,0.3466,0.4271,0.5658,0.6631,0.6371,0.7408,0.8706,0.9922,1.1394,1.3139,1.5383,1.5995,1.6469,1.7127,0.0,1.7107,1.6992,1.6978,1.6978,1.6978,1.6924,1.6917,1.6978,1.6917,1.7005,1.7243,1.7127,1.7127,1.7243,1.7066,1.6978,1.6978,1.6917,1.689,1.6883,1.7543,0.0,0.0,2.0125,2.1668,2.2529,2.4643,2.7021,2.9446,2.9446,3.0414,3.1664,0.0,0.0,0.0,0.0,0.0,0.0,0.0,-0.1031,-0.1811,-0.1762,-0.3115,-0.4193,-0.4459,-0.3785,-0.3465,-0.3762,-0.3113,0.0,0.0,0.0,0.0,0.0,0.0,0.0,0.0,0.0,0.0,0.0,0.0,0.0,0.0,0.0,0.0,0.0,0.0,0.0,0.0,0.0,0.0,0.0,0.0,0.0,0.0,0.0,0.0,0.0,0.0,0.0,0.0,0.0,0.0,0.0,0.0,0.0,0.0,0.0,0.0,0.0,0.0,0.0174,0.0356,0.0347,0.0563,0.0735,0.0953,0.0918,0.1208,0.2349,0.3667,0.4872,0.5827,0.7316,0.8157,0.732,0.852,0.9552,0.9649,1.1065,1.2705,1.4428,1.4903,1.552,1.6625,1.6883,1.6978,1.6978,1.6978,1.6998,1.7039,1.7005,1.6978,1.6978,1.7019,1.7121,1.729,1.7168,1.7168,1.729,1.7121,1.7019,1.6978,1.6978,1.6978,1.7083,1.8067,0.0,0.0,2.181,2.333,2.3314,2.6457,2.8668,3.0115,3.0115,3.0795,3.1664,0.0,0.0,0.0,0.0,0.0,0.0,0.0,-0.1748,-0.2727,-0.1722,-0.4443,-0.5595,-0.3385,-0.3285,-0.2901,-0.1755,-0.1608,0.0,0.0,0.0,0.0,0.0,0.0,0.0,0.0,0.0,0.0,0.0,0.0,0.0,0.0,0.0,0.0,0.0,0.0,0.0,0.0,0.0,0.0,0.0,0.0,0.0,0.0,0.0,0.0,0.0,0.0,0.0,0.0,0.0,0.0,0.0,0.0,0.0,0.0,0.0,0.0,0.0,0.0,0.0656,0.128,0.1265,0.1805,0.2436,0.3143,0.3154,0.3236,0.3875,0.5022,0.5977,0.5977,0.725,0.8418,0.8811,0.9191,0.9903,1.1332,1.1877,1.2508,1.3709,1.4122,1.4665,1.5567,1.6463,1.6978,1.6978,1.6978,0.0,1.7182,1.706,1.6978,1.6978,1.7114,1.7121,1.6985,1.727,1.727,1.6985,1.7127,1.7114,1.6978,1.6978,1.6978,1.7076,0.0,0.0,0.0,2.2123,2.4365,2.611,2.8475,3.0319,3.1677,3.1677,3.1664,3.1664,0.0,0.0,0.0,0.0,0.0,0.0,0.0,-0.1062,-0.185,-0.1734,-0.3169,-0.3997,-0.3498,-0.2764,-0.2135,-0.1755,-0.099,0.0,0.0,0.0,0.0,0.0,0.0,0.0,0.0,0.0,0.0,0.0,0.0,0.0,0.0,0.0,0.0,0.0,0.0,0.0,0.0,0.0,0.0,0.0,0.0,0.0,0.0,0.0,0.0,0.0,0.0,0.0,0.0,0.0,0.0,0.0,0.0,0.0,0.0,0.0,0.0,0.0,0.0,0.022,0.0379,0.0449,0.1256,0.2131,0.2371,0.3093,0.4037,0.5161,0.5727,0.6282,0.7185,0.7935,0.856,0.9015,0.934,0.9808,1.0595,1.1396,1.2352,1.3553,1.5221,1.6388,0.0,0.0,1.7127,1.7127,1.7032,1.7039,1.7182,1.706,1.7073,1.7277,1.7222,1.727,1.7439,1.7426,1.7372,1.7277,1.7222,1.7121,1.6978,1.7811,1.8125,0.0,0.0,0.0,0.0,2.4488,2.6209,2.632,2.9645,3.1284,3.1664,3.1664,3.1664,3.1664,0.0,0.0,0.0,0.0,0.0,0.0,0.0,-0.0932,-0.1401,-0.1674,-0.2498,-0.299,-0.2853,-0.2171,-0.1564,-0.1166,-0.0421,0.0,0.0,0.0,0.0,0.0,0.0,0.0,0.0,0.0,0.0,0.0,0.0,0.0,0.0,0.0,0.0,0.0,0.0,0.0,0.0,0.0,0.0,0.0,0.0,0.0,0.0,0.0,0.0,0.0,0.0,0.0,0.0,0.0,0.0,0.0,0.0,0.0,0.0,0.0,0.0768,0.0775,0.0757,0.1394,0.199,0.1973,0.263,0.337,0.3909,0.4416,0.5137,0.6453,0.6731,0.7036,0.7839,0.8282,0.8594,0.8933,0.9334,0.9808,1.0371,1.1246,1.2298,1.3559,1.5425,1.6625,0.0,1.7046,1.7277,1.7277,1.7141,1.7121,1.727,1.7087,1.7114,1.7412,1.7324,1.7344,1.7473,1.7864,1.803,1.7974,1.8244,1.8324,1.823,1.8955,1.9268,0.0,0.0,0.0,0.0,2.671,2.8111,2.7347,3.058,3.177,3.1664,3.1664,3.1664,3.1664,0.0,0.0,0.0,0.0,0.0,0.0,0.0,-0.112,-0.1286,-0.1458,-0.2196,-0.24,-0.1579,-0.1495,-0.1105,-0.0086,0.0,0.0,0.0,0.0,0.0,0.0,0.0,0.0,0.0,0.0,0.0,0.0,0.0,0.0,0.0,0.0,0.0,0.0,0.0,0.0,0.0,0.0,0.0,0.0,0.0,0.0,0.0,0.0,0.0,0.0,0.0,0.0,0.0,0.0,0.0,0.0,0.0,0.0,0.0,0.0,0.0,0.0,0.0,0.3701,0.5199,0.5199,0.5282,0.5668,0.6904,0.6657,0.0,0.7766,0.7988,0.7995,0.8015,0.8296,0.8547,0.8743,0.9252,0.9883,1.0629,1.147,1.2508,1.3858,1.5052,1.5811,1.592,1.6836,1.7412,1.7405,1.7377,1.7363,1.7399,1.7247,1.7332,1.7506,1.7728,1.7659,1.7315,1.8638,1.9165,1.9001,1.9893,2.032,2.04,2.0504,2.0608,0.0,0.0,0.0,2.3748,2.8583,2.9891,2.9084,3.1263,3.1957,3.1704,3.1677,3.1664,3.1664,0.0,0.0,0.0,0.0,0.0,0.0,0.0,0.0,0.0,0.0,-0.0568,-0.0602,-0.0394,-0.0384,-0.0285,0.0,0.0,0.0,0.0,0.0,0.0,0.0,0.0,0.0,0.0,0.0,0.0,0.0,0.0,0.0,0.0,0.0,0.0,0.0,0.0,0.0,0.0,0.0,0.0,0.0,0.0,0.0,0.0,0.0,0.0,0.0,0.0,0.0,0.0,0.0,0.0,0.0,0.0,0.0,0.0,0.0,0.3428,0.5082,0.5037,0.0,0.4314,0.4314,0.5071,0.5917,0.0,0.693,0.7629,0.7945,0.7988,0.8056,0.8336,0.8431,0.8682,0.93,0.9605,1.0032,1.0718,1.2528,1.4217,1.5567,1.6483,1.6924,1.6734,1.7141,1.7372,1.7256,1.8067,1.8166,1.7243,1.8872,1.9394,1.8521,2.0621,2.0661,1.8638,1.9985,2.046,2.0149,2.032,2.0987,2.1824,2.2747,2.3769,0.0,0.0,2.7418,2.7382,3.0131,3.0748,3.0229,3.1888,3.2265,3.1971,3.1757,3.1664,3.1664,0.0,0.0,0.0,0.0,0.0,0.0,0.0,0.0,0.0,0.0,0.0,0.0,0.0,0.0,0.0,0.0,0.0,0.0,0.0,0.0,0.0,0.0,0.0,0.0,0.0,0.0,0.0,0.0,0.0,0.0,0.0,0.0,0.0,0.0,0.0,0.0,0.0,0.0,0.0,0.0,0.0,0.0,0.0,0.0,0.0,0.0,0.0,0.0,0.0,0.0,0.0,0.0,0.0,0.0,0.0,0.0,0.4372,0.6132,0.6731,0.6468,0.5985,0.5985,0.6511,0.7041,0.7061,0.7535,0.7988,0.7988,0.7988,0.8062,0.8343,0.8492,0.8764,0.9313,0.9808,1.0561,1.1796,1.3254,1.4692,1.6042,1.7092,1.7791,0.0,1.8601,1.8881,1.89,2.0083,2.0564,1.9922,2.1008,2.1377,2.0748,2.2711,2.2495,1.976,2.1759,2.2548,2.2345,2.2884,2.3757,2.5145,2.5662,2.6328,0.0,0.0,2.9368,2.9593,3.1491,3.207,3.1758,3.2504,3.2559,3.2265,3.1971,3.1864,3.1851,0.0,0.0,0.0,0.0,0.0,0.0,0.0,0.0,0.0,0.0,0.0,0.0,0.0,0.0,0.0,0.0,0.0,0.0,0.0,0.0,0.0,0.0,0.0,0.0,0.0,0.0,0.0,0.0,0.0,0.0,0.0,0.0,0.0,0.0,0.0,0.0,0.0,0.0,0.0,0.0,0.0,0.0,0.0,0.0,0.0,0.0,0.0,0.0,0.0,0.0,0.0,0.005,0.0252,0.0,0.0,0.0,0.0,0.0,0.769,0.8201,0.835,0.8255,0.8255,0.832,0.8241,0.8133,0.7988,0.7988,0.8008,0.8126,0.8303,0.8581,0.8893,0.9289,1.012,1.1375,1.3132,1.4064,1.5006,1.6264,1.7929,0.0,1.9182,2.0652,2.1422,2.1078,2.2732,2.3567,2.333,2.3606,2.3616,2.3484,2.4869,2.4335,2.1742,2.4089,2.5142,2.48,2.5933,2.7261,2.8765,2.8476,2.8461,2.8896,0.0,0.0,3.0938,3.272,3.328,3.2986,3.3026,3.2866,3.267,3.2225,3.2104,3.2064,0.0,0.0,0.0,0.0,0.0,0.0,0.0,0.0,0.0,0.0,0.0,0.0,0.0,0.0,0.0,0.0,0.0,0.0,0.0,0.0,0.0,0.0,0.0,0.0,0.0,0.0,0.0,0.0,0.0,0.0,0.0,0.0,0.0,0.0,0.0,0.0,0.0,0.0,0.0,0.0,0.0,0.0,0.0,0.0,0.0,0.0,0.0,0.0,0.0,0.0,0.0,0.0202,0.1309,0.0,0.0,0.0,0.0,0.0,0.7939,0.8379,0.8662,0.815,0.8174,0.8235,0.8106,0.8008,0.7988,0.7988,0.8147,0.8316,0.8594,0.8886,0.9266,0.9822,1.1097,1.2549,1.4089,1.5638,1.6891,1.7577,0.0,2.1613,2.0078,2.2794,2.4061,2.2558,2.5052,2.6089,2.4966,2.6781,2.7399,2.6261,2.8447,2.877,2.6942,2.7766,2.7361,2.5933,2.7221,2.8623,3.0215,2.9726,3.0313,3.1914,0.0,3.2319,3.2372,3.338,3.348,3.3,3.3253,3.316,3.2853,3.2305,3.2104,3.2064,0.0,0.0,0.0,0.0,0.0,0.0,0.0,0.0,0.0,0.0,0.0,0.0,0.0,0.0,0.0,0.0,0.0,0.0,0.0,0.0,0.0,0.0,0.0,0.0,0.0,0.0,0.0,0.0,0.0,0.0,0.0,0.0,0.0,0.0,0.0,0.0,0.0,0.0,0.0,0.0,0.0,0.0,0.0,0.0,0.0,0.0,0.0,0.0,0.0,0.0,0.0493,0.1191,0.1785,0.0,0.0,0.0,0.0,0.0,0.7988,0.8303,0.8547,0.8431,0.8635,0.8811,0.8528,0.8587,0.8621,0.8487,0.8642,0.8845,0.8927,0.9395,1.0175,1.1423,1.2338,1.3432,1.5159,1.6187,1.7585,0.0,0.0,2.3536,2.3803,2.5841,2.6723,2.5787,2.7929,2.888,2.811,2.9147,2.9462,2.8828,2.9794,2.9562,2.7858,2.9891,2.9964,2.8241,2.8913,3.0131,3.1858,3.1289,3.1574,3.2629,0.0,3.2305,3.2345,3.2919,3.3093,3.3013,3.3293,3.3334,3.316,3.2732,3.2372,3.2104,0.0,0.0,0.0,0.0,0.0,0.0,0.0,0.0,0.0,0.0,0.0,0.0,0.0,0.0,0.0,0.0,0.0,0.0,0.0,0.0,0.0,0.0,0.0,0.0,0.0,0.0,0.0,0.0,0.0,0.0,0.0,0.0,0.0,0.0,0.0,0.0,0.0,0.0,0.0,0.0,0.0,0.0,0.0,0.0,0.0,0.0,0.0,0.0,0.0,0.0,0.0,0.0,0.0,0.0,0.0,0.6381,0.7185,0.7988,0.7988,0.8201,0.8411,0.8567,0.8866,0.9117,0.9096,0.9123,0.9221,0.9134,0.934,0.9501,0.9432,1.0039,1.1124,1.2745,1.3376,1.4449,1.6612,1.734,1.8869,2.2302,2.4282,2.5787,2.7122,2.8562,2.9173,2.8584,3.0264,3.1302,3.0987,3.0975,3.0975,3.0975,3.071,2.9971,2.878,3.1192,3.162,3.007,3.0401,3.1411,3.2853,3.2265,3.2158,3.2425,3.2131,3.1998,3.2024,3.2318,3.2572,3.2812,3.324,3.3454,3.348,3.3106,3.2746,3.2438,0.0,0.0,0.0,0.0,0.0,0.0,0.0,0.0,0.0,0.0,0.0,0.0,0.0,0.0,0.0,0.0,0.0,0.0,0.0,0.0,0.0,0.0,0.0,0.0,0.0,0.0,0.0,0.0,0.0,0.0,0.0,0.0,0.0,0.0,0.0,0.0,0.0,0.0,0.0,0.0,0.0,0.0,0.0,0.0,0.0,0.0,0.0,0.0,0.0,0.0,0.0,0.0,0.0,0.0,0.6232,0.7484,0.7939,0.7988,0.7988,0.835,0.8621,0.8364,0.8381,0.856,0.9374,0.9347,0.9364,0.9795,1.0195,1.031,1.0101,1.0826,1.1884,1.2976,1.3871,1.5643,1.9063,0.0,2.2312,2.5156,2.7986,2.9073,2.7756,3.0428,3.1607,3.0095,3.1509,3.2501,3.2474,3.2474,3.2474,3.2474,3.2098,3.1938,3.1746,3.1768,3.1229,3.007,3.138,3.2195,3.2656,3.1971,3.1864,3.2118,3.1824,3.1704,3.1717,3.2011,3.2144,3.2251,3.308,3.3587,3.3788,3.3187,3.3133,3.3307,0.0,0.0,0.0,0.0,0.0,0.0,0.0,0.0,0.0,0.0,0.0,0.0,0.0,0.0,0.0,0.0,0.0,0.0,0.0,0.0,0.0,0.0,0.0,0.0,0.0,0.0,0.0,0.0,0.0,0.0,0.0,0.0,0.0,0.0,0.0,0.0,0.0,0.0,0.0,0.0,0.0,0.0428,0.0,0.0,0.0,0.0,0.0,0.0,0.0,0.0,0.3741,0.457,0.564,0.6569,0.7335,0.7839,0.7988,0.7988,0.7988,0.837,0.8682,0.8574,0.8682,0.9036,0.9598,1.0012,1.0358,1.0677,1.1131,1.1402,1.1199,1.187,1.2968,1.4433,1.6247,1.8538,2.1435,2.3189,2.5212,2.7961,2.9408,3.0267,3.0758,3.1848,3.227,3.1406,3.2147,3.2465,3.2278,3.2265,3.2265,3.2265,3.1984,3.1837,3.1837,3.1717,3.1498,3.112,3.1604,3.1984,3.2251,3.1851,3.1931,3.2345,3.1877,3.177,3.1931,3.1864,3.1944,3.2171,3.2866,3.344,3.3814,3.32,3.2933,3.2893,0.0,0.0,0.0,0.0,0.0,0.0,0.0,0.0,0.0,0.0,0.0,0.0,0.0,0.0,0.0,0.0,0.0,0.0,0.0,0.0,0.0,0.0,0.0,0.0,0.0,0.0,0.0,0.0,0.0,0.0,0.0,0.0,0.0,0.0,0.0,0.0,0.0,0.0,0.0197,0.0583,0.0575,0.1313,0.0,0.0,0.0,0.0,0.0,0.0,0.0,0.0,0.517,0.5958,0.6463,0.726,0.7988,0.7988,0.7988,0.7982,0.7928,0.8228,0.852,0.8615,0.8899,0.9405,1.008,1.0643,1.1138,1.1572,1.1945,1.2271,1.2566,1.3155,1.431,1.6521,1.8516,2.0937,2.412,2.5701,2.7456,3.0106,3.0489,3.1089,3.2168,3.2361,3.2185,3.1984,3.2158,3.2185,3.1971,3.1971,3.1971,3.1971,3.177,3.1664,3.1664,3.1664,3.1664,3.1664,3.1664,3.177,3.1957,3.1757,3.1891,3.2251,3.1851,3.1784,3.1944,3.1757,3.1891,3.2278,3.2585,3.3133,3.3668,3.3066,3.2826,3.2839,0.0,0.0,0.0,0.0,0.0,0.0,0.0,0.0,0.0,0.0,0.0,0.0,0.0,0.0,0.0,0.0,0.0,0.0,0.0,0.0,0.0,0.0,0.0,0.0,0.0,0.0,0.0,0.0,0.0,0.0,0.0,0.0,0.0,0.0,0.0,0.0,0.0,0.0,0.0715,0.1802,0.1821,0.2549,0.3616,0.0,0.0,0.0,0.0,0.0,0.0,0.0,0.6009,0.6274,0.7595,0.7988,0.7988,0.7988,0.7988,0.7955,0.7855,0.788,0.8069,0.8411,0.8886,0.9576,1.0927,1.1234,1.147,1.2528,1.2617,1.2915,1.4184,1.4756,1.6017,1.9118,2.0446,2.2612,2.7218,2.7768,2.8739,3.1365,3.1664,3.1664,3.1664,3.1664,3.1664,3.1664,3.1664,3.1664,3.1664,3.1664,3.1664,3.1664,3.1664,3.1664,3.1664,3.1664,3.1664,3.1664,3.1664,3.1664,3.1664,3.1664,3.1664,3.1677,3.1664,3.1664,3.1677,3.1664,3.2011,3.2519,3.2211,3.2639,3.3334,3.2759,3.2906,3.336,0.0,0.0,0.0,0.0,0.0,0.0,0.0,0.0,0.0,0.0,0.0,0.0,0.0,0.0,0.0,0.0,0.0,0.0,0.0,0.0,0.0,0.0,0.0,0.0,0.0,0.0,0.0,0.0,0.0,0.0,0.0,0.0,0.0,0.0051,0.0973,0.0864,0.005,0.1027,0.1576,0.1817,0.1916,0.3121,0.0,0.0,0.0,0.0,0.0,0.0,0.0,0.0,0.0,0.0,0.7842,0.7988,0.7988,0.7988,0.7988,0.7982,0.7934,0.8391,0.8818,0.8804,0.9618,1.0575,1.1185,1.1565,1.2224,1.3417,1.4863,1.5992,1.6353,1.8187,2.0246,2.1891,2.3626,2.5614,2.7932,2.9249,3.0262,3.1236,3.1356,3.1436,3.165,3.1664,3.1664,3.1664,3.1664,3.1664,3.1664,3.1664,3.1664,3.1664,3.1664,3.1664,3.1664,3.1664,3.1664,3.1664,3.1664,3.1664,3.1664,3.1664,3.1784,3.1957,3.1757,3.1784,3.1957,3.1757,3.1891,3.2225,3.2131,3.2385,3.2759,3.2372,3.2345,3.2478,0.0,0.0,0.0,0.0,0.0,0.0,0.0,0.0,0.0,0.0,-0.0323,0.0,0.0,0.0,0.0,0.0,0.0,0.0,0.0,0.0713,0.0497,0.0533,0.0185,0.0,0.0,0.0,0.0,0.0,0.0,0.0,0.0,0.0,0.0,0.0051,0.0826,0.1019,0.0792,0.1558,0.248,0.3312,0.3374,0.4555,0.6281,0.0,0.0,0.0,0.0,0.0,0.0,0.0,0.0,0.0,0.7961,0.7988,0.7988,0.7988,0.7948,0.7977,0.8099,0.8547,0.9042,0.9256,1.0152,1.1427,1.3096,1.3885,1.4559,1.5493,1.7467,1.9166,1.9676,2.115,2.2935,2.4741,2.6193,2.7646,2.9225,3.0228,3.0862,3.1036,3.1049,3.1129,3.1303,3.1316,3.1316,3.1316,3.1316,3.1316,3.1316,3.1436,3.149,3.149,3.161,3.161,3.149,3.161,3.1557,3.133,3.1557,3.161,3.149,3.161,3.1757,3.1917,3.1744,3.177,3.1917,3.1744,3.177,3.1931,3.1931,3.2038,3.2171,3.1998,3.1931,3.1931,0.0,0.0,0.0,0.0,0.0,0.0,0.0,0.0,0.0,0.0,0.0,0.0,0.0,0.0,0.0,0.0,0.0,0.0,0.0,0.0,0.1277,0.1181,0.0406,0.0,0.0,0.0,0.0,0.0,0.0,0.0,0.0,0.0,0.0052,0.0207,0.0311,0.0973,0.1997,0.212,0.3452,0.5603,0.5609,0.6374,0.7543,0.7421,0.0,0.0,0.0,0.0,0.0,0.0,0.0,0.0,0.7988,0.7988,0.7988,0.7988,0.795,0.7923,0.8241,0.8567,0.9028,0.9862,1.0877,1.251,1.5931,1.743,1.8228,1.8444,2.0462,2.2413,2.3577,2.3831,2.4879,2.7603,2.8211,2.8932,3.0491,3.0715,3.0728,3.0755,3.0755,3.0768,3.0795,3.0795,3.0795,3.0795,3.0795,3.0795,3.0795,3.1036,3.1183,3.1183,3.145,3.1463,3.1196,3.145,3.1316,3.0795,3.133,3.145,3.1196,3.1517,3.1664,3.1664,3.1637,3.1637,3.1664,3.1664,3.1664,3.1664,3.1664,3.1664,3.1664,3.1664,3.1664,3.1664,0.0,0.0,0.0,0.0,0.0,0.0,0.0,0.0,0.0,0.0,0.0,0.0,0.0,0.0,0.0,0.0,0.0,0.0,0.0,0.0,0.0979,0.0309,0.0095,0.0,0.0,0.0,0.0,0.0,0.0,0.0,0.0,0.0,0.0574,0.1622,0.257,0.3123,0.3457,0.4359,0.5055,0.5435,0.5547,0.6264,0.7206,0.7339,0.7453,0.0,0.0,0.0,0.0,0.0,0.0,0.0,0.7988,0.7988,0.7988,0.7988,0.8099,0.8262,0.8682,0.9178,0.9795,1.0697,1.3039,1.5487,1.6816,2.0175,2.2575,2.1191,2.3125,2.5144,2.5556,2.721,2.8693,2.9335,2.9517,2.9673,3.001,3.01,3.0194,3.0421,3.0448,3.0541,3.0768,3.0795,3.0795,3.0795,3.0795,3.0795,3.0795,3.0849,3.0889,3.0889,3.0955,3.0955,3.0889,3.0955,3.0915,3.0795,3.0915,3.0955,3.0902,3.1436,3.1664,3.165,3.1423,3.145,3.1664,3.1664,3.1664,3.1664,3.1664,3.1664,3.1664,3.1664,3.1664,3.1664,0.0,0.0,0.0,0.0,0.0,0.0,0.0,0.0,0.0,0.0,0.0,0.0,0.0,0.0,0.0,0.0,0.0,0.0,0.0,0.0,0.14,0.0045,0.0,0.0,0.0,0.0548,0.0598,0.0,0.1133,0.1485,0.0958,0.0934,0.1655,0.2967,0.3555,0.4125,0.469,0.5249,0.5815,0.6352,0.6424,0.6813,0.736,0.7366,0.746,0.7489,0.757,0.0,0.0,0.0,0.0,0.0,0.0,0.0,0.7988,0.7988,0.8045,0.8231,0.9157,0.9774,1.0853,1.3341,1.5774,1.8121,2.0113,2.2587,2.4613,2.4961,2.647,2.7749,2.7923,2.8989,2.9913,2.9913,2.9913,2.9873,2.9726,2.9713,2.9766,2.9927,2.994,3.006,3.0341,3.0247,3.0221,3.0368,3.0247,3.0221,3.0368,3.0515,3.0581,3.0581,3.0715,3.0728,3.0581,3.0728,3.0648,3.0381,3.0662,3.0795,3.0808,3.1249,3.153,3.1664,3.1503,3.153,3.1664,3.1664,3.1664,3.1664,3.1664,3.1664,3.1664,3.1664,3.1664,3.1664,0.0,0.0,0.0,0.0,0.0,0.0,0.0,0.0,0.0,0.0,0.0,0.0,0.0,0.0,0.0,0.0,0.0,0.0,0.0,0.0,0.0,0.0044,0.0189,0.0291,0.0291,0.146,0.151,0.0291,0.2485,0.32,0.2427,0.2355,0.3061,0.4318,0.4157,0.4806,0.5915,0.5782,0.6321,0.7333,0.7333,0.7407,0.7509,0.738,0.7428,0.7563,0.759,0.7692,0.7834,0.7941,0.0,0.0,0.0,0.0,0.8287,0.8088,0.8111,0.8435,0.9446,1.0489,1.217,1.6131,1.8424,2.0479,2.3237,2.44,2.5598,2.8036,2.9045,2.9553,2.9793,2.9847,2.986,2.9913,2.9833,2.97,2.9513,2.9446,2.9406,2.9406,2.9406,2.9526,2.9806,2.9579,2.9526,2.982,2.9619,2.9593,2.9833,3.0127,3.0287,3.0287,3.0515,3.0528,3.0287,3.0515,3.0394,2.9927,3.0408,3.0675,3.0728,3.1022,3.1289,3.1517,3.1517,3.1543,3.1597,3.165,3.1664,3.1664,3.1664,3.1664,3.1664,3.1664,3.1664,3.1664,0.0,0.0,0.0,0.0,0.0,0.0,0.0,0.0,0.0,0.0,0.0,0.0,0.0,0.0,0.0,0.0,0.0,0.0,0.1732,0.0,0.0,0.0,0.1002,0.149,0.1397,0.2694,0.2694,0.1397,0.2875,0.3808,0.4167,0.3758,0.4332,0.5722,0.5478,0.6101,0.7295,0.7021,0.6992,0.7125,0.7125,0.7139,0.7152,0.7132,0.7265,0.7467,0.755,0.7692,0.7834,0.7941,0.7988,0.0,0.0,0.0,0.9509,0.8329,0.8907,0.9772,0.9178,1.1256,1.4233,1.7077,1.9842,2.2139,2.3025,2.4914,2.6848,2.803,2.8885,2.9499,2.9539,2.9539,2.9619,2.9873,2.9486,2.9232,2.9459,2.9259,2.9098,2.9098,2.9098,2.9219,2.9513,2.9272,2.9219,2.9526,2.9499,2.9499,2.9539,2.982,2.998,2.998,3.0007,3.002,2.998,3.002,2.9993,2.9913,2.9993,3.0167,3.0434,3.0715,3.0875,3.0915,3.0915,3.1049,3.1303,3.1557,3.1664,3.1664,3.1664,3.1664,3.1664,3.1664,3.1664,3.1664,0.0,0.0,0.0,0.0,0.0,0.0,0.0,0.0,0.0,0.0,0.0,0.0,0.0,0.0,0.0,0.1256,0.1693,0.174,0.1334,0.1032,0.0917,0.0894,0.2042,0.2615,0.245,0.3857,0.3974,0.263,0.4613,0.5546,0.5518,0.5927,0.6675,0.7622,0.7286,0.7384,0.7821,0.7434,0.7217,0.7098,0.7098,0.7368,0.7662,0.7258,0.7465,0.8012,0.8489,0.8295,0.7931,0.8814,0.8627,0.8137,0.8874,0.0,0.0,0.0,1.0636,1.1336,1.2247,1.4519,1.726,1.9641,2.1822,2.3669,2.4692,2.5751,2.6827,2.7709,2.8203,2.8644,2.9138,2.9232,2.9272,2.9406,2.9205,2.9032,2.8991,2.8885,2.8804,2.8804,2.8804,2.8911,2.9205,2.8965,2.8925,2.9219,2.9232,2.9232,2.9232,2.9513,2.9673,2.9673,2.9673,2.9753,2.9913,2.9753,2.9673,2.9673,3.0007,3.0234,3.0368,3.0662,3.0889,3.1049,3.1209,3.1263,3.1236,3.137,3.1423,3.1423,3.1423,3.1517,3.1664,3.1664,3.1664,3.1664,0.0,0.0,0.0,0.0,0.0,0.0,0.0,0.0,0.0,0.0,0.0,0.0,0.0,0.0,0.0,0.0,0.0956,0.0975,0.0988,0.1381,0.1631,0.1633,0.301,0.3743,0.3592,0.5043,0.5131,0.3813,0.6086,0.6901,0.6395,0.7572,0.8472,0.9028,0.854,0.8221,0.7961,0.7604,0.7366,0.7251,0.7258,0.7604,0.8065,0.7842,0.8155,0.8876,0.965,0.0,0.0,0.0,0.0,0.9164,1.019,1.073,0.0,0.0,0.0,1.2383,1.468,1.661,1.8568,2.1099,2.267,2.4022,2.5491,2.6012,2.64,2.7201,2.7428,2.7709,2.8457,2.8711,2.8858,2.9018,2.8911,2.8764,2.8631,2.8537,2.8484,2.8484,2.8484,2.8604,2.8898,2.8657,2.8617,2.8911,2.8938,2.8965,2.9032,2.9325,2.9513,2.9593,2.9593,2.9659,2.9806,2.9593,2.9486,2.9486,3.0074,3.0354,3.0368,3.0742,3.1022,3.1236,3.1463,3.1383,3.1129,3.1276,3.1249,3.1129,3.1276,3.1423,3.157,3.1637,3.1664,3.1664,0.0,0.0,0.0,0.0,0.0,0.0,0.0,0.0,0.0,0.0,0.0,0.0,-0.1043,-0.0412,0.0032,0.0065,0.007,0.0074,0.0078,0.102,0.1642,0.1799,0.3743,0.0,0.5009,0.6202,0.6245,0.5023,0.6585,0.7089,0.6503,0.7871,0.8777,0.9334,0.8737,0.8309,0.7968,0.7712,0.7584,0.7596,0.7714,0.7768,0.7952,0.9069,0.9579,0.9831,0.0,0.0,0.0,0.0,0.0,0.0,0.0,1.2668,1.344,0.0,0.0,0.0,1.4596,1.55,1.6551,1.9942,2.147,2.2485,2.3981,2.4957,2.5732,2.6333,2.668,2.6974,2.7295,2.7899,2.8377,2.8951,2.8564,2.8368,2.8564,2.835,2.8248,2.8248,2.8248,2.8283,2.8604,2.835,2.8297,2.8604,2.8631,2.8751,2.9032,2.9325,2.9606,2.9887,2.99,2.9766,2.9513,2.9486,2.9486,2.9486,3.0074,3.0354,3.0381,3.0942,3.1209,3.1223,3.1236,3.1089,3.0862,3.1423,3.1316,3.0875,3.1423,3.149,3.1276,3.157,3.1664,3.1664,0.0,0.0,0.0,0.0,0.0,0.0,0.0,0.0,0.0,0.0,0.0,0.0,0.0,-0.0451,0.0,0.0,0.0,0.0,0.0,0.1682,0.2718,0.2762,0.4969,0.6176,0.614,0.6701,0.6753,0.6276,0.6902,0.7244,0.7328,0.7925,0.8364,0.8669,0.8642,0.8513,0.8296,0.7902,0.7624,0.7533,0.8313,0.896,0.9433,0.9842,0.0,0.0,0.0,0.0,0.0,0.0,0.0,0.0,0.0,0.0,0.0,1.4316,1.4424,1.4691,1.6075,1.6536,1.7171,1.9296,2.0641,2.171,2.2806,2.4035,2.5117,2.5705,2.6066,2.6413,2.6894,2.7308,2.7655,2.7869,2.7722,2.7682,2.7976,2.7762,2.7805,2.8181,2.7976,2.7976,2.8283,2.8288,2.8274,2.8297,2.8497,2.8564,2.847,2.8938,2.9245,2.9352,2.9539,2.9593,2.9486,2.9673,2.9673,2.9486,3.0074,3.0354,3.0381,3.0969,3.1129,3.0969,3.1343,3.1343,3.1076,3.1089,3.0982,3.0795,3.0822,3.0996,3.1236,3.1343,3.1503,3.1664,0.0,0.0,0.0,0.0,0.0,0.0,0.0,0.0,0.0,0.0,0.0,0.0,0.0,0.0,0.0,0.0,0.0,0.0,0.0,0.2066,0.3323,0.3384,0.5585,0.6851,0.6851,0.6903,0.695,0.6957,0.7051,0.7301,0.7746,0.7896,0.8045,0.8201,0.8343,0.8411,0.8391,0.8038,0.7773,0.7724,0.8988,0.9865,1.0529,0.0,0.0,0.0,0.0,0.0,0.0,0.0,0.0,0.0,0.0,0.0,0.0,0.0,1.5784,1.5952,1.6553,1.67,1.7061,1.8544,1.9426,2.0281,2.167,2.2899,2.3968,2.477,2.5317,2.5812,2.6293,2.6547,2.6774,2.7068,2.7201,2.7295,2.7388,2.7321,2.7415,2.7886,2.7669,2.7629,2.7913,2.802,2.7989,2.7989,2.8377,0.0,2.831,2.8764,2.9045,2.9045,2.9138,2.9192,2.9192,2.9379,2.9432,2.9339,2.9927,3.0261,3.0381,3.0862,3.0982,3.0808,3.1209,3.1263,3.1076,3.1089,3.0969,3.0782,3.0688,3.0822,3.1089,3.1196,3.1356,3.153,0.0,0.0,0.0,0.0,0.0,0.0,0.0,0.0,0.0,-0.361,0.0,0.0,0.0,0.0,0.0,0.0,0.0,0.0,0.0,0.207,0.3392,0.3588,0.56,0.6851,0.7092,0.6858,0.6851,0.7098,0.7098,0.7247,0.759,0.7733,0.7875,0.7961,0.7868,0.7977,0.8248,0.8099,0.8038,0.8209,0.0,1.0463,1.1086,0.0,0.0,0.0,1.6239,1.6339,0.0,1.6192,0.0,0.0,0.0,0.0,0.0,0.0,0.0,1.5784,0.0,0.0,0.0,1.7595,1.7769,1.8183,2.0481,2.1483,2.2258,2.346,2.4396,2.5104,2.5424,2.5491,2.5785,2.6627,2.7028,2.7134,2.6854,2.7068,2.7241,2.7268,2.7255,2.7255,2.7281,2.7535,2.7696,2.7709,2.8257,2.8604,2.8604,2.8885,2.9045,2.9045,2.8764,2.8617,2.8617,2.8617,2.8764,2.9045,2.9633,3.006,3.0341,3.0648,3.0768,3.0768,3.0782,3.0795,3.0822,3.141,3.1303,3.0822,3.1102,3.1036,3.0822,3.1116,3.1209,3.1249,0.0,0.0,0.0,0.0,0.0,0.0,-0.5386,0.0,-0.3796,0.0,0.0,0.0,-0.1096,-0.0439,0.0,0.0,0.0,0.0,0.0,0.2216,0.3549,0.3592,0.5762,0.7011,0.7092,0.7018,0.7018,0.7098,0.7098,0.7139,0.7227,0.7421,0.7516,0.7556,0.7631,0.776,0.7936,0.7889,0.8517,0.969,1.0941,1.2238,0.0,0.0,0.0,0.0,0.0,1.642,1.6513,0.0,1.6616,1.6112,0.0,0.0,0.0,0.0,0.0,0.0,1.5784,0.0,0.0,0.0,0.0,0.0,1.841,1.9519,2.0735,2.199,2.2699,2.3514,2.4663,2.505,2.5277,2.5518,2.5985,2.644,2.6774,2.6707,2.6787,2.7215,2.7081,2.7108,2.7535,2.7655,2.7789,0.0,2.8261,2.8703,2.9603,2.9893,2.9727,2.9045,2.8965,2.8925,2.8925,2.8925,2.8965,2.9045,2.9419,2.9646,2.974,3.0247,3.0368,3.0181,3.0608,3.0675,3.0515,3.0875,3.0942,3.0795,3.0889,3.0862,3.0808,3.0889,3.0915,3.0955,0.0,0.0,0.0,0.0,0.0,0.0,-0.5759,-0.4496,-0.3518,0.0,0.0,0.0,-0.0634,-0.0274,0.0,0.0,0.0,0.021,0.0711,0.2522,0.3826,0.4341,0.6122,0.7098,0.7098,0.7038,0.7038,0.7098,0.7038,0.7071,0.7238,0.7265,0.7312,0.7419,0.7461,0.7905,0.8515,0.859,0.9195,0.0,1.2139,0.0,0.0,1.5885,1.662,0.0,0.0,0.0,1.7275,1.7315,1.6911,0.0,0.0,0.0,0.0,0.0,0.0,0.0,0.0,0.0,1.5838,1.6126,0.0,0.0,1.7635,1.8437,1.9426,2.0735,2.147,2.2245,2.3487,2.3955,2.4275,2.4649,2.5104,2.5611,2.6199,2.6239,2.6386,2.6841,2.6747,2.6827,2.7295,2.7442,2.7642,2.7936,2.8514,2.9409,3.0453,3.0595,3.0283,2.9771,2.9429,2.9172,2.9172,2.8843,2.8724,2.8858,2.9032,2.9179,2.9312,3.0212,3.0513,3.0376,3.1201,3.1492,3.1353,3.1797,3.1587,3.0969,3.1432,3.1272,3.0795,3.0795,3.0715,3.0675,0.0,0.0,0.0,-0.5973,-0.6047,-0.6067,-0.6067,-0.4427,-0.3092,0.0,-0.1227,0.0,0.0,0.0,0.0042,0.0213,0.0212,0.0725,0.1947,0.3126,0.4289,0.5338,0.6523,0.7119,0.7119,0.7018,0.7018,0.7146,0.7018,0.7136,0.7439,0.7258,0.731,0.7622,0.7622,0.8429,0.9749,1.0112,1.0307,1.065,1.3292,1.466,0.0,0.0,1.7609,1.7702,1.8277,1.8303,1.7942,1.7649,1.7021,0.0,0.0,0.0,0.0,0.0,1.5845,0.0,0.0,0.0,0.0,0.0,0.0,0.0,1.7449,1.7756,1.8223,1.9639,2.0361,2.1002,2.1951,2.2365,2.2846,2.3674,2.4168,2.469,2.5411,2.5772,2.6039,2.6266,2.6319,2.6453,2.6747,2.7122,2.7512,2.7835,2.9327,3.0509,3.1128,3.1047,3.0886,3.0773,2.9981,2.9578,2.9649,2.8783,2.8413,2.8722,2.8762,2.891,2.9165,3.041,3.1014,3.1144,3.2207,3.269,3.2763,3.3483,3.2824,3.1369,3.2357,3.1926,3.0835,3.0808,3.0608,3.0434,0.0,0.0,-0.6003,-0.6224,-0.641,-0.6573,-0.6573,-0.4803,-0.3453,-0.3244,-0.1339,0.0,0.0,0.0,0.0447,0.1496,0.1519,0.2022,0.3333,0.4441,0.5166,0.5399,0.6656,0.7326,0.7326,0.7421,0.7482,0.7509,0.7482,0.7502,0.7556,0.7522,0.8073,0.9099,0.9099,0.9897,1.1358,1.2444,1.3034,1.3232,1.4278,0.0,1.678,1.7396,1.7742,1.7942,1.8357,1.8303,1.7916,1.7422,1.7166,1.6951,0.0,0.0,0.0,0.0,0.0,0.0,0.0,0.0,0.0,0.0,0.0,0.0,1.6246,1.6446,1.6901,1.7889,1.8183,1.8691,2.0054,2.0548,2.0882,2.1296,2.2405,2.3741,2.5291,2.5772,2.5892,2.5705,2.5892,2.6159,2.6453,2.7387,2.827,2.873,3.0851,3.1652,3.0554,3.1362,3.143,3.0437,2.9929,2.9963,3.0567,2.9395,2.9022,2.9327,2.9577,2.963,2.9785,3.0952,3.1671,3.1917,3.2164,3.2412,3.2749,3.4037,3.3495,3.2103,3.279,3.2335,3.1116,3.0875,3.0608,3.0381,-0.565,-0.5874,-0.6114,-0.6525,-0.6715,-0.6626,-0.6135,-0.4712,-0.3419,-0.2555,-0.1036,0.0233,0.0903,0.0991,0.1494,0.2769,0.2905,0.3364,0.0,0.5156,0.5779,0.639,0.706,0.7453,0.7482,0.7563,0.7597,0.7597,0.7597,0.7638,0.7706,0.8276,0.8791,0.9254,1.0185,1.1189,1.2301,1.338,1.4279,1.5141,1.5557,0.0,1.6981,1.7408,1.7675,1.7849,1.8156,1.8115,1.7995,1.8036,1.7542,0.0,0.0,1.6607,1.6433,0.0,1.6152,1.6206,0.0,0.0,0.0,1.6019,0.0,0.0,0.0,1.6273,1.6576,1.7395,1.7462,1.7782,1.8931,1.9265,1.9599,2.0334,2.1443,2.2593,2.3407,2.4676,2.5518,2.5518,2.6022,2.6457,2.6758,2.7628,2.8633,2.9494,3.0866,3.1503,3.1087,3.1861,3.1953,3.1396,3.0746,3.0579,3.0922,2.952,2.91,2.9921,2.9578,2.9733,3.0394,3.1642,3.2319,3.2498,3.3244,3.366,3.3929,3.4979,3.4681,3.3667,3.3686,3.2934,3.1836,3.1087,3.0608,3.0445,-0.5878,-0.602,-0.6274,-0.6755,-0.6889,-0.6573,-0.557,-0.4478,-0.3105,-0.1176,-0.0143,0.0931,0.2264,0.2445,0.299,0.4271,0.4383,0.4814,0.0,0.0,0.6344,0.728,0.7407,0.7489,0.7556,0.7638,0.7685,0.7685,0.7685,0.7883,0.8236,0.9187,0.9693,0.9921,1.1371,1.2548,1.3428,1.3942,1.5015,1.6299,0.0,1.674,1.6847,1.7382,1.7622,1.7702,1.7902,1.7995,1.8049,1.8464,1.7782,1.682,1.7058,1.6831,0.0,0.0,0.0,0.0,0.0,0.0,0.0,0.0,0.0,1.6166,0.0,0.0,0.0,1.7114,1.7061,1.7166,1.7849,1.8023,1.837,1.9319,2.0361,2.1105,2.1105,2.2886,0.0,2.4783,2.5697,2.6472,2.6717,2.7564,2.8726,3.0253,3.0283,3.0701,3.1635,3.203,3.2221,3.2221,3.1509,3.1253,3.1376,2.9698,2.9616,3.0892,3.0238,3.0563,3.1798,3.3068,3.3656,3.375,3.4742,3.5248,3.5408,3.574,3.5775,3.5555,3.4481,3.3564,3.2664,3.1539,3.1134,3.1226,-0.5669,-0.6146,-0.6485,-0.6695,-0.6903,-0.6675,-0.5581,-0.4488,-0.2493,0.1131,0.1811,0.2404,0.3645,0.4062,0.0,0.0,0.0,0.0,0.8223,0.0,0.717,0.7125,0.755,0.7645,0.7446,0.7787,0.7941,0.7941,0.7941,0.8583,0.9772,0.9894,1.1172,1.3351,1.3227,1.406,1.5423,1.5278,1.5623,0.0,1.6593,1.686,0.0,1.7462,1.7756,1.7942,1.7982,1.7995,1.7916,0.0,1.7286,1.7112,0.0,1.6887,1.7045,0.0,0.0,0.0,0.0,0.0,0.0,0.0,1.6683,0.0,0.0,0.0,1.6233,1.6059,0.0,1.6005,1.6112,0.0,0.0,1.67,1.813,1.9225,1.9225,2.0347,2.1483,2.2285,2.3927,2.5198,2.5592,2.6604,2.8371,3.1054,2.9937,2.9645,3.095,3.1315,3.1506,3.1506,3.1429,3.1636,3.2253,3.1005,3.1317,3.313,3.3049,3.3871,3.543,3.6368,3.6916,3.7148,3.6203,3.6192,3.6725,3.5542,3.6134,3.7485,3.5106,3.3708,3.3079,3.2678,3.3079,3.3901,-0.5622,-0.6227,-0.6546,-0.679,-0.6437,-0.5735,-0.4628,-0.2026,0.068,0.2992,0.348,0.4176,0.0,0.0,0.0,0.0,0.0,0.7781,0.0,0.0,0.7692,0.7536,0.7712,0.7794,0.776,0.7894,0.7988,0.7988,0.8775,0.946,1.0051,1.1551,1.2661,1.3438,1.4343,1.5089,1.5578,1.5631,1.5992,0.0,0.0,0.0,0.0,1.7527,1.7662,1.7796,1.7929,1.7876,1.7769,0.0,1.7328,0.0,0.0,0.0,0.0,0.0,0.0,0.0,0.0,0.0,0.0,0.0,0.0,0.0,1.6303,0.0,1.6286,0.0,0.0,0.0,0.0,0.0,0.0,0.0,1.7435,1.809,1.7916,1.8918,2.0054,2.1096,0.0,0.0,2.5225,2.5936,2.7146,2.9115,2.8701,2.8812,2.9886,3.0875,3.1225,3.0759,3.1647,3.2271,3.2567,3.2736,3.3581,3.5059,3.4789,3.5395,3.6735,3.7135,3.7383,3.7498,3.7468,3.7604,3.7833,3.7691,3.8357,3.9132,3.7401,3.6871,3.6876,3.5379,3.5455,3.6447,-0.4801,-0.5656,-0.615,-0.6317,-0.5834,-0.4808,-0.298,0.0193,0.2949,0.4568,0.503,0.5773,0.7288,0.7595,0.0,0.0,0.9195,0.8939,0.0,0.0,0.8088,0.0,0.0,0.0,0.0,0.0,0.8528,0.8528,0.9854,1.073,1.1112,1.3006,1.3874,1.3851,1.5209,1.5752,1.5658,1.5858,1.6286,1.6834,1.6834,1.6954,1.7233,1.7527,1.7582,1.7609,1.7836,1.7769,1.7609,1.7756,1.7368,0.0,1.7328,0.0,0.0,0.0,0.0,0.0,1.7014,0.0,0.0,0.0,0.0,0.0,0.0,0.0,0.0,0.0,0.0,0.0,0.0,0.0,0.0,0.0,0.0,1.7235,1.7005,1.7649,0.0,0.0,0.0,0.0,0.0,2.4981,2.5689,2.7669,2.7506,2.8015,2.96,3.0835,3.1375,3.1113,3.2288,3.3043,3.3146,3.396,3.5105,3.6556,3.6294,3.692,3.8183,3.8292,3.8347,3.8383,3.8563,3.886,3.903,3.936,3.9948,4.0686,3.9826,4.0246,4.109,3.8301,3.8031,3.9171,-0.2828,-0.4174,-0.51,-0.4986,-0.5211,-0.4178,-0.0503,0.1191,0.3052,0.0,0.0,0.0,0.0,0.0,0.0,0.0,0.0,0.9781,0.9768,0.0,0.8461,0.0,0.0,0.8091,0.0,0.0,0.9953,0.9953,1.1219,1.2474,1.3776,1.3872,1.4555,1.571,1.5771,1.5979,1.6295,1.6308,1.6643,1.7192,1.7192,1.7192,1.7233,0.0,1.7582,1.7582,1.7595,0.0,0.0,1.7326,1.7206,0.0,0.0,0.0,0.0,0.0,0.0,0.0,0.0,0.0,0.0,1.7147,0.0,0.0,0.0,0.0,1.662,0.0,0.0,0.0,0.0,0.0,0.0,0.0,0.0,0.0,0.0,0.0,0.0,0.0,0.0,0.0,0.0,2.3441,2.4033,2.7904,2.667,2.7168,3.0456,3.1469,3.2245,3.3109,3.348,3.385,3.4221,3.4256,3.5332,3.7352,3.778,3.8879,4.0393,4.0899,4.1094,4.1016,3.9745,3.9658,4.0258,3.949,4.0373,4.2196,4.1599,4.3066,4.5039,4.109,4.0611,4.1972,-0.2849,-0.2971,-0.3135,-0.3778,-0.3423,0.0,0.0,0.2752,0.0,0.0,0.8184,0.0,0.0,1.0833,1.107,0.0,0.0,1.0541,1.0154,0.9564,0.0,0.0,0.0,0.865,0.0,0.0,0.0,0.0,1.1268,1.2571,1.392,1.4758,1.5391,1.5784,1.5784,1.6099,1.654,1.6353,0.0,0.0,0.0,1.7328,1.7983,0.0,0.0,1.738,1.7515,1.7582,0.0,1.7527,1.756,1.7746,1.7953,1.8091,1.8369,1.8838,1.9211,0.0,0.0,0.0,2.0711,1.8422,0.0,0.0,0.0,0.0,0.0,0.0,0.0,0.0,0.0,0.0,0.0,0.0,0.0,0.0,0.0,0.0,1.739,0.0,1.9784,2.176,0.0,2.3806,2.4653,2.6533,2.6579,2.7381,2.9408,3.1006,3.1884,3.2012,3.3671,3.477,3.5174,3.6509,3.7661,3.8605,3.9336,3.9989,4.0547,4.0976,4.1172,4.1191,4.0974,4.126,4.1756,4.2017,4.2728,4.3676,4.3785,4.4617,4.5444,4.3361,4.3394,4.4347,-0.2517,-0.1834,-0.1503,-0.2588,0.0,0.0,0.0,0.0,0.0,0.0,0.9205,0.0,1.1396,0.0,1.1775,0.0,1.1647,1.1219,1.0412,1.0385,0.0,1.0509,1.038,0.0,0.0,0.0,0.0,0.0,0.0,1.3914,1.4603,1.5439,1.5784,1.5832,1.5939,1.6259,1.67,1.662,1.6911,0.0,0.0,1.7168,0.0,0.0,1.7313,1.7675,0.0,1.7582,1.7635,1.7845,1.7984,1.8222,1.8627,1.8949,1.9263,1.9665,2.0197,2.0574,2.0399,2.134,0.0,1.9686,1.9895,0.0,1.7881,0.0,0.0,0.0,0.0,0.0,0.0,0.0,0.0,0.0,0.0,0.0,0.0,1.7809,0.0,0.0,2.0197,2.134,2.2996,2.3496,2.4351,2.5937,2.6495,2.7438,2.9057,3.0909,3.2158,3.2533,3.4221,3.5426,3.5996,3.7416,3.834,3.8769,3.9805,4.0293,4.0312,4.0898,4.1172,4.1191,4.1465,4.1816,4.2266,4.3125,4.375,4.4199,4.4805,4.5195,4.5402,4.4854,4.4904,4.5058,-0.1823,-0.0842,0.0,0.0,-0.0662,0.0,0.0,0.0,0.5673,0.0,0.9441,1.1016,1.1633,1.1959,1.2128,1.2121,1.2312,1.1889,1.0722,1.149,0.0,0.0,1.275,1.3394,1.3466,0.0,0.0,0.0,0.0,1.633,1.5798,1.5784,1.5784,1.5798,1.6139,1.642,1.67,1.7058,1.734,1.7488,1.6927,1.6727,1.6817,1.679,1.7514,1.8521,1.7849,1.7635,1.774,1.8265,1.8475,1.8579,1.9168,1.9964,2.0643,2.0658,2.1744,2.2735,2.1557,2.1999,2.2391,2.0973,0.0,0.0,0.0,0.0,1.9708,0.0,0.0,0.0,0.0,0.0,0.0,0.0,0.0,0.0,0.0,0.0,2.0178,0.0,2.0864,2.104,2.3484,2.2666,2.3204,2.6131,2.6387,2.7324,2.9509,3.1211,3.291,3.459,3.5176,3.5859,3.6699,3.709,3.7519,3.7969,3.9258,3.9883,3.9922,4.0781,4.1172,4.1172,4.1172,4.1406,4.1875,4.2695,4.3301,4.3769,4.4648,4.5,4.5039,4.5449,4.5078,4.4199,-0.1646,-0.0758,-0.0098,0.0,-0.0196,0.01,0.0,0.0,0.0,0.0,0.9672,1.1986,1.2698,1.2942,1.301,1.2895,1.3347,0.0,0.0,0.0,0.0,1.4922,1.4574,1.4791,1.5618,1.4848,0.0,1.5286,0.0,1.5141,1.6152,1.5939,1.5784,1.5798,1.6139,1.6362,1.6406,1.67,1.686,1.6914,1.6767,1.7357,1.8268,0.0,1.8531,1.955,1.854,1.8475,1.8907,1.9011,1.9309,1.9672,1.9828,2.0487,2.1233,2.1537,2.2087,2.2704,2.2812,2.3284,2.3668,2.3228,2.3429,2.3534,0.0,0.0,0.0,0.0,0.0,0.0,0.0,0.0,0.0,0.0,0.0,0.0,0.0,0.0,0.0,2.1925,0.0,0.0,2.3694,2.4066,2.4726,2.5791,2.6211,2.7324,2.9509,3.0918,3.2324,3.3711,3.543,3.6601,3.7129,3.7246,3.7676,3.8418,3.9062,3.9551,3.9922,4.0781,4.1172,4.1172,4.1172,4.1406,4.1836,4.2383,4.2851,4.332,4.4219,4.4551,4.457,4.4687,4.418,4.334,-0.1684,-0.0791,0.0,0.0835,0.0,0.0,0.1358,0.371,0.0,0.736,1.0262,0.0,1.2827,1.3193,1.3342,1.3186,1.3756,0.0,1.3409,0.0,0.0,1.6304,1.6668,1.7032,1.7529,1.6844,0.0,1.6271,0.0,1.5473,1.6072,1.5912,1.5784,1.5784,1.6005,1.6219,1.6486,1.6914,1.7174,1.7255,1.7255,1.7914,0.0,1.846,1.9109,2.0021,1.9389,1.9205,1.9324,1.9583,1.9828,2.0168,2.0581,2.1123,2.1735,2.2084,2.2545,2.3038,2.3378,2.4188,2.4923,2.4944,2.5528,2.5948,2.5224,2.5207,2.5145,0.0,0.0,0.0,0.0,0.0,0.0,0.0,0.0,0.0,0.0,0.0,0.0,0.0,2.3153,0.0,2.3496,2.3945,2.4492,2.5117,2.5566,2.6328,0.0,2.9726,3.1445,3.2559,3.4687,3.6113,3.6738,3.6934,3.7266,3.7754,3.8555,3.9062,3.9355,4.0215,4.0723,4.0879,4.0879,4.1133,4.1562,4.1973,4.2305,4.2598,4.3281,4.3418,4.3262,4.3262,4.3066,4.2734,-0.1582,0.0,0.0,0.0,0.0,0.0,0.0,0.5129,0.0,0.8732,0.0,1.244,1.2603,1.3071,1.3398,1.3349,0.0,1.421,1.3754,1.531,1.6535,1.7037,1.8765,1.9546,1.9361,1.965,0.0,0.0,0.0,1.6393,1.5838,1.5798,1.5784,1.5784,1.5872,1.6241,1.6841,1.7311,1.7753,1.8071,1.8113,1.8433,1.8941,1.8985,1.9484,2.0189,2.0189,1.9879,1.9583,2.0034,2.0189,2.0354,2.1128,2.1687,2.2075,2.2535,2.3111,2.3655,2.3802,2.4911,2.6101,2.6321,2.725,2.7855,2.6906,2.6707,2.6636,2.6263,2.5913,2.5841,0.0,0.0,0.0,0.0,0.0,0.0,0.0,0.0,0.0,0.0,0.0,0.0,0.0,2.314,2.3452,2.4355,2.4707,0.0,0.0,0.0,3.0625,3.1738,3.3789,3.5273,3.6094,3.6484,3.6699,3.6758,3.793,3.8516,3.8613,3.9492,4.0098,4.0449,4.0508,4.0742,4.1113,4.1543,4.1719,4.1758,4.2051,4.1953,4.1621,4.1562,4.1816,4.2129,-0.0299,0.0,0.0,0.0,0.0,0.4128,0.7252,0.838,0.9105,0.9582,1.1528,1.2942,1.3214,1.3227,1.3526,1.4157,1.48,0.0,0.0,0.0,0.0,1.9454,2.0556,2.1133,2.1159,2.0286,1.9292,0.0,0.0,0.0,1.6192,1.5939,1.5784,1.5798,1.6086,1.6625,1.7349,1.726,0.0,1.8373,1.8585,1.8992,1.9562,1.9785,2.0246,2.0771,2.0771,2.0719,2.0617,2.0719,2.0771,2.0834,2.1285,2.1687,2.2183,2.3282,2.3861,2.4373,2.541,2.594,2.6487,2.7955,2.8465,2.8925,2.9832,3.0064,2.9949,2.9524,2.9331,2.8904,2.7715,0.0,0.0,0.0,0.0,0.0,0.0,0.0,0.0,0.0,0.0,2.4141,0.0,0.0,0.0,0.0,0.0,0.0,0.0,0.0,3.0723,0.0,3.4844,3.6035,0.0,0.0,3.6855,3.7187,3.7773,3.8223,3.8613,3.9492,3.9941,4.0019,4.0371,4.0566,4.0664,4.1113,4.1289,4.125,4.0976,4.082,4.0703,4.0351,4.0488,4.0898,0.0,0.0,0.0,0.0,0.0,0.0,0.0,1.0767,1.1164,1.1014,1.1978,1.2779,1.2922,1.3482,1.3987,1.4401,1.5361,1.6338,1.7253,1.823,1.9517,2.1018,2.1327,0.0,2.1577,2.0401,1.9292,1.825,0.0,0.0,1.6046,1.5899,1.5784,1.5845,1.6592,1.7125,1.7512,0.0,0.0,1.9274,1.9424,1.9806,2.0331,2.0487,2.0652,2.0925,2.0925,2.0925,2.0925,2.0925,2.0925,2.1071,2.2071,2.2523,2.2967,2.4387,2.4916,2.5197,2.601,2.6565,2.7212,2.8496,2.9163,2.9738,3.0665,3.0898,3.0762,3.0293,3.0195,2.9746,2.8262,2.6602,0.0,0.0,0.0,0.0,0.0,0.0,0.0,0.0,0.0,0.0,0.0,0.0,0.0,0.0,0.0,0.0,0.0,0.0,3.0215,0.0,0.0,0.0,3.666,0.0,3.6777,3.6973,3.7402,3.7715,3.7949,3.8809,3.9336,3.9551,4.0,4.0332,4.0566,4.0996,4.1035,4.082,4.0605,4.0527,4.0469,4.0059,4.0312,4.0859,0.0,0.1555,0.0,0.0,0.7441,0.0,1.1305,1.2271,1.2617,1.2298,1.2454,1.2688,1.2878,1.3844,1.4526,1.4781,1.6055,1.7272,1.8337,1.9062,2.0258,2.1954,2.1832,2.1718,2.1577,2.0521,1.9372,0.0,0.0,0.0,0.0,1.5811,1.5906,1.613,0.0,0.0,0.0,0.0,1.9866,2.0493,2.0431,2.0607,2.0968,2.0956,2.0921,2.0984,2.0984,2.1084,2.1147,2.1354,2.1341,2.1545,2.2881,2.3451,2.3975,2.552,2.5953,2.608,2.6534,2.7179,2.7938,2.8766,2.9546,3.0215,3.0762,3.0898,3.0781,3.043,3.0273,2.9863,2.8769,2.7598,0.0,0.0,0.0,0.0,0.0,0.0,0.0,0.0,0.0,0.0,2.4746,0.0,0.0,0.0,0.0,0.0,2.5341,0.0,0.0,0.0,0.0,3.5391,3.625,0.0,3.668,3.668,3.7012,3.7207,3.7324,3.8086,3.8672,3.9101,3.9551,4.0039,4.0547,4.0898,4.0781,4.0391,4.0391,4.0332,4.0195,3.9863,4.0293,4.0976,0.0,0.0,0.0,0.0,0.0,0.0,1.1451,1.2332,1.2766,1.2861,1.2901,1.329,1.415,1.4364,1.4991,1.6094,1.7507,1.8524,1.9043,2.0738,2.1822,2.2013,2.2497,2.2418,2.1641,2.0922,1.9893,0.0,0.0,0.0,0.0,0.0,0.0,0.0,0.0,0.0,0.0,2.0071,2.0752,2.1777,2.1423,2.1296,2.1317,2.1052,2.1064,2.1349,2.1349,2.1608,2.2023,2.2822,2.2869,2.2703,2.3176,2.4048,2.5219,2.648,2.6881,2.7043,2.791,2.8179,2.8447,2.9303,2.9573,2.9844,3.0703,3.0898,3.0879,3.084,3.0488,3.0039,2.9551,2.8711,2.8008,0.0,0.0,0.0,0.0,0.0,0.0,0.0,0.0,0.0,0.0,2.4075,0.0,0.0,2.4336,0.0,0.0,0.0,0.0,3.0879,3.2676,3.4023,3.4883,3.6074,3.668,3.668,3.6719,3.6934,3.7324,3.7773,3.8223,3.8652,3.9082,3.9746,4.0527,4.0566,4.0332,3.9961,3.9961,3.9707,3.9316,3.9277,3.9824,4.0527,0.0,0.0,0.0,0.0,0.0,0.0,0.0,1.2311,1.2704,1.3497,1.3771,1.404,1.4253,1.5833,1.7074,1.7427,1.905,2.0396,2.1325,2.1728,2.2312,2.3041,2.2971,2.2606,2.183,2.1229,2.0214,0.0,0.0,0.0,0.0,0.0,0.0,0.0,0.0,1.9095,2.022,2.095,2.1544,2.1995,2.1814,2.1751,2.1735,2.1592,2.1624,2.1751,2.1751,2.222,2.2815,2.3188,2.3193,2.3336,2.4774,2.5537,2.6183,2.7397,2.7799,2.7853,2.8194,2.8301,2.8496,2.9355,2.9626,2.9861,3.0684,3.0898,3.0898,3.0898,3.0742,3.0566,3.0391,2.9648,2.9258,0.0,0.0,0.0,0.0,0.0,0.0,0.0,0.0,2.6211,0.0,0.0,0.0,0.0,0.0,0.0,0.0,0.0,0.0,3.0059,0.0,3.5019,3.5117,3.6641,3.7422,3.7422,3.7422,3.75,3.7695,3.8125,3.8555,3.8965,3.9414,3.9961,4.0527,4.0527,4.0273,3.9863,3.959,3.9375,3.9199,3.9199,3.9766,4.0508,0.4478,0.0,0.7112,0.0,1.0638,1.1538,1.2244,1.254,1.2984,1.3793,1.4932,1.5545,1.5423,1.7581,1.8993,1.9019,2.0591,2.1909,2.2633,2.2563,2.2859,2.3647,2.314,0.0,2.2124,2.1537,2.0655,1.9439,1.8621,0.0,0.0,0.0,0.0,0.0,1.991,2.0474,2.0944,2.2055,2.2435,2.2314,2.2218,2.217,2.2154,2.2059,2.2075,2.217,2.217,2.2776,2.3614,2.3883,2.4151,2.4667,2.6053,2.6714,2.7203,2.8043,2.8301,2.8301,2.8301,2.8379,2.8652,2.9394,2.9668,2.9961,3.0723,3.0898,3.0898,3.0898,3.0898,3.0898,3.0898,3.0371,3.0176,3.084,0.0,0.0,0.0,0.0,0.0,0.0,2.7285,2.6445,2.6103,2.4485,0.0,0.0,0.0,0.0,0.0,0.0,0.0,0.0,0.0,0.0,3.5391,3.707,3.793,3.793,3.7793,3.7734,3.7754,3.8184,3.8555,3.8867,3.959,3.998,4.0137,4.0273,4.0078,3.9668,3.9336,3.9199,3.9219,3.9355,3.9883,4.0527,0.6237,0.6837,0.7822,1.1401,1.1809,1.1816,1.2406,1.3061,1.355,1.3645,1.6344,1.8241,1.8174,1.945,2.0483,2.0932,2.225,2.2854,2.2459,2.3268,2.3634,0.0,0.0,2.2726,2.2418,2.1844,2.132,2.0655,0.0,0.0,1.7969,0.0,1.9313,2.0711,2.1927,2.2441,2.2521,2.3436,2.3486,2.2974,2.2625,2.2482,2.245,2.2139,2.2234,2.2482,2.2482,2.3243,2.4428,2.5386,2.6263,2.6896,2.6611,2.7294,2.8281,2.8301,2.8301,2.8301,2.8301,2.8594,2.9023,2.9453,2.9883,3.0312,3.0781,3.0898,3.0898,3.0898,3.0898,3.0898,3.0898,3.0879,3.0586,2.9783,0.0,0.0,0.0,0.0,0.0,0.0,2.7539,2.7012,2.6992,2.543,0.0,0.0,0.0,0.0,0.0,0.0,0.0,3.0801,3.2969,0.0,3.5391,3.707,3.793,3.791,3.75,3.7305,3.7324,3.7734,3.793,3.8008,3.9336,3.9629,3.9258,3.9726,3.9629,3.9199,3.9199,3.9199,3.9258,3.9726,4.0156,4.0527,0.7161,0.8368,0.9473,1.1424,1.1681,1.1748,1.2142,1.2907,1.3642,1.4467,1.7359,1.9529,2.0081,2.1368,2.2217,0.0,2.3366,2.4097,0.0,2.4004,2.3941,2.3647,2.334,2.2939,2.2432,2.2231,2.1657,2.0681,0.0,0.0,0.0,1.9948,2.0888,2.2851,2.3047,2.3568,2.4284,2.487,2.462,2.3871,2.3756,2.3389,2.2831,2.272,2.3125,2.3706,2.3706,2.4786,2.6209,2.65,2.7152,2.7887,2.7752,2.8164,2.8672,2.8379,2.8496,2.8711,2.8711,2.8809,2.9101,2.9824,3.0098,3.0312,3.0781,3.0898,3.0976,3.1269,3.1328,3.1406,3.1719,3.1523,3.1328,3.1348,3.1191,0.0,0.0,0.0,0.0,0.0,2.623,2.5801,2.6064,2.505,0.0,0.0,0.0,0.0,0.0,0.0,0.0,0.0,3.4101,0.0,3.582,3.7519,3.8359,3.8359,3.8223,3.8164,3.8164,3.8008,3.8086,3.8418,3.9453,3.9805,3.9687,3.9824,3.9805,3.9609,3.9004,3.8945,3.9258,3.9726,4.0156,4.0566,0.7533,0.8749,0.9746,1.1398,1.1653,1.1721,1.2013,1.3022,1.4007,1.4822,1.7635,1.9951,2.0876,2.2229,0.0,2.3438,2.4179,2.4596,2.4476,2.4302,2.4022,2.3621,2.342,2.31,2.2592,2.2472,0.0,2.1336,2.1317,2.1413,2.1715,2.2067,2.2986,2.4457,2.4974,2.5374,2.5574,2.6027,2.5661,2.4834,2.4834,2.4501,2.4016,2.4016,2.4334,2.4834,2.4834,2.586,2.7213,2.7213,2.7927,2.8769,2.8769,2.8945,2.9043,2.8457,2.8711,2.9121,2.8965,2.916,2.9531,3.0059,3.0332,3.0527,3.082,3.0898,3.1016,3.1426,3.1523,3.166,3.209,3.1953,3.1797,3.1914,3.1348,3.0723,3.0215,0.0,0.0,0.0,0.0,0.0,0.0,2.6191,2.6172,0.0,0.0,0.0,0.0,0.0,0.0,3.2285,3.5156,0.0,3.6738,3.7949,3.8574,3.8574,3.8418,3.8418,3.8555,3.8125,3.8066,3.8379,3.9258,3.9551,3.9414,3.957,3.9551,3.9336,3.8789,3.873,3.9043,3.9668,4.0059,4.0371,0.7456,0.8285,0.905,0.0,1.1708,0.0,1.2013,1.3475,1.4571,1.4684,1.735,1.9596,2.0725,2.1999,2.3264,2.4414,0.0,0.0,0.0,2.4235,2.3968,2.338,2.3354,2.3207,2.2941,2.2592,2.2445,2.2485,2.2351,2.2457,2.2865,2.449,2.5433,2.5827,2.7404,2.7526,2.6509,2.6938,2.6609,2.5789,2.5789,2.5734,2.5679,2.5679,2.5734,2.5789,2.5824,2.6609,2.7696,2.7734,2.8554,2.9626,2.9626,2.959,2.9453,2.8633,2.8945,2.9492,2.9121,2.959,3.0195,3.0234,3.0566,3.0898,3.0918,3.0937,3.1055,3.1504,3.1601,3.1738,3.2168,3.2226,3.207,3.1601,3.1113,3.0332,2.9023,0.0,0.0,0.0,0.0,0.0,0.0,2.834,2.8516,0.0,0.0,0.0,0.0,0.0,3.1406,3.4726,3.6074,3.7148,3.7969,3.8379,3.8594,3.8613,3.8144,3.8164,3.8594,3.8144,3.7949,3.8027,3.8848,3.8984,3.8652,3.9004,3.8945,3.8613,3.8555,3.8574,3.8711,3.9551,3.9883,4.0059,0.0,0.0,1.1094,1.1536,1.164,1.1721,1.2013,1.3475,1.462,1.4862,1.7436,1.9294,1.9596,2.1538,2.2893,2.3203,2.4105,2.4609,2.4543,2.4529,2.4275,2.3688,2.3661,2.342,2.2941,2.2792,2.2917,2.3223,2.2976,2.374,2.5264,2.5697,2.6651,2.8013,2.8065,2.8146,2.8284,2.8099,2.7476,2.6663,2.6663,2.6282,2.5679,2.5679,2.6118,2.6755,2.705,2.7787,2.8636,2.902,2.9325,2.9626,2.9626,2.9785,2.9941,2.9414,2.9414,2.9609,2.9824,3.0039,3.0293,3.0644,3.082,3.0976,3.1289,3.1367,3.1582,3.2344,3.25,3.2617,3.3047,3.2871,3.2402,3.1641,3.0586,2.9434,2.8198,2.7305,0.0,0.0,2.7012,2.748,2.8652,2.8769,2.8945,0.0,0.0,0.0,0.0,3.2461,3.3984,3.6133,3.7129,3.7891,3.8418,3.8516,3.873,3.9043,3.8281,3.832,3.9023,3.8262,3.8105,3.8457,3.8965,3.9141,3.9043,3.8809,3.8848,3.8984,3.834,3.8476,3.9082,3.9297,3.9805,4.041,0.8732,1.0091,1.1126,1.1496,1.1619,1.1839,1.2441,1.3644,1.4761,1.5345,1.7198,1.8774,1.9898,2.1176,2.2446,2.35,2.4179,2.4636,2.4636,2.4636,2.4382,2.3794,2.3768,2.3487,2.2873,2.2928,2.3188,2.3714,2.4384,2.5367,2.663,2.7645,2.862,2.9356,2.9164,2.92,2.9473,2.9062,2.8594,2.821,2.821,2.7767,2.7178,2.7419,2.7657,2.7927,2.8346,2.8947,2.9531,2.9785,3.0,3.0176,3.0176,3.0176,3.0195,3.0176,3.0176,3.0215,3.0449,3.0508,3.0625,3.1074,3.1328,3.1543,3.1758,3.1816,3.2012,3.2656,3.2793,3.293,3.334,3.3086,3.2519,3.166,3.0254,2.9074,2.8489,2.7255,0.0,2.887,2.898,2.9664,3.1445,3.1377,3.1224,3.1244,3.1682,0.0,3.2363,3.4394,3.5801,3.6348,3.7383,3.8125,3.8574,3.8574,3.8789,3.9199,3.834,3.8281,3.8887,3.8223,3.8047,3.8301,3.873,3.8926,3.8906,3.8672,3.8711,3.8867,3.8398,3.8496,3.8945,3.9141,3.9512,3.9941,0.9674,1.0199,1.0608,1.1424,1.1691,1.2107,1.3014,1.404,1.5026,1.5922,1.7009,1.8481,2.05,2.1026,2.2085,2.4179,2.4488,2.4636,2.4636,2.4636,2.4382,2.3794,2.3768,2.3487,2.2873,2.2996,2.3475,2.436,2.6017,2.7094,2.7862,2.9708,3.0499,3.031,3.0238,3.0195,3.0176,2.9746,2.9626,2.9626,2.9626,2.9355,2.9062,2.9434,2.9336,2.9082,2.9512,2.9902,3.0215,3.0273,3.0566,3.0898,3.0898,3.0625,3.0371,3.0781,3.0937,3.0996,3.0996,3.1035,3.1172,3.1523,3.1894,3.2248,3.2307,3.2305,3.2461,3.2812,3.2988,3.3144,3.3379,3.3086,3.2461,3.1484,2.9805,2.8657,2.8866,0.0,2.785,3.1182,3.1728,3.2694,3.4897,3.4575,3.4085,3.3639,3.4041,3.4171,3.373,3.5937,3.6945,3.6269,3.7434,3.8275,3.8793,3.8793,3.9009,3.9549,3.8616,3.8367,3.8773,3.8197,3.793,3.7949,3.832,3.8516,3.8574,3.8496,3.8516,3.8574,3.8496,3.8516,3.8613,3.8965,3.9141,3.9258,0.9858,1.0796,1.1564,1.1568,1.2187,1.2785,1.3229,1.4555,1.5663,1.6098,1.7759,1.9067,1.9445,2.1325,2.267,2.3042,2.4031,2.4636,2.4636,2.4636,2.4382,2.3794,2.3768,2.3487,2.2873,2.3475,2.4617,2.6218,2.707,2.8603,3.0609,3.0599,3.0804,3.1227,3.0528,3.0195,3.0176,2.9746,2.9626,2.9626,2.9626,2.9587,2.9473,2.9551,2.9531,2.9531,2.9941,3.0137,3.0254,3.0644,3.084,3.0898,3.0898,3.084,3.0801,3.0859,3.1133,3.1426,3.1426,3.168,3.1992,3.2051,3.2129,3.2266,3.2617,3.2969,3.3242,3.332,3.3906,3.4199,3.3535,3.3086,3.2266,3.0664,2.8652,2.7285,2.7329,0.0,2.8793,3.1491,3.3341,3.4795,3.5915,3.5894,3.5703,3.5457,3.5485,3.542,3.5144,3.6152,3.7045,3.7525,3.8149,3.8859,3.9498,3.9498,4.008,4.1088,4.0,3.9438,3.9478,3.8413,3.793,3.793,3.7988,3.8223,3.8555,3.8184,3.8242,3.8535,3.8164,3.8242,3.8574,3.8652,3.8906,3.9219,1.0847,1.1365,1.1855,1.2215,1.2619,1.3333,1.4457,1.5331,1.6319,1.7663,1.8613,1.9671,2.1014,2.2136,2.3042,2.3722,2.4253,2.4636,2.4636,2.4489,2.4209,2.3794,2.3621,2.3536,2.3488,2.3816,2.5022,2.7203,2.8048,2.9535,3.1574,3.1745,3.1838,3.1836,3.1191,3.0781,3.0547,3.0371,3.0273,3.0273,3.0273,3.0137,2.9941,3.0176,3.0117,2.9961,3.041,3.0566,3.0644,3.1074,3.123,3.1269,3.1504,3.1582,3.1582,3.1582,3.1719,3.1875,3.1875,3.2344,3.2793,3.2559,3.2676,3.2949,3.3379,3.3457,3.3496,3.373,3.4082,3.4289,3.3978,3.3565,3.2851,3.1641,2.9595,0.0,0.0,2.9715,3.0765,3.4412,3.5821,3.6916,3.7911,3.7678,3.7548,3.7684,3.7332,3.7121,3.7254,3.8122,3.8726,3.9073,3.9556,4.0002,4.0361,4.0361,4.0627,4.1172,4.0361,3.987,3.9555,3.9,3.8637,3.8386,3.8496,3.8601,3.8779,3.8406,3.8398,3.8555,3.8359,3.8398,3.8574,3.8574,3.8691,3.8867,1.164,1.1852,1.2177,1.2704,1.3256,1.4156,1.5874,1.6443,1.7396,1.9338,1.9898,2.0714,2.2595,2.3042,2.3574,2.4488,2.4636,2.4636,2.4636,2.4302,2.4008,2.3781,2.3561,2.3666,2.3966,2.4563,2.5883,2.8048,2.923,3.0678,3.2256,3.2614,3.2617,3.2285,3.1758,3.1348,3.1035,3.0937,3.0898,3.0898,3.0898,3.0684,3.0391,3.0762,3.0664,3.041,3.0762,3.0898,3.0957,3.1367,3.1523,3.1601,3.2031,3.2229,3.2229,3.2229,3.2368,3.2548,3.2548,3.3099,3.3529,3.3277,3.3434,3.3705,3.3912,3.375,3.3633,3.3867,3.4211,3.4428,3.4398,3.4265,3.3761,3.2671,0.0,0.0,0.0,3.2046,3.3017,3.7071,3.7946,3.87,3.9821,3.9541,3.9473,3.9723,3.9382,3.9208,3.9357,3.9938,4.0319,4.048,4.0776,4.0891,4.1001,4.1105,4.1176,4.1213,4.0821,4.0375,3.9938,3.973,3.9475,3.9137,3.924,3.9323,3.9445,3.9214,3.9011,3.8865,3.8865,3.872,3.8574,3.8574,3.872,3.8865,1.1619,1.2194,1.2768,1.2753,1.4114,1.5604,1.7112,1.8148,1.9191,2.0703,2.1849,2.2595,2.2744,2.3796,2.4488,2.4562,2.4636,2.4636,2.4636,2.4115,2.3794,2.3768,2.3901,2.398,2.4034,2.6285,2.7982,2.9083,3.0807,3.2256,3.3292,3.2926,3.2773,3.2715,3.1894,3.1504,3.1445,3.1055,3.0898,3.0898,3.0898,3.0859,3.084,3.0879,3.0859,3.084,3.0879,3.0898,3.0957,3.1367,3.1523,3.1601,3.2031,3.2229,3.2229,3.2229,3.293,3.3658,3.3658,3.3999,3.436,3.432,3.4278,3.4173,3.3583,3.375,3.3926,3.3535,3.4616,3.5365,3.4584,3.4943,3.4738,3.2791,0.0,0.0,3.2563,3.3576,3.5157,3.759,3.8848,3.9864,4.0804,4.1217,4.1405,4.1284,4.162,4.1524,4.0859,4.0506,4.0599,4.1246,4.1059,4.103,4.1289,4.1714,4.2064,4.2279,4.1973,4.165,4.1204,4.0487,4.0116,4.0096,4.0088,4.0356,4.0749,4.0719,4.0289,3.9642,3.9642,3.9208,3.8574,3.8574,3.8991,3.9642,1.2259,1.261,1.3111,1.403,1.5399,1.6755,1.7988,1.9169,2.0444,2.1963,2.2521,2.3116,2.3796,2.4341,2.4636,2.4636,2.4636,2.4556,2.4382,2.4412,2.4286,2.3914,2.3955,2.4428,2.5307,2.6886,2.8394,2.99,3.1212,3.2403,3.3418,3.3262,3.3047,3.2793,3.2461,3.2168,3.1914,3.1758,3.1523,3.1269,3.1269,3.1133,3.0898,3.0898,3.0898,3.0918,3.1191,3.1269,3.1387,3.207,3.2305,3.2383,3.2812,3.2949,3.3011,3.3446,3.4164,3.4862,3.5292,3.5232,3.5046,3.5046,3.4735,3.4501,3.4724,3.4784,3.4823,3.5182,3.6107,3.665,3.6185,3.6268,3.6141,3.5139,0.0,3.4344,3.5326,3.5919,3.7068,3.9109,4.0018,4.0716,4.1371,4.1852,4.2217,4.251,4.2965,4.3213,4.3228,4.3057,4.2984,4.2986,4.2505,4.2376,4.2462,4.2656,4.2796,4.29,4.2796,4.2483,4.2007,4.1731,4.1422,4.1143,4.0959,4.0835,4.0745,4.1159,4.0987,4.0474,4.0761,4.0718,4.0407,4.0124,4.0218,4.0392,1.261,1.3246,1.4102,1.5301,1.682,1.8237,1.9332,2.0443,2.1676,2.3039,2.3225,2.352,2.4356,2.4422,2.4396,2.4489,2.4723,2.4774,2.4571,2.4818,2.4845,2.432,2.4887,2.5614,2.6568,2.8196,2.9574,3.0761,3.1873,3.2721,3.3418,3.3418,3.3262,3.2988,3.2851,3.2637,3.2363,3.2226,3.1992,3.1719,3.1719,3.1543,3.1289,3.1289,3.1289,3.1328,3.1621,3.1719,3.1836,3.2559,3.2793,3.2933,3.3532,3.3859,3.411,3.461,3.517,3.5788,3.63,3.6218,3.5972,3.5788,3.5459,3.5393,3.5956,3.6017,3.6119,3.6851,3.7418,3.7821,3.7784,3.7953,3.7931,3.7463,3.7117,3.72,3.7975,3.8316,3.9044,4.0585,4.1022,4.1415,4.1874,4.2485,4.3075,4.3578,4.4189,4.4626,4.4801,4.4823,4.4517,4.3954,4.3425,4.3097,4.2944,4.2791,4.2638,4.2507,4.2638,4.2617,4.242,4.242,4.2333,4.218,4.1956,4.1705,4.1422,4.1891,4.183,4.1489,4.1802,4.1783,4.1524,4.1214,4.115,4.1226,1.2681,1.4307,1.5858,1.6564,1.8443,2.025,2.1405,2.2075,2.286,2.405,2.4209,2.4209,2.4195,2.3941,2.3888,2.4182,2.4919,2.541,2.5324,2.5466,2.5388,2.5052,2.6753,2.7734,2.7734,3.0502,3.1873,3.1873,3.2912,3.3418,3.3418,3.3418,3.3418,3.3398,3.2988,3.2793,3.2773,3.2363,3.2229,3.2168,3.2168,3.2168,3.2229,3.2229,3.2229,3.2229,3.2168,3.2168,3.2307,3.2656,3.2793,3.2995,3.4095,3.4859,3.5418,3.5418,3.5849,3.6423,3.6423,3.6889,3.7253,3.6545,3.6763,3.7085,3.6936,3.7286,3.7743,3.8246,3.8456,3.8743,3.9256,3.9888,4.0084,3.9407,4.0277,4.0801,4.0113,4.0601,4.1175,4.1634,4.1699,4.1896,4.2376,4.3294,4.4058,4.4561,4.5478,4.5806,4.5347,4.5325,4.4866,4.3976,4.3425,4.2944,4.242,4.1939,4.1459,4.1022,4.1481,4.1939,4.242,4.242,4.2704,4.3184,4.3184,4.3184,4.3184,4.3184,4.3024,4.272,4.272,4.2289,4.1638,4.1638,4.1779,4.2074,1.4449,1.5646,1.6846,1.8401,1.9866,2.0974,2.1509,2.264,2.353,2.3901,2.4075,2.4128,2.3928,2.3821,2.3888,2.4182,2.4919,2.5741,2.6502,2.7108,2.7451,2.765,2.7684,2.8262,2.9526,3.1083,3.1873,3.1873,3.2912,3.3418,3.3418,3.3418,3.3418,3.3418,3.3281,3.3242,3.3223,3.3105,3.2871,3.2598,3.2598,3.2422,3.2229,3.2229,3.2229,3.2268,3.25,3.2598,3.2737,3.3647,3.3911,3.4075,3.4819,3.5541,3.6116,3.6116,3.6585,3.7071,3.7071,3.7253,3.7374,3.7132,3.7111,3.7232,3.7847,3.8396,3.9012,3.9749,4.0351,4.0734,4.0539,4.065,4.0716,4.0517,4.078,4.1043,4.1169,4.1346,4.1655,4.2136,4.2201,4.2529,4.3359,4.3993,4.4582,4.5063,4.5653,4.5937,4.5806,4.5806,4.5522,4.491,4.408,4.3425,4.2966,4.2114,4.1612,4.1481,4.1612,4.1939,4.242,4.2791,4.3206,4.3665,4.3665,4.3468,4.3206,4.3534,4.366,4.3528,4.3875,4.386,4.3673,4.335,4.3534,4.3954,1.5717,1.7127,1.846,1.9947,2.1138,2.1961,2.2128,2.2972,2.3594,2.3594,2.3754,2.3794,2.3621,2.3594,2.3661,2.3848,2.4846,2.6076,2.747,2.8096,2.871,2.9364,2.9395,2.9835,3.089,3.1937,3.2511,3.2511,3.3102,3.3418,3.3418,3.3418,3.3418,3.3418,3.3418,3.3418,3.3418,3.3418,3.3281,3.3047,3.3047,3.2891,3.2656,3.2656,3.2656,3.2695,3.2949,3.3234,3.3522,3.4198,3.4735,3.5232,3.5665,3.6366,3.7025,3.6832,3.7353,3.792,3.7724,3.7811,3.7964,3.7964,3.8003,3.8292,3.9067,3.9906,4.0767,4.1714,4.2123,4.2311,4.2398,4.2267,4.2201,4.2398,4.242,4.2464,4.2529,4.2726,4.2813,4.2726,4.2879,4.3141,4.3556,4.4014,4.4582,4.526,4.574,4.6002,4.6002,4.6002,4.5784,4.5325,4.4561,4.384,4.3184,4.2376,4.1874,4.1677,4.1306,4.159,4.242,4.2529,4.2966,4.3578,4.3578,4.3425,4.3206,4.3468,4.3687,4.3954,4.4189,4.4453,4.4631,4.4591,4.4727,4.5091,1.6705,1.8729,2.0409,2.1207,2.2242,2.2928,2.2928,2.3126,2.3327,2.3327,2.3327,2.334,2.3367,2.3313,2.3313,2.3464,2.4943,2.6571,2.8201,2.891,2.9547,3.039,3.1488,3.2001,3.2001,3.2912,3.3418,3.3418,3.3418,3.3418,3.3418,3.3418,3.3418,3.3418,3.3418,3.3418,3.3418,3.3418,3.3418,3.3418,3.3418,3.3418,3.3418,3.3418,3.3418,3.3418,3.3481,3.3859,3.4423,3.4548,3.5418,3.6484,3.6484,3.7234,3.8029,3.7571,3.8117,3.8728,3.8292,3.8532,3.8903,3.8903,3.9318,3.9907,4.0257,4.1415,4.2704,4.3665,4.3534,4.3512,4.443,4.4233,4.408,4.4517,4.4539,4.4364,4.3998,4.4211,4.4167,4.3337,4.3599,4.3801,4.3403,4.3774,4.443,4.5303,4.5762,4.6002,4.6002,4.6002,4.5806,4.5391,4.491,4.4211,4.3316,4.2769,4.2223,4.1677,4.0825,4.1109,4.2398,4.2005,4.2333,4.3228,4.3228,4.3298,4.3368,4.3324,4.3657,4.4194,4.415,4.4422,4.4869,4.5347,4.5504,4.5662,1.8938,2.0213,2.1264,2.2379,2.2722,2.2928,2.2928,2.3126,2.3327,2.3327,2.3327,2.342,2.3647,2.3247,2.3525,2.48,2.7342,2.9061,2.9437,3.1117,3.1954,3.157,3.2511,3.3102,3.3102,3.3292,3.3418,3.3418,3.3418,3.3418,3.3418,3.3418,3.3418,3.3418,3.3418,3.3418,3.3418,3.3418,3.3418,3.3418,3.3418,3.3418,3.3418,3.3418,3.3418,3.3481,3.3985,3.4298,3.4548,3.5603,3.6524,3.7193,3.7193,3.7601,3.8095,3.7986,3.8379,3.8753,3.8707,3.9034,3.9447,3.9447,4.0323,4.1153,4.0913,4.1655,4.2704,4.3665,4.3845,4.3883,4.4473,4.4495,4.4473,4.4561,4.4277,4.4064,4.3954,4.3643,4.3534,4.3687,4.3867,4.4124,4.4779,4.526,4.5631,4.5828,4.5937,4.6002,4.6002,4.6002,4.5959,4.5849,4.5412,4.4888,4.4277,4.3447,4.2573,4.1699,4.1481,4.1743,4.242,4.2726,4.3163,4.3779,4.3779,4.4202,4.4975,4.4615,4.521,4.6357,4.5964,4.5868,4.5932,4.5562,4.5733,4.6238,2.0352,2.1402,2.2173,2.2791,2.2928,2.2928,2.2928,2.3006,2.3238,2.3597,2.3653,2.3776,2.4077,2.4762,2.5992,2.8104,2.8962,2.9699,3.0582,3.1969,3.2525,3.191,3.2848,3.3418,3.3418,3.3418,3.3418,3.3418,3.3418,3.3418,3.3418,3.3418,3.3418,3.3418,3.3418,3.3418,3.3418,3.3418,3.3418,3.3418,3.3418,3.3418,3.3418,3.3418,3.3418,3.3481,3.4173,3.4797,3.5479,3.6524,3.7132,3.7418,3.7658,3.8051,3.8444,3.8444,3.8969,3.9471,3.9231,3.9689,4.0236,4.0236,4.1153,4.1918,4.1437,4.2092,4.3053,4.4014,4.4211,4.443,4.5129,4.526,4.526,4.526,4.5041,4.4801,4.4582,4.4539,4.4451,4.4233,4.4408,4.467,4.4932,4.5391,4.5675,4.5675,4.5871,4.6002,4.6002,4.6002,4.6002,4.6002,4.5762,4.5523,4.5372,4.4861,4.4383,4.3894,4.2436,4.207,4.2791,4.2813,4.3353,4.4353,4.4353,4.4956,4.5942,4.5688,4.6074,4.6758,4.6476,4.6343,4.6311,4.6264,4.6408,4.6736,2.1346,2.2242,2.2928,2.2928,2.2928,2.2928,2.2928,2.2996,2.3297,2.3967,2.413,2.4365,2.4858,2.6885,2.9114,3.1213,3.039,3.0293,3.1698,3.2438,3.2636,3.2147,3.2975,3.3418,3.3418,3.3418,3.3418,3.3418,3.3418,3.3418,3.3418,3.3418,3.3418,3.3418,3.3418,3.3418,3.3418,3.3418,3.3418,3.3418,3.3418,3.3418,3.3418,3.3544,3.3544,3.367,3.4485,3.5541,3.6667,3.7193,3.744,3.7571,3.7986,3.8488,3.8969,3.8969,3.958,4.0192,3.9841,4.0388,4.1131,4.1131,4.1852,4.2442,4.2049,4.2573,4.3425,4.4277,4.4539,4.4866,4.5718,4.5959,4.6002,4.6002,4.5937,4.574,4.5369,4.5565,4.55,4.4801,4.515,4.5355,4.5156,4.534,4.5508,4.5728,4.5858,4.6002,4.6002,4.6002,4.5959,4.5893,4.6019,4.6144,4.6068,4.628,4.6358,4.6358,4.3781,4.2833,4.3441,4.3002,4.3505,4.48,4.4983,4.564,4.6693,4.6693,4.676,4.696,4.6703,4.6631,4.6612,4.6944,4.7008,4.6943,2.2448,2.2791,2.2928,2.2928,2.2928,2.2928,2.2928,2.3406,2.3981,2.4316,2.4667,2.5461,2.6939,2.9102,3.0598,3.1046,3.2588,3.3353,3.2807,3.3775,3.4063,3.3204,3.3355,3.3418,3.3418,3.3418,3.3418,3.3418,3.3418,3.3418,3.3418,3.3418,3.3418,3.3418,3.3418,3.3418,3.3418,3.3418,3.3418,3.3418,3.3418,3.3418,3.3481,3.4047,3.4235,3.4423,3.5665,3.6585,3.7253,3.7374,3.7658,3.8029,3.8095,3.8728,3.9513,3.9513,3.9907,4.0257,4.0192,4.0869,4.159,4.159,4.2333,4.3053,4.2988,4.3075,4.3337,4.384,4.4298,4.4757,4.5303,4.574,4.6002,4.6002,4.5675,4.5391,4.5325,4.5019,4.4888,4.5194,4.5631,4.6241,4.7158,4.6441,4.6337,4.7344,4.6529,4.6002,4.6002,4.6002,4.5806,4.5412,4.6268,4.6423,4.5617,4.6496,4.6742,4.6358,4.5949,4.5366,4.4594,4.4527,4.4595,4.4869,4.5775,4.676,4.778,4.778,4.8306,4.9102,4.8067,4.772,4.7558,4.6709,4.6431,4.6426,2.2791,2.2928,2.2928,2.2928,2.2928,2.3065,2.3475,2.383,2.4538,2.608,2.6378,2.7138,2.8862,3.0338,3.1861,3.3605,3.4134,3.4165,3.3955,3.4425,3.4316,3.3457,3.3418,3.3418,3.3418,3.3418,3.3418,3.3418,3.3418,3.3418,3.3418,3.3418,3.3418,3.3418,3.3418,3.3418,3.3418,3.3418,3.3418,3.3418,3.3418,3.3607,3.3985,3.4298,3.461,3.5108,3.6055,3.7022,3.7745,3.7461,3.7876,3.851,3.851,3.8991,3.9666,3.9929,4.0301,4.0672,4.0672,4.1371,4.2092,4.2092,4.2638,4.3184,4.3184,4.3184,4.3381,4.4124,4.443,4.4823,4.5565,4.5871,4.6002,4.6002,4.6323,4.6608,4.6608,4.701,4.7375,4.7603,4.7808,4.8163,4.8647,4.8236,4.7872,4.7704,4.7214,4.6537,4.5631,4.6197,4.6245,4.585,4.6877,4.7353,4.7294,4.777,4.8045,4.8174,4.7581,4.6717,4.5708,4.5708,4.6046,4.6583,4.7117,4.7911,4.8918,4.8918,4.9177,4.9515,4.8711,4.8008,4.738,4.6602,4.6301,4.6301]},{"header":{"parameterUnit":"m.s-1","parameterCategory":1,"la1":30.6,"la2":28.766,"lo1":-90.7593,"lo2":-88.6598,"dy":0.0162,"dx":0.0183,"nx":116,"ny":114,"refTime":"2023-09-28T00:00:00:Z","depth":0,"parameterNumber":3,"parameterNumberName":"V-component_of_WINDS"},"data":[0.0,0.0,0.0,0.0,0.0,0.0,0.0,0.0,0.0,0.0,0.0,0.0,0.0,0.0,0.0,0.0,0.0,0.0,0.0,0.0,0.0,0.0,0.0,0.0,0.0,0.0,0.0,0.0,0.0,0.0,0.0,0.0,0.0,0.0,0.0,0.0,0.0,0.0,0.0,0.0,0.0,0.0,0.0,0.0,0.0,0.0,0.0,0.0,0.0,0.0,0.0,0.0,0.0,0.0,0.0,0.0,0.0,0.0,0.0,0.0,0.0,0.0,0.0,0.0,0.0,0.0,0.0,0.0,0.0,0.0,0.0,0.0,0.0,0.0,0.0,0.0,0.0,0.0,0.0,0.0,0.0,0.0,0.0,0.0,0.0,0.0,0.0,0.0,0.0,0.0,0.0,0.0,0.0,0.0,0.0,0.0,0.0,0.0,0.0,0.0,0.0,0.0,0.0,0.0,0.0,0.0,0.0,0.0,0.0,0.0,0.0,0.0,0.0,0.0,0.0,0.0,0.0,0.0,0.0,0.0,0.0,0.0,0.0,0.0,0.0,0.0,0.0,0.0,0.0,0.0,0.0,0.0,0.0,0.0,0.0,0.0,0.0,0.0,0.0,0.0,0.0,0.0,0.0,0.0,0.0,0.0,0.0,0.0,0.0,0.0,0.0,0.0,0.0,0.0,0.0,0.0,0.0,0.0,0.0,0.0,0.0,0.0,0.0,0.0,0.0,0.0,0.0,0.0,0.0,0.0,0.0,0.0,0.0,0.0,0.0,0.0,0.0,0.0,0.0,0.0,0.0,0.0,0.0,0.0,0.0,0.0,0.0,0.0,0.0,0.0,0.0,0.0,0.0,0.0,0.0,0.0,0.0,0.0,0.0,0.0,0.0,0.0,0.0,0.0,0.0,0.0,0.0,0.0,0.0,0.0,0.0,0.0,0.0,0.0,0.0,0.0,0.0,0.0,0.0,0.0,0.0,0.0,0.0,0.0,0.0,0.0,0.0,0.0,0.0,0.0,0.0,0.0,0.0,0.0,0.0,0.0,0.0,0.0,0.0,0.0,0.0,0.0,0.0,0.0,0.0,0.0,0.0,0.0,0.0,0.0,0.0,0.0,0.0,0.0,0.0,0.0,0.0,0.0,0.0,0.0,0.0,0.0,0.0,0.0,0.0,0.0,0.0,0.0,0.0,0.0,0.0,0.0,0.0,0.0,0.0,0.0,0.0,0.0,0.0,0.0,0.0,0.0,0.0,0.0,0.0,0.0,0.0,0.0,0.0,0.0,0.0,0.0,0.0,0.0,0.0,0.0,0.0,0.0,0.0,0.0,0.0,0.0,0.0,0.0,0.0,0.0,0.0,0.0,0.0,0.0,0.0,0.0,0.0,0.0,0.0,0.0,0.0,0.0,0.0,0.0,0.0,0.0,0.0,0.0,0.0,0.0,0.0,0.0,0.0,0.0,0.0,0.0,0.0,0.0,0.0,0.0,0.0,0.0,0.0,0.0,0.0,0.0,0.0,0.0,0.0,0.0,0.0,0.0,0.0,0.0,0.0,0.0,0.0,0.0,0.0,0.0,0.0,0.0,0.0,0.0,0.0,0.0,0.0,0.0,0.0,0.0,0.0,0.0,0.0,0.0,0.0,0.0,0.0,0.0,0.0,0.0,0.0,0.0,0.0,0.0,0.0,0.0,0.0,0.0,0.0,0.0,0.0,0.0,0.0,0.0,0.0,0.0,0.0,0.0,0.0,0.0,0.0,0.0,0.0,0.0,0.0,0.0,0.0,0.0,0.0,0.0,0.0,0.0,0.0,0.0,0.0,0.0,0.0,0.0,0.0,0.0,0.0,0.0,0.0,0.0,0.0,0.0,0.0,0.0,0.0,0.0,0.0,0.0,0.0,0.0,0.0,0.0,0.0,0.0,0.0,0.0,0.0,0.0,0.0,0.0,0.0,0.0,0.0,0.0,0.0,0.0,0.0,0.0,0.0,0.0,0.0,0.0,0.0,0.0,0.0,0.0,0.0,0.0,0.0,0.0,0.0,0.0,0.0,0.0,0.0,0.0,0.0,0.0,0.0,0.0,0.0,0.0,0.0,0.0,0.0,0.0,0.0,0.0,0.0,0.0,0.0,0.0,0.0,0.0,0.0,0.0,0.0,0.0,0.0,0.0,0.0,0.0,0.0,0.0,0.0,0.0,0.0,0.0,0.0,0.0,0.0,0.0,0.0,0.0,0.0,0.0,0.0,0.0,0.0,0.0,0.0,0.0,0.0,0.0,0.0,0.0,0.0,0.0,0.0,0.0,0.0,0.0,0.0,0.0,0.0,0.0,0.0,0.0,0.0,0.0,0.0,0.0,0.0,0.0,0.0,0.0,0.0,0.0,0.0,0.0,0.0,0.0,0.0,0.0,0.0,0.0,0.0,0.0,0.0,0.0,0.0,0.0,0.0,0.0,0.0,0.0,0.0,0.0,0.0,0.0,0.0,0.0,0.0,0.0,0.0,0.0,0.0,0.0,0.0,0.0,0.0,0.0,0.0,0.0,0.0,0.0,0.0,0.0,0.0,0.0,0.0,0.0,0.0,0.0,0.0,0.0,0.0,0.0,0.0,0.0,0.0,0.0,0.0,0.0,0.0,0.0,0.0,0.0,0.0,0.0,0.0,0.0,0.0,0.0,0.0,0.0,0.0,0.0,0.0,0.0,0.0,0.0,0.0,0.0,0.0,0.0,0.0,0.0,0.0,0.0,0.0,0.0,0.0,0.0,0.0,0.0,0.0,0.0,0.0,0.0,0.0,0.0,0.0,0.0,0.0,0.0,0.0,0.0,0.0,0.0,0.0,0.0,0.0,0.0,0.0,0.0,0.0,0.0,0.0,0.0,0.0,0.0,0.0,0.0,0.0,0.0,0.0,0.0,0.0,0.0,0.0,0.0,0.0,0.0,0.0,0.0,0.0,0.0,0.0,0.0,0.0,0.0,0.0,0.0,0.0,0.0,0.0,0.0,0.0,0.0,0.0,0.0,0.0,0.0,0.0,0.0,0.0,0.0,0.0,0.0,0.0,0.0,0.0,0.0,0.0,0.0,0.0,0.0,0.0,0.0,0.0,0.0,0.0,0.0,0.0,0.0,0.0,0.0,0.0,0.0,0.0,0.0,0.0,0.0,0.0,0.0,0.0,0.0,0.0,0.0,0.0,0.0,0.0,0.0,0.0,0.0,0.0,0.0,0.0,0.0,0.0,0.0,0.0,0.0,0.0,0.0,0.0,0.0,0.0,0.0,0.0,0.0,0.0,0.0,0.0,0.0,0.0,0.0,0.0,0.0,0.0,0.0,0.0,0.0,0.0,0.0,0.0,0.0,0.0,0.0,0.0,0.0,0.0,0.0,0.0,0.0,0.0,0.0,0.0,0.0,0.0,0.0,0.0,0.0,0.0,0.0,0.0,0.0,0.0,0.0,0.0,0.0,0.0,0.0,0.0,0.0,0.0,0.0,0.0,0.0,0.0,0.0,0.0,0.0,0.0,0.0,0.0,0.0,0.0,0.0,0.0,0.0,0.0,0.0,0.0,0.0,0.0,0.0,0.0,0.0,0.0,0.0,0.0,0.0,0.0,0.0,0.0,0.0,0.0,0.0,0.0,0.0,0.0,0.0,0.0,0.0,0.0,0.0,0.0,0.0,0.0,0.0,0.0,0.0,0.0,0.0,0.0,0.0,0.0,0.0,0.0,0.0,0.0,0.0,0.0,0.0,0.0,0.0,0.0,0.0,0.0,0.0,0.0,0.0,0.0,0.0,0.0,0.0,0.0,0.0,0.0,0.0,0.0,0.0,0.0,0.0,0.0,0.0,0.0,0.0,0.0,0.0,0.0,0.0,0.0,0.0,0.0,0.0,0.0,0.0,0.0,0.0,0.0,0.0,0.0,0.0,0.0,0.0,0.0,0.0,0.0,0.0,0.0,0.0,0.0,0.0,0.0,0.0,0.0,0.0,0.0,0.0,0.0,0.0,0.0,0.0,0.0,0.0,0.0,0.0,0.0,0.0,0.0,0.0,0.0,0.0,0.0,0.0,0.0,0.0,0.0,0.0,0.0,0.0,0.0,0.0,0.0,0.0,0.0,0.0,0.0,0.0,0.0,0.0,0.0,0.0,0.0,0.0,0.0,0.0,0.0,0.0,0.0,0.0,0.0,0.0,0.0,0.0,0.0,0.0,0.0,0.0,0.0,0.0,0.0,0.0,0.0,0.0,0.0,0.0,0.0,0.0,0.0,0.0,0.0,0.0,0.0,0.0,0.0,0.0,0.0,0.0,0.0,0.0,0.0,0.0,0.0,0.0,0.0,0.0,0.0,0.0,0.0,0.0,0.0,0.0,0.0,0.0,0.0,0.0,0.0,0.0,0.0,0.0,0.0,0.0,0.0,0.0,0.0,0.0,0.0,0.0,0.0,0.0,0.0,0.0,0.0,0.0,0.0,0.0,0.0,0.0,0.0,0.0,0.0,0.0,0.0,0.0,0.0,0.0,0.0,0.0,0.0,0.0,0.0,0.0,0.0,0.0,0.0,0.0,0.0,0.0,0.0,0.0,0.0,0.0,0.0,0.0,0.0,0.0,0.0,0.0,0.0,0.0,0.0,0.0,0.0,0.0,0.0,0.0,0.0,0.0,0.0,0.0,0.0,0.0,0.0,0.0,0.0,0.0,0.0,0.0,0.0,0.0,0.0,0.0,0.0,0.0,0.0,0.0,0.0,0.0,0.0,0.0,0.0,0.0,0.0,0.0,0.0,0.0,0.0,0.0,0.0,0.0,0.0,0.0,0.0,0.0,0.0,0.0,0.0,0.0,0.0,0.0,0.0,0.0,0.0,0.0,0.0,0.0,0.0,0.0,0.0,0.0,0.0,0.0,0.0,0.0,0.0,0.0,0.0,0.0,0.0,0.0,0.0,0.0,0.0,0.0,0.0,0.0,0.0,0.0,0.0,0.0,0.0,0.0,0.0,0.0,0.0,0.0,0.0,0.0,0.0,0.0,0.0,0.0,0.0,0.0,0.0,0.0,0.0,0.0,0.0,0.0,0.0,0.0,0.0,0.0,0.0,0.0,0.0,0.0,0.0,0.0,0.0,0.0,0.0,0.0,0.0,0.0,0.0,0.0,0.0,0.0,0.0,0.0,0.0,0.0,0.0,0.0,0.0,0.0,0.0,0.0,0.0,0.0,0.0,0.0,0.0,0.0,0.0,0.0,0.0,0.0,0.0,0.0,0.0,0.0,0.0,0.0,0.0,0.0,0.0,0.0,0.0,0.0,0.0,0.0,0.0,0.0,0.0,0.0,0.0,0.0,0.0,0.0,0.0,0.0,0.0,0.0,0.0,0.0,0.0,0.0,0.0,0.0,0.0,0.0,0.0,0.0,0.0,0.0,0.0,0.0,0.0,0.0,0.0,0.0,0.0,0.0,0.0,0.0,0.0,0.0,0.0,0.0,0.0,0.0,0.0,0.0,0.0,0.0,0.0,0.0,0.0,0.0,0.0,0.0,0.0,0.0,0.0,0.0,0.0,0.0,0.0,0.0,0.0,0.0,0.0,0.0,0.0,0.0,0.0,0.0,0.0,0.0,0.0,0.0,0.0,0.0,0.0,0.0,0.0,0.0,0.0,0.0,0.0,0.0,0.0,0.0,0.0,0.0,0.0,0.0,0.0,0.0,0.0,0.0,0.0,0.0,0.0,0.0,0.0,0.0,0.0,0.0,0.0,0.0,0.0,0.0,0.0,0.0,0.0,0.0,0.0,0.0,0.0,0.0,0.0,0.0,0.0,0.0,0.0,0.0,0.0,0.0,0.0,0.0,0.0,0.0,0.0,0.0,0.0,0.0,0.0,0.0,0.0,0.0,0.0,0.0,0.0,0.0,0.0,0.0,0.0,0.0,0.0,0.0,0.0,0.0,0.0,0.0,0.0,0.0,0.0,0.0,0.0,0.0,0.0,0.0,0.0,0.0,0.0,0.0,0.0,0.0,0.0,0.0,0.0,0.0,0.0,0.0,0.0,0.0,0.0,0.0,0.0,0.0,0.0,0.0,0.0,0.0,0.0,0.0,0.0,0.0,0.0,0.0,0.0,0.0,4.5963,0.0,0.0,0.0,0.0,0.0,0.0,0.0,0.0,0.0,0.0,0.0,0.0,0.0,0.0,0.0,0.0,0.0,0.0,0.0,0.0,0.0,0.0,0.0,0.0,0.0,0.0,0.0,0.0,0.0,0.0,0.0,0.0,0.0,0.0,0.0,0.0,0.0,0.0,3.446,3.4228,3.4525,3.5424,3.6896,3.6588,3.4835,0.0,0.0,0.0,0.0,0.0,0.0,0.0,0.0,0.0,0.0,0.0,0.0,0.0,0.0,0.0,0.0,0.0,0.0,0.0,0.0,0.0,0.0,0.0,0.0,0.0,0.0,0.0,0.0,0.0,0.0,0.0,0.0,0.0,0.0,0.0,0.0,0.0,0.0,0.0,0.0,0.0,0.0,0.0,0.0,0.0,0.0,0.0,0.0,0.0,0.0,0.0,0.0,0.0,0.0,0.0,0.0,0.0,0.0,0.0,0.0,0.0,0.0,0.0,0.0,0.0,0.0,0.0,0.0,0.0,0.0,0.0,4.9136,0.0,0.0,0.0,0.0,0.0,0.0,0.0,0.0,0.0,0.0,0.0,0.0,0.0,0.0,0.0,0.0,0.0,0.0,0.0,0.0,0.0,0.0,0.0,0.0,3.4411,3.5838,3.5614,3.5517,0.0,0.0,0.0,0.0,0.0,0.0,3.3592,3.3004,3.4151,3.7149,3.6688,3.7685,4.0042,4.2077,4.092,3.7116,3.657,0.0,0.0,0.0,0.0,0.0,0.0,0.0,0.0,0.0,0.0,0.0,0.0,0.0,0.0,0.0,0.0,0.0,0.0,0.0,0.0,0.0,0.0,0.0,0.0,0.0,0.0,0.0,0.0,0.0,0.0,0.0,0.0,0.0,0.0,0.0,0.0,0.0,0.0,0.0,0.0,0.0,0.0,0.0,0.0,0.0,0.0,0.0,0.0,0.0,0.0,0.0,0.0,0.0,0.0,0.0,0.0,0.0,0.0,0.0,0.0,0.0,0.0,0.0,6.2746,6.4064,6.5029,6.5613,6.5778,6.5379,6.121,5.7279,5.3745,5.2284,0.0,0.0,0.0,0.0,0.0,0.0,0.0,0.0,0.0,0.0,0.0,0.0,0.0,0.0,0.0,0.0,0.0,0.0,0.0,0.0,0.0,3.4638,3.6354,3.8117,3.8649,3.845,0.0,0.0,0.0,0.0,0.0,0.0,3.4336,3.4235,3.5646,3.8538,4.1288,4.3512,4.5231,4.6214,4.6003,4.4587,4.0925,3.9774,4.0316,0.0,0.0,0.0,0.0,0.0,0.0,0.0,0.0,0.0,0.0,0.0,0.0,0.0,0.0,0.0,0.0,0.0,0.0,0.0,0.0,0.0,0.0,0.0,0.0,0.0,0.0,0.0,0.0,0.0,0.0,0.0,0.0,0.0,0.0,0.0,0.0,0.0,0.0,0.0,0.0,0.0,4.2019,4.2213,0.0,0.0,0.0,0.0,0.0,0.0,0.0,0.0,0.0,0.0,0.0,0.0,0.0,5.9822,6.2655,6.5153,6.6567,6.7036,7.2177,7.403,7.3047,7.5135,7.6063,7.5914,7.3819,0.0,5.9403,5.5626,0.0,0.0,0.0,0.0,0.0,0.0,0.0,0.0,0.0,0.0,0.0,0.0,0.0,0.0,0.0,0.0,0.0,0.0,0.0,0.0,0.0,3.7685,4.0391,4.2568,4.4329,4.4473,4.239,4.1455,0.0,0.0,0.0,3.5634,3.578,3.6344,3.8677,4.2788,4.6894,4.899,4.9235,5.0717,5.0709,4.9436,4.7592,4.5305,4.267,3.9965,0.0,0.0,0.0,0.0,0.0,0.0,0.0,0.0,0.0,0.0,0.0,0.0,0.0,0.0,0.0,0.0,0.0,0.0,0.0,0.0,0.0,0.0,0.0,0.0,0.0,0.0,0.0,0.0,0.0,0.0,0.0,0.0,0.0,0.0,0.0,0.0,0.0,0.0,0.0,4.1106,4.395,4.1614,4.4424,4.5193,0.0,0.0,0.0,0.0,0.0,0.0,0.0,0.0,0.0,6.3813,6.6157,6.8655,7.1337,7.3822,7.5332,7.595,7.9084,8.0443,8.0234,8.1841,8.2228,8.1663,8.104,7.7239,7.0962,6.4232,5.9583,5.6472,0.0,0.0,0.0,0.0,5.4087,5.4664,0.0,0.0,0.0,0.0,0.0,0.0,0.0,0.0,0.0,0.0,0.0,0.0,3.7399,4.1198,4.4654,4.7374,4.925,4.9377,4.7151,4.5003,4.2271,3.8818,3.7603,3.7106,3.7337,3.9158,4.2601,4.7668,5.1744,5.3508,5.3197,5.4993,5.4927,5.3279,5.3195,5.0629,4.6187,4.3399,4.1299,3.966,0.0,0.0,0.0,0.0,0.0,0.0,0.0,0.0,0.0,0.0,0.0,0.0,0.0,0.0,0.0,0.0,0.0,0.0,0.0,0.0,0.0,0.0,0.0,0.0,0.0,0.0,0.0,0.0,0.0,0.0,0.0,0.0,0.0,0.0,0.0,0.0,0.0,4.3423,4.6459,4.2415,4.7605,4.9648,0.0,0.0,0.0,0.0,0.0,0.0,6.0477,6.3526,6.7463,7.2608,7.4916,7.7218,7.9572,8.1371,8.2715,8.3612,8.4652,8.5339,8.5675,8.6642,8.6449,8.5291,8.5219,8.3516,8.0115,7.1963,6.6139,6.2166,5.9588,5.8473,5.8434,5.9511,6.005,6.0589,0.0,0.0,0.0,0.0,0.0,0.0,0.0,0.0,0.0,0.0,0.0,3.7206,4.1848,4.5102,4.8404,5.194,5.1919,5.1206,5.0065,4.6374,4.3445,4.1665,3.9666,3.8665,3.8894,4.2952,4.7512,5.2559,5.4832,5.6534,5.7702,5.8865,5.8368,5.6453,5.6126,5.5013,5.3135,4.9132,4.7113,4.6158,4.107,0.0,0.0,0.0,0.0,0.0,0.0,0.0,0.0,0.0,0.0,0.0,0.0,0.0,0.0,0.0,0.0,0.0,0.0,0.0,0.0,0.0,0.0,0.0,0.0,0.0,0.0,0.0,0.0,0.0,0.0,0.0,0.0,0.0,0.0,0.0,0.0,0.0,0.0,4.8482,5.4346,0.0,0.0,0.0,0.0,5.8153,6.0801,6.4157,6.8489,7.2708,7.6543,7.9944,8.2145,8.4425,8.6839,8.6641,8.6987,8.7981,8.8864,8.9012,8.8517,8.9363,8.8808,8.7192,8.6401,8.5055,8.2862,7.6,7.2038,6.986,6.4897,6.3974,6.5282,6.4551,6.482,6.5551,0.0,0.0,0.0,0.0,0.0,0.0,0.0,0.0,3.2067,3.3045,3.7357,4.1413,4.4193,4.9581,5.3998,5.6525,5.7475,5.7133,5.5157,5.0892,4.7684,4.6065,4.3444,4.2931,4.4882,4.6748,4.9735,5.3896,5.6176,5.768,5.8358,5.9564,5.9505,5.8288,5.7629,5.7334,5.7005,5.2156,4.9252,4.759,4.4126,4.2058,0.0,0.0,0.0,0.0,0.0,0.0,0.0,0.0,0.0,0.0,0.0,0.0,0.0,0.0,0.0,0.0,0.0,0.0,0.0,0.0,0.0,0.0,0.0,0.0,0.0,0.0,0.0,0.0,0.0,0.0,0.0,0.0,0.0,0.0,0.0,0.0,0.0,5.5274,6.0936,0.0,5.879,5.9683,6.1981,6.5406,6.8546,7.2431,7.7268,8.0586,8.3792,8.7055,8.7638,8.8533,8.9806,8.9014,8.8788,8.9151,8.9588,8.9409,8.8709,8.9517,8.8979,8.7363,8.7055,8.5978,8.4247,8.1823,7.8554,7.4745,7.1783,7.0706,7.0821,7.1014,7.1668,7.2399,0.0,0.0,0.0,0.0,0.0,0.0,0.0,0.0,3.349,3.493,4.0072,4.4823,4.7985,5.3758,5.84,6.0788,6.1095,6.0353,5.8488,5.3276,4.9577,4.8096,4.5433,4.5414,4.8504,4.9321,5.155,5.5305,5.7408,5.8516,5.8762,6.0152,6.0236,5.9184,5.8951,5.9098,5.9368,5.562,5.2462,4.9738,4.7003,4.5112,4.3571,0.0,0.0,0.0,0.0,0.0,0.0,0.0,0.0,0.0,0.0,0.0,0.0,0.0,0.0,0.0,0.0,0.0,0.0,0.0,0.0,0.0,0.0,0.0,0.0,0.0,0.0,0.0,0.0,0.0,0.0,0.0,0.0,0.0,0.0,0.0,6.0266,6.0234,6.6437,6.9455,6.6252,6.7497,6.9795,7.2942,7.6118,7.9723,8.4017,8.6442,8.8849,9.1253,9.1024,9.101,9.14,9.062,9.0198,9.0146,8.9986,8.9633,8.9094,8.9363,8.8748,8.7401,8.7401,8.6594,8.5286,8.5016,8.2901,7.9669,7.7938,7.713,7.6938,7.7169,7.7476,7.7669,0.0,0.0,0.0,0.0,0.0,0.0,0.0,3.2416,3.477,3.7382,4.202,4.7316,5.3289,5.7531,6.1282,6.4638,6.2293,6.0342,5.9724,5.3183,4.8774,4.7585,4.5533,4.6004,4.9404,5.062,5.3178,5.7137,5.8552,5.9221,5.9281,6.086,6.0786,5.9294,6.0052,6.0419,6.0382,5.9588,5.6946,5.3093,4.9811,4.7957,4.6856,0.0,0.0,0.0,0.0,0.0,0.0,0.0,0.0,0.0,0.0,0.0,0.0,0.0,0.0,0.0,0.0,0.0,0.0,0.0,0.0,0.0,0.0,0.0,0.0,0.0,0.0,0.0,0.0,0.0,0.0,0.0,0.0,0.0,5.0382,5.9091,6.5039,6.3471,7.0826,7.5042,7.2535,7.5308,7.8335,8.0896,8.3468,8.6001,8.8495,9.0209,9.1534,9.2391,9.2187,9.1982,9.181,9.1585,9.1384,9.1171,9.0325,8.9902,8.9863,8.9017,8.8209,8.7401,8.7363,8.6863,8.6055,8.5247,8.4939,8.4747,8.2978,8.2824,8.3478,8.2631,8.1823,8.1054,0.0,0.0,0.0,0.0,0.0,0.0,0.0,3.2798,3.5021,3.8433,4.4487,5.0197,5.4503,5.9521,6.3449,6.5644,6.2838,6.0513,5.94,5.3264,4.925,4.8321,4.9104,5.0805,5.338,5.3759,5.5332,5.8243,5.949,6.0184,6.037,6.1213,6.1374,6.0933,6.0566,6.0713,6.1227,6.0419,5.9098,5.7276,5.4032,5.1536,4.9627,0.0,0.0,0.0,0.0,0.0,0.0,0.0,0.0,0.0,0.0,0.0,0.0,0.0,0.0,0.0,0.0,0.0,0.0,0.0,0.0,0.0,0.0,0.0,0.0,0.0,0.0,0.0,0.0,0.0,0.0,0.0,5.5338,6.043,6.0195,6.5927,7.1095,7.3719,7.784,8.0622,8.1115,8.259,8.4572,8.7131,8.8573,8.9936,9.1261,9.1768,9.2158,9.2391,9.2044,9.1859,9.181,9.1462,9.0933,9.0248,9.0017,8.9594,8.8979,8.8132,8.7632,8.7363,8.6748,8.6324,8.6094,8.5863,8.5786,8.5555,8.3208,8.2824,8.3478,8.2631,8.2554,8.2785,0.0,0.0,0.0,0.0,0.0,0.0,0.0,3.3466,3.6087,3.994,4.6119,5.1661,5.5668,6.0055,6.3193,6.4512,6.1494,5.88,5.7155,5.2133,4.9126,4.8986,5.099,5.3118,5.5212,5.6102,5.7475,5.9326,6.0241,6.0563,6.0336,6.1319,6.1507,6.1117,6.13,6.1667,6.2071,6.1715,6.1137,6.0241,5.8554,5.6129,5.3244,5.1543,5.036,4.9511,4.9228,4.9081,4.8793,4.687,0.0,0.0,0.0,0.0,0.0,0.0,0.0,0.0,0.0,0.0,0.0,0.0,0.0,0.0,0.0,0.0,0.0,0.0,0.0,0.0,0.0,0.0,0.0,0.0,6.0937,6.709,6.9676,7.2665,7.6037,7.9973,8.2424,8.4323,8.5618,8.6858,8.8066,8.9157,9.0404,9.1339,9.1846,9.2197,9.2391,9.2391,9.2103,9.1894,9.181,9.1469,9.0851,8.9902,8.9902,8.9286,8.8132,8.7632,8.7209,8.6824,8.6324,8.6094,8.6094,8.6094,8.6094,0.0,0.0,0.0,0.0,0.0,8.3708,8.4016,0.0,0.0,0.0,0.0,0.0,0.0,0.0,3.4137,3.7187,4.1597,4.6807,5.1788,5.6364,5.9305,6.1344,6.2219,5.919,5.6252,5.3993,5.0595,4.9042,4.9883,5.2038,5.4091,5.5856,5.7823,5.9384,6.0369,6.1034,6.0951,6.013,6.1505,6.1661,6.0822,6.2255,6.288,6.2904,6.3123,6.2859,6.2248,6.2645,6.0659,5.7196,5.4578,5.4063,5.4564,5.3615,5.2818,5.2026,5.0392,0.0,0.0,0.0,0.0,0.0,0.0,0.0,0.0,0.0,0.0,0.0,0.0,0.0,0.0,0.0,0.0,0.0,0.0,0.0,0.0,0.0,0.0,0.0,0.0,6.6034,7.2158,7.7913,7.891,8.0207,8.3435,8.526,8.6624,8.7559,8.904,8.9664,8.9001,9.0365,9.1261,9.1261,0.0,0.0,0.0,0.0,9.2055,9.1773,9.1673,9.1059,8.9902,8.9902,8.9133,8.7671,8.7478,8.7017,8.6363,8.6209,8.6094,8.6094,8.6094,8.6094,8.6094,8.6094,8.6055,8.5901,8.5286,8.5093,8.5055,0.0,0.0,0.0,0.0,0.0,0.0,0.0,3.3261,3.6015,4.1906,4.5446,4.9461,5.4739,5.7137,5.9102,6.1031,5.8459,5.5485,5.2613,5.1101,5.0983,5.2445,5.4371,5.6095,5.76,5.9098,6.0444,6.1485,6.2572,6.3111,6.3062,6.3215,6.3154,6.2983,6.3294,6.3442,6.3442,6.3511,6.3543,6.3584,6.3014,6.1554,5.9663,5.9268,5.8568,5.7665,5.6906,5.7097,5.7149,5.364,5.3356,5.3741,4.951,4.7471,0.0,0.0,0.0,0.0,0.0,0.0,0.0,0.0,0.0,0.0,0.0,0.0,0.0,0.0,0.0,0.0,0.0,0.0,0.0,6.3669,7.1185,7.7651,8.0902,8.2584,8.4221,8.6235,8.7365,8.8612,9.0209,9.0638,9.1066,9.1612,9.1963,9.2158,9.2158,9.2135,9.2151,9.2151,9.2508,9.232,9.1581,9.2084,9.1493,8.9902,0.0,0.0,8.9363,8.8017,8.7671,8.8132,8.6709,8.6094,8.6094,8.6094,8.6094,8.6094,8.6094,8.5709,8.5209,8.5709,8.6324,8.6786,0.0,0.0,0.0,0.0,0.0,0.0,0.0,3.3239,3.5632,4.0828,4.4256,4.7573,5.1245,5.3233,5.4483,5.4959,5.3374,5.2156,5.1733,5.2419,5.348,5.4876,5.696,5.8511,5.947,6.0491,6.1671,6.3045,6.3235,6.3318,6.3301,6.319,6.3118,6.303,6.3578,6.3792,6.3814,6.405,6.4233,6.4332,6.4211,6.3634,6.2834,6.1956,6.1286,6.0704,6.0059,5.9907,5.9559,5.6709,5.6011,5.5742,5.2356,5.0433,4.9154,0.0,0.0,0.0,0.0,0.0,0.0,0.0,0.0,0.0,0.0,0.0,0.0,0.0,0.0,5.3808,5.6018,0.0,6.5927,6.9353,7.5347,8.0502,8.3046,8.4871,8.6429,8.7715,8.8222,8.9001,9.0326,9.1261,9.1768,9.1768,9.2059,9.226,9.226,9.2073,9.195,9.195,9.2081,9.1947,9.1522,9.1732,9.121,8.9902,9.0364,9.0094,8.9286,8.844,8.8055,8.7979,8.6671,8.6094,8.6094,8.6094,8.6094,8.6094,8.6094,8.5863,8.5555,8.594,8.6632,8.7286,0.0,0.0,0.0,0.0,0.0,0.0,0.0,3.3374,3.5416,3.9522,4.2618,4.5208,4.7189,4.866,4.9233,4.8541,4.8755,4.9741,5.165,5.4099,5.6085,5.7379,5.9512,6.0928,6.1465,6.2124,6.3088,6.4444,6.3804,6.3444,6.3418,6.3398,6.3392,6.3472,6.4302,6.4702,6.4685,6.4913,6.5031,6.5099,6.5375,6.5446,6.5168,6.36,6.3131,6.3192,6.2194,6.0973,5.9627,5.8434,5.7126,5.5703,5.3972,5.2741,5.1423,4.9048,4.8179,0.0,0.0,0.0,0.0,0.0,0.0,0.0,0.0,5.0309,5.1892,5.5996,5.8246,6.0412,6.3437,6.7496,7.1467,7.4725,7.871,8.2216,8.4629,8.6241,8.7598,8.8612,8.8884,8.9352,9.0209,9.1573,9.2104,9.1342,9.1944,9.2326,9.2296,9.2247,9.2174,9.2019,9.2108,9.1948,9.1446,9.1583,9.1171,9.0171,9.0864,9.0479,8.9171,8.9017,8.844,8.7594,8.6555,8.6094,8.6094,8.6094,8.6094,8.6094,8.6094,8.6094,8.6132,8.6286,8.6901,8.7517,0.0,0.0,0.0,0.0,0.0,0.0,0.0,0.0,3.4616,3.8929,3.9843,4.1081,4.3589,4.406,4.4699,4.6061,4.977,5.2323,5.3028,5.5933,5.8361,5.9905,6.1691,6.2968,6.354,6.4329,6.4828,6.5019,6.4926,6.523,6.5897,6.5897,6.6315,6.702,6.7131,6.7207,6.7148,6.6421,6.6281,6.6406,6.5747,6.52,6.4667,6.4462,6.4385,6.4141,6.1781,5.8934,5.6357,5.6945,5.5049,5.2692,5.3972,5.3241,5.1538,4.9779,4.8211,4.7018,4.6817,4.7589,4.8964,5.1166,5.176,5.3165,0.0,5.9224,5.9583,6.2435,6.4506,6.6154,6.7382,7.109,7.4792,7.7524,8.0875,8.3747,8.5614,8.6623,8.7793,8.9469,9.0326,9.1144,9.2041,9.2274,9.2308,9.2025,9.2735,9.313,9.301,9.346,9.3407,9.2711,9.394,9.3533,9.1245,9.269,9.2633,9.1056,9.1171,9.1095,9.0902,9.0133,8.9325,8.844,8.6824,8.6094,8.6094,8.6094,8.6094,8.6094,8.6094,8.6094,8.6209,8.6978,8.7825,8.844,0.0,0.0,0.0,0.0,0.0,0.0,0.0,0.0,0.0,3.8103,3.8572,3.9203,4.0788,4.08,4.1377,4.3042,4.7061,5.0494,5.2831,5.7481,6.0559,6.1411,6.3857,6.5097,6.484,6.5503,6.5841,6.5803,6.6319,6.6472,6.6319,6.6814,6.7233,6.7631,6.7779,6.7843,6.7805,6.7614,6.7295,6.6894,6.6587,6.5705,6.4474,6.3512,6.2204,6.0781,5.9742,5.778,0.0,5.5622,5.4639,5.3636,5.489,5.3754,5.1654,5.051,4.9325,4.878,5.0356,5.1045,5.1966,5.4619,5.6008,5.7676,6.122,6.2597,6.4038,6.7191,6.9704,7.1755,7.3164,7.6093,7.8941,8.1044,8.3393,8.5578,8.7268,8.7331,8.7481,8.8183,8.9079,9.0326,9.2235,9.2285,9.2372,9.2774,9.293,9.318,9.3601,9.3747,9.3461,9.2652,9.3666,9.3518,9.1979,9.3133,9.3364,9.2633,9.2633,9.2402,9.1941,9.1056,8.9671,8.7902,8.7171,8.6555,8.6094,8.6094,8.6094,8.6094,8.6094,8.6401,8.6901,8.7286,8.794,8.8632,0.0,0.0,0.0,0.0,0.0,0.0,0.0,0.0,0.0,0.0,3.7224,3.7591,3.8201,3.8238,3.8869,4.0433,4.4413,4.8342,5.184,5.7529,6.1322,6.2491,6.5372,6.6853,6.6699,6.7125,6.727,6.7232,6.7636,6.7598,6.727,6.7865,6.8285,6.8531,6.8701,6.8814,6.879,6.8754,6.8244,6.7398,6.6974,6.5628,6.3743,6.2012,5.9511,5.6934,5.7165,5.5549,5.329,5.3485,5.2887,5.2338,5.3947,5.3147,5.1395,5.0587,4.9758,4.9663,5.2144,5.3359,5.4699,5.8025,6.0356,6.2413,6.4623,6.6317,6.8312,7.1412,7.3584,7.5467,7.7226,7.9258,8.1288,8.3192,8.4966,8.6609,8.8048,8.7643,8.7209,8.7209,8.7365,8.8442,9.0984,9.1555,9.2034,9.2754,9.3023,9.3346,9.3885,9.424,9.4057,9.321,9.398,9.3903,9.2826,9.3403,9.3595,9.3364,9.3133,9.271,9.2095,9.1248,8.9825,8.8055,8.7594,8.7055,8.644,8.6209,8.6094,8.6094,8.6094,8.6632,8.744,8.7671,8.8286,8.9017,0.0,0.0,0.0,0.0,0.0,0.0,0.0,0.0,0.0,0.0,0.0,0.0,0.0,3.6331,3.7317,3.8661,4.2975,4.6935,4.9992,5.5385,5.9966,6.3334,6.5936,6.8046,6.9628,6.9605,6.9602,6.9602,6.8794,6.8794,6.9602,6.9615,7.0025,7.0808,7.0808,7.0808,7.0769,6.9975,6.9167,6.8244,6.659,6.4436,6.1985,6.0242,5.7011,5.3472,5.4318,5.1395,4.7548,4.9981,4.8596,4.6441,4.9788,5.0789,5.0558,4.9702,4.8817,4.8537,5.0405,5.2816,5.6091,6.1151,6.4471,6.7364,7.067,7.2165,7.3403,7.5243,7.5718,7.6313,7.8124,7.914,8.0546,8.3075,8.4966,8.6375,8.7229,8.7253,8.7209,8.7209,8.5806,8.5726,0.0,8.9858,9.1035,9.1543,9.3029,9.3885,9.3708,9.5288,9.5826,9.4941,9.5788,9.5403,9.3672,9.3672,9.3287,9.2518,9.1672,9.1248,9.121,9.0364,8.9902,8.9748,8.8094,8.7363,8.7286,8.644,8.6094,8.6094,8.6094,8.6632,8.7517,8.8363,8.9171,8.9829,0.0,0.0,0.0,0.0,0.0,0.0,0.0,0.0,0.0,0.0,0.0,0.0,0.0,0.0,0.0,0.0,4.2109,4.5355,4.8673,5.4863,5.8964,6.0191,6.5361,6.7978,6.7437,6.8432,6.8679,6.8101,6.8283,6.8552,6.8859,6.8859,6.959,7.0898,7.036,7.0398,7.086,7.0052,6.9206,6.8205,6.5936,6.3869,6.1808,5.8314,5.5091,5.228,0.0,4.8866,4.7057,4.7936,4.7463,4.6846,4.86,4.8771,4.83,4.8586,4.9274,5.0748,5.434,5.7663,6.1252,6.5889,6.8592,7.0692,7.2964,7.379,7.4181,7.4818,7.3584,7.2772,7.3984,7.5351,7.6952,7.8935,8.2623,8.5711,8.7112,8.7253,8.678,8.565,8.593,0.0,0.0,0.0,0.0,9.1528,9.2601,9.3871,9.555,9.6032,9.6172,9.5865,9.6134,9.5749,9.4557,9.4557,9.4711,9.5018,9.3557,9.2595,9.2018,9.1171,9.0441,8.9863,8.8748,8.794,8.7325,8.6478,8.6094,8.617,8.6748,8.7478,8.8363,8.921,8.9929,9.055,0.0,0.0,0.0,0.0,0.0,0.0,0.0,0.0,0.0,0.0,0.0,0.0,0.0,0.0,0.0,0.0,0.0,4.2787,4.6244,5.1704,5.5353,5.6691,6.1776,6.4201,6.3428,6.4393,6.4787,6.4517,6.5589,6.6474,6.7051,6.7359,6.8398,6.9975,6.9129,6.9244,6.9975,6.9168,6.7783,6.5974,6.3753,6.1285,5.861,5.5196,5.2608,0.0,4.8522,4.7277,4.6552,4.6602,4.6623,4.6717,4.7301,4.7323,4.7371,4.8869,5.0724,5.3425,5.8494,6.2212,6.5709,7.0033,7.2207,7.3554,7.4666,7.4696,7.4365,7.374,7.1326,6.9492,7.0078,7.0312,7.1327,7.3934,7.7669,8.1467,8.4961,8.5666,8.5903,8.604,8.6319,8.6253,0.0,0.0,0.0,9.0903,9.2402,9.3856,9.5473,9.6032,9.6288,9.6288,9.6288,9.6019,9.548,9.5172,9.5095,9.5365,9.3941,9.2979,9.2479,9.1595,9.0902,9.0325,8.9479,8.8632,8.7825,8.7248,8.6863,8.6632,8.7517,8.8363,8.9171,8.971,9.0261,9.0759,0.0,0.0,0.0,0.0,0.0,0.0,0.0,0.0,0.0,0.0,0.0,0.0,0.0,0.0,0.0,0.0,0.0,0.0,4.2796,4.6259,4.9628,5.2949,5.5634,5.7448,5.8192,5.8203,5.8561,5.9331,6.0985,6.2589,6.4243,6.5013,6.6282,6.7859,6.6974,6.7051,6.7821,6.7099,6.4852,6.1689,6.004,5.6906,5.3031,5.128,4.9641,4.8178,4.7301,4.6513,4.5927,4.5884,4.6,4.6126,4.6204,4.6822,4.8072,5.0707,5.3329,5.6654,6.2586,6.6271,6.9379,7.3442,7.5173,7.5898,7.5804,7.5073,7.3906,7.2148,6.8984,6.6484,6.6406,6.4531,6.4373,6.8657,7.1112,7.4843,8.1441,8.3181,8.4958,8.8105,8.7011,8.6544,8.7844,0.0,0.0,8.9821,0.0,9.3885,9.3785,9.5365,9.6326,9.6365,9.6326,9.6288,9.6288,9.548,9.4595,9.3672,9.2941,9.2556,9.2479,9.1595,9.121,9.1171,9.0287,8.9479,8.8748,8.8709,8.8209,8.7555,8.8402,8.9248,8.9885,8.9923,9.0186,9.0478,0.0,0.0,0.0,0.0,0.0,0.0,0.0,0.0,0.0,0.0,0.0,0.0,0.0,0.0,0.0,0.0,0.0,0.0,4.0248,4.4179,4.7079,4.8577,5.297,5.5518,5.5702,5.6252,5.6608,5.6801,5.718,5.7896,5.8923,5.8511,5.9204,6.0858,5.9973,6.005,6.0819,5.9969,5.9122,5.811,5.5913,5.4349,5.3089,5.019,4.8838,4.8335,4.687,4.6203,4.6017,4.5948,4.7264,4.9193,5.0483,5.1461,5.2752,5.6038,5.9243,6.2535,6.616,7.0425,7.4138,7.5229,7.5701,7.5898,7.5897,7.371,7.1211,6.9531,6.4883,6.0781,5.9453,6.1287,6.4205,6.7846,7.4698,8.1065,8.5325,8.7774,8.8902,8.8365,8.9458,8.9588,8.7936,8.9276,0.0,0.0,9.2216,9.3562,9.4827,9.5781,9.6557,9.7173,9.6596,9.6288,9.6288,9.6095,9.5211,9.371,9.348,9.3095,9.2479,9.1595,9.121,9.1171,9.0287,8.9787,8.9556,8.894,8.8556,8.844,8.9286,8.971,8.9962,9.0472,9.0588,9.0415,0.0,0.0,0.0,0.0,0.0,0.0,0.0,0.0,0.0,0.0,0.0,0.0,0.0,0.0,0.0,0.0,0.0,0.0,0.0,4.1208,4.3312,4.4114,4.7681,4.9682,4.9674,5.0417,5.0806,5.0806,5.1857,5.2818,5.3664,5.3549,5.4447,5.6097,5.5249,5.5576,5.6703,5.5904,5.5092,0.0,0.0,5.1178,4.9959,4.8064,4.7435,4.7382,4.6433,4.6885,4.8069,4.91,5.0477,5.2136,5.4246,5.5731,5.745,6.1317,6.4638,6.7766,7.121,7.4805,7.7461,7.7148,7.6758,7.5781,7.3125,7.043,6.7422,6.3867,5.9492,5.5937,5.457,5.691,6.0293,6.4104,7.1377,7.8511,8.4104,8.7089,8.9138,9.0196,9.1437,9.1768,9.0595,9.1685,9.2421,0.0,9.291,9.3817,9.5109,9.5878,9.6519,9.698,9.6557,9.6288,9.6288,9.6288,9.5826,9.4826,9.4057,9.3441,9.2979,9.1748,9.121,9.1171,0.0,9.0248,8.9902,8.9825,8.9556,8.9325,9.0133,9.0426,9.0375,9.0762,9.0558,9.0022,0.0,0.0,0.0,0.0,0.0,0.0,0.0,0.0,0.0,0.0,0.0,0.0,0.0,0.0,0.0,0.0,0.0,0.0,0.0,0.0,3.9484,4.0323,4.2009,4.3026,4.3127,4.3821,4.4168,4.4168,4.6395,4.7859,4.863,4.9362,5.0568,5.2051,5.1285,5.183,5.3228,5.2596,5.1439,4.9936,4.9426,4.7841,4.5788,0.0,4.6011,4.614,4.614,4.7724,5.0312,5.332,5.457,5.5351,5.832,6.0351,6.2461,6.6836,6.9726,7.2422,7.6328,7.8594,7.9648,7.8711,7.7656,7.5351,6.9531,6.6562,6.3398,5.7461,5.418,5.207,5.1094,5.2613,5.5607,6.0448,6.6321,7.3207,8.1703,8.4996,8.8147,9.2457,9.3186,9.3477,9.391,9.4005,9.398,9.3864,9.4051,9.4393,9.496,9.5826,9.6288,9.6288,9.6172,9.6172,9.6288,9.6288,9.6288,9.6288,9.4518,9.3749,9.3826,9.2133,9.1364,9.1364,9.1364,9.0902,9.0133,9.0902,9.0731,9.0119,9.0867,9.0991,9.0759,9.0739,9.0159,8.9402,0.0,0.0,0.0,0.0,0.0,0.0,0.0,0.0,0.0,0.0,3.2295,3.2119,0.0,0.0,0.0,0.0,0.0,0.0,0.0,0.0,0.0,3.9545,4.128,4.253,4.3345,4.3461,4.3539,4.3539,4.4005,4.4272,4.4427,4.4582,4.4826,4.5113,4.4963,4.5089,4.5381,4.5239,4.5006,4.4777,4.5423,4.5411,4.5063,4.5924,0.0,0.0,4.6288,4.7031,4.8867,5.4336,5.7539,6.0117,6.4922,6.707,6.8711,7.3047,7.5156,7.6406,7.7851,7.9492,8.039,7.8867,7.6758,7.3867,6.9258,6.5195,6.0859,5.5547,5.2422,5.0156,4.8555,5.1401,5.6579,6.44,7.0692,7.7796,8.6899,8.9789,9.1456,9.2668,9.4667,9.5368,9.3876,9.5016,0.0,0.0,9.4803,9.488,9.4998,9.5826,9.6288,9.6288,9.5595,9.5557,9.6288,9.6288,9.6288,9.6288,9.4518,9.4057,9.4711,9.3018,9.2287,9.2287,9.2287,0.0,9.0979,9.1133,9.1006,9.0724,9.0896,9.0561,8.9969,8.9797,8.9364,8.8832,0.0,0.0,0.0,0.0,0.0,0.0,0.0,3.0,3.168,3.5586,3.5652,3.4956,3.4028,3.422,0.0,0.0,0.0,0.0,0.0,0.0,0.0,0.0,4.0068,4.114,4.2015,4.2481,4.2481,4.2058,0.0,4.2481,4.2058,4.1626,4.1459,4.1464,4.1464,4.1761,4.226,4.2692,4.3121,4.3632,4.4554,4.4911,4.4991,0.0,0.0,0.0,4.6289,4.7422,4.9531,5.3281,5.7187,6.1406,6.7031,7.0039,7.2109,7.5547,7.75,7.8789,8.0117,8.1406,8.1836,7.9687,7.6836,7.289,6.6328,6.1836,5.7305,5.125,4.8981,4.7801,4.6981,5.0647,5.5599,6.1123,6.7715,7.5121,8.3514,8.6916,8.9669,9.2872,9.475,9.5739,9.5691,9.6057,9.6288,9.6288,9.5903,9.5672,9.5672,9.6057,9.6288,9.6288,9.5903,9.6095,9.6903,9.6519,9.6519,9.6903,9.5172,9.4595,9.496,9.371,9.3133,9.3133,9.3133,0.0,9.1864,9.1717,9.1337,9.0896,9.0759,9.0247,8.9614,8.9528,8.8941,8.8174,0.0,0.0,0.0,0.0,0.0,0.0,0.0,3.0897,3.2889,3.7695,3.8334,3.7573,3.5545,3.5202,3.4958,0.0,0.0,0.0,0.0,0.0,0.0,0.0,0.0,0.0,4.0604,0.0,0.0,4.1153,4.2007,0.0,0.0,0.0,0.0,0.0,3.9818,4.0303,4.1211,4.168,4.2383,0.0,0.0,4.4726,0.0,0.0,0.0,0.0,0.0,4.7617,4.9687,5.1719,5.5234,5.9726,6.5195,6.9492,7.293,7.5351,7.7695,7.9844,8.1797,8.2929,8.3008,8.0586,7.7148,7.2109,6.3633,5.8906,5.4414,4.7695,4.6199,4.6089,4.6089,4.9469,5.3447,5.7238,6.312,7.0356,7.9277,8.3231,8.7378,9.3284,9.5057,9.6249,9.7403,9.7096,0.0,9.7211,9.6673,9.6288,9.6288,9.6134,9.6095,9.6288,9.6134,9.6403,9.725,9.6788,9.6788,9.725,9.5903,9.5288,9.5249,9.4364,9.398,9.398,9.3787,0.0,0.0,9.2009,9.1354,9.0579,9.0372,8.9797,8.9141,8.9141,8.8471,8.7526,0.0,0.0,0.0,0.0,0.0,0.0,0.0,3.0962,3.3219,3.6914,3.7828,3.8074,3.7952,3.7907,3.72,0.0,0.0,0.0,0.0,0.0,0.0,0.0,0.0,0.0,0.0,0.0,0.0,4.2264,4.3124,0.0,0.0,0.0,0.0,0.0,0.0,4.0351,4.1133,4.043,0.0,0.0,0.0,0.0,0.0,0.0,0.0,0.0,0.0,4.6445,4.7148,5.043,5.2344,5.4062,5.7773,6.3945,7.0117,7.1953,7.539,7.914,8.164,8.2929,8.3164,8.1328,7.7108,7.1362,6.3476,5.8435,5.3665,4.7578,4.6199,4.6089,4.6089,4.7041,5.015,5.7423,6.0514,6.6514,7.9402,8.3475,8.7533,9.4093,9.698,9.8211,9.7557,9.8134,9.798,9.6519,9.6326,9.6288,9.6288,9.5557,9.548,9.6288,9.5518,9.5518,9.6403,9.7057,9.7057,9.6403,9.6249,9.6172,9.6134,9.5288,9.4864,9.4826,9.4018,0.0,0.0,9.1299,9.047,8.9603,8.9578,8.8859,8.7841,8.7841,8.7526,8.7064,0.0,0.0,0.0,0.0,0.0,0.0,2.9883,3.0887,3.3056,3.8108,3.8889,3.9172,3.9694,3.9324,3.8101,3.5795,0.0,0.0,0.0,0.0,0.0,0.0,0.0,0.0,0.0,0.0,4.207,4.2383,4.3281,0.0,0.0,0.0,0.0,0.0,0.0,4.0586,4.043,4.0625,0.0,0.0,0.0,0.0,0.0,0.0,0.0,0.0,0.0,0.0,4.6523,4.7851,4.9609,5.1172,5.0976,5.5156,6.1406,6.7812,7.2383,7.6172,7.9765,8.2148,8.3047,8.0781,7.5546,6.9335,6.3125,5.7148,5.1676,4.7136,4.6077,4.5963,4.5935,4.6926,4.9125,5.3332,5.5799,6.051,7.0043,7.3497,7.8517,8.7803,9.071,9.3403,9.7134,0.0,9.7019,9.6365,9.6288,9.6288,9.6288,9.598,9.5942,9.6288,9.5942,9.6442,9.7788,9.7134,9.7134,9.7788,9.6788,9.6288,9.6288,9.5942,9.5788,9.5749,9.5233,0.0,0.0,9.2204,9.1131,9.0359,8.9238,8.8383,8.7688,8.7688,8.7398,8.6995,0.0,0.0,0.0,0.0,0.0,2.6719,2.9687,3.049,3.2528,3.7537,3.8507,3.9072,3.9908,3.931,3.8163,3.6565,3.6038,0.0,0.0,0.0,0.0,0.0,0.0,0.0,0.0,0.0,4.2656,4.3164,4.4023,4.4336,0.0,0.0,4.2578,4.1523,0.0,0.0,0.0,0.0,0.0,0.0,0.0,0.0,0.0,0.0,0.0,0.0,0.0,0.0,0.0,0.0,0.0,4.8711,4.6875,4.8984,5.3711,6.1953,6.7734,7.2305,7.6328,7.9687,8.1562,7.9452,7.3748,6.734,6.2375,5.6125,5.0337,4.6777,4.5948,4.5875,4.5803,4.6854,4.8419,5.0488,5.2675,5.6701,6.4082,6.7022,7.2052,8.1823,8.4516,8.8017,9.4287,9.5749,9.6288,9.6288,9.6288,9.6403,9.6634,9.6442,9.6288,9.6288,9.6519,9.7096,9.8057,9.7365,9.7365,9.8057,9.7096,9.6519,9.6288,9.6288,9.6288,9.6269,9.5732,0.0,0.0,9.2623,9.1446,9.0966,8.8961,8.7904,8.746,8.746,8.7265,8.6995,0.0,0.0,0.0,0.0,0.0,0.0,2.8047,2.9636,3.1562,3.4293,3.5859,3.7159,3.821,3.7552,3.7387,3.828,3.684,0.0,0.0,0.0,0.0,0.0,0.0,0.0,0.0,0.0,4.3242,4.4961,4.5859,4.582,4.5,4.4961,4.4062,4.2344,0.0,0.0,0.0,0.0,0.0,0.0,0.0,0.0,0.0,0.0,0.0,0.0,0.0,0.0,0.0,0.0,0.0,0.0,0.0,4.6914,4.8672,5.3906,6.0898,6.7695,7.1133,7.5192,7.8232,7.7333,7.193,6.5658,6.1247,5.5535,5.0208,4.6636,4.5859,4.5783,4.5783,4.6429,4.774,5.0289,5.2125,5.6165,6.4679,6.7359,7.0937,7.7746,8.0092,8.317,8.8286,9.3364,9.6288,9.6288,9.6288,0.0,9.7442,9.6749,9.6288,9.6288,9.7057,9.7096,9.6326,9.7942,9.7942,9.6326,9.7134,9.7057,9.6288,9.6288,9.6288,9.6231,0.0,0.0,0.0,9.2147,9.0933,9.1057,8.8623,8.7431,8.7031,8.7031,8.6995,8.6995,0.0,0.0,0.0,0.0,0.0,0.0,0.0,2.7792,2.9199,3.2415,3.3679,3.5085,3.7179,3.775,3.8339,3.9218,3.7799,0.0,0.0,0.0,0.0,0.0,0.0,0.0,0.0,0.0,4.4141,4.5898,4.6758,4.7031,4.6797,4.6797,4.5859,4.418,4.3906,4.3476,0.0,0.0,0.0,0.0,0.0,0.0,0.0,0.0,0.0,0.0,0.0,0.0,0.0,0.0,0.0,0.0,0.0,0.0,0.0,4.9375,5.5117,6.1367,6.418,6.7265,6.9452,6.8553,6.3972,5.918,5.7177,5.2448,4.7955,4.6197,4.5815,4.5782,4.5688,4.6793,4.8548,5.1125,5.2972,5.5626,6.0089,6.4628,7.0052,7.6861,8.6324,9.2941,0.0,0.0,9.7134,9.7134,9.6596,9.6634,9.7442,9.6749,9.6826,9.798,9.7673,9.7942,9.8904,9.8827,9.8519,9.798,9.7673,9.7096,9.6288,9.6098,9.6039,0.0,0.0,0.0,0.0,9.2194,9.1028,9.1037,8.828,8.7132,8.6995,8.6995,8.6995,8.6995,0.0,0.0,0.0,0.0,0.0,0.0,0.0,2.6702,2.7894,3.0657,3.1738,3.3343,3.6255,3.6811,3.7702,3.9592,3.8552,0.0,0.0,0.0,0.0,0.0,0.0,0.0,0.0,4.2578,4.4883,4.7266,4.7812,4.8242,4.8594,4.8594,4.7461,4.5508,4.5508,4.4805,0.0,0.0,0.0,0.0,0.0,0.0,4.5312,0.0,0.0,0.0,0.0,0.0,0.0,0.0,0.0,0.0,0.0,0.0,0.0,0.0,5.0307,5.4643,5.7846,6.0843,6.2898,6.2351,5.8769,5.5092,5.4195,5.0471,4.6907,4.5916,4.5718,4.5712,4.562,4.6971,4.874,5.0664,5.2933,5.5626,5.8819,6.3782,6.9744,7.6899,8.7478,9.4287,0.0,9.6673,9.798,9.798,9.7211,9.7096,9.7942,9.6903,9.7057,9.875,9.825,9.8365,9.9096,9.8788,9.848,9.8173,9.7249,9.6518,9.6019,9.5839,9.5776,0.0,0.0,0.0,0.0,9.2388,9.1236,9.1223,8.8498,8.7288,8.6995,8.6995,8.6995,8.6995,0.0,0.0,0.0,0.0,0.0,0.0,0.0,2.6304,2.7392,2.9026,2.9998,3.1824,3.5277,3.5124,3.6155,3.9492,0.0,0.0,0.0,0.0,0.0,0.0,0.0,0.0,0.0,4.293,4.5469,4.8906,4.8945,4.9414,5.0195,5.0312,4.8945,4.6406,4.6445,4.5508,0.0,0.0,0.0,0.0,4.5664,4.5312,0.0,0.0,0.0,0.0,0.0,0.0,0.0,0.0,0.0,0.0,0.0,0.0,0.0,0.0,0.0,0.0,0.0,5.5541,5.797,5.797,5.5491,5.2822,5.2005,4.9318,0.0,4.5791,4.5594,4.5633,4.5748,4.7048,4.8471,4.9586,5.2472,5.6049,6.0281,6.5051,7.0937,7.8592,8.5363,8.9671,9.0287,9.548,9.875,9.8711,9.7923,9.7846,9.8673,9.7192,9.7058,9.8654,9.8654,9.8269,9.7577,9.8168,9.8027,9.7183,9.6167,9.5598,9.5462,9.5439,9.5417,0.0,0.0,0.0,9.5691,9.2766,9.1655,9.1546,8.9212,8.7802,8.7105,8.7031,8.6995,8.6995,0.0,0.0,0.0,0.0,0.0,0.0,0.0,0.0,0.0,0.0,2.8901,3.0658,3.2849,3.5232,3.7264,0.0,0.0,0.0,0.0,0.0,0.0,0.0,0.0,0.0,0.0,4.3828,4.6094,4.8906,4.957,5.0,5.0234,5.1523,5.0391,4.7305,4.8008,4.7305,0.0,0.0,0.0,0.0,4.6133,4.6055,0.0,0.0,0.0,0.0,4.418,4.4414,0.0,0.0,0.0,0.0,0.0,0.0,0.0,0.0,4.6123,4.6402,4.7428,0.0,4.9931,4.9931,4.876,4.776,0.0,4.7071,4.5894,4.5642,4.5594,4.5979,4.7278,4.7817,4.924,5.2741,5.4472,5.6896,6.1177,7.1052,8.0631,8.8286,9.348,9.598,9.4903,9.7211,9.8519,9.7865,9.748,9.7422,9.7788,9.7089,9.6946,9.7554,9.7012,9.7203,9.8168,9.878,9.8363,9.6872,9.6636,9.5654,9.4064,9.3845,9.3591,0.0,0.0,9.3687,9.3942,9.3425,9.2566,9.1338,8.9737,8.8647,8.7839,8.7252,8.6995,8.6995,0.0,0.0,0.0,0.0,0.0,0.0,0.0,0.0,0.0,0.0,0.0,0.0,0.0,0.0,0.0,0.0,0.0,0.0,0.0,0.0,0.0,0.0,0.0,4.1094,4.2383,4.4101,4.6484,4.9492,4.9961,5.0781,5.1953,5.2461,5.1289,4.875,4.8047,4.7187,0.0,0.0,0.0,0.0,4.5703,0.0,0.0,0.0,0.0,0.0,4.3711,4.4258,0.0,4.6016,4.6289,4.6289,0.0,0.0,0.0,0.0,4.5925,4.5802,4.5718,4.6387,4.7043,4.7043,4.6697,4.6422,4.6893,4.6265,4.5594,4.5594,4.5594,4.6018,4.7317,4.8163,4.9702,5.2818,5.5626,5.9896,6.6898,7.5168,8.3324,9.0979,9.4521,9.6578,0.0,9.7976,9.8281,9.78,9.7085,9.6745,9.6839,9.6249,9.5928,9.6066,9.5982,9.6474,9.7669,9.7644,9.7184,9.6309,9.578,9.4843,9.3433,9.2928,9.2579,0.0,0.0,9.2439,9.2449,9.2769,9.2157,9.0942,9.0222,8.9454,8.8647,8.7839,8.7545,8.7509,0.0,0.0,0.0,0.0,0.0,0.0,0.0,0.0,0.0,0.0,0.0,0.0,0.0,0.0,0.0,0.0,0.0,0.0,0.0,0.0,0.0,0.0,0.0,4.1875,4.2969,4.4453,4.6797,5.0,5.0273,5.1484,5.3594,5.3242,5.207,5.0078,4.7617,4.6367,0.0,0.0,0.0,0.0,4.5156,0.0,0.0,0.0,0.0,0.0,0.0,0.0,0.0,4.5976,4.6289,4.6289,4.6288,0.0,0.0,0.0,0.0,0.0,4.5646,4.6509,4.7355,4.6817,4.6817,4.6885,4.674,4.6124,4.5594,4.5594,4.571,4.6086,4.7086,4.8663,5.0433,5.2346,5.7396,6.4512,7.4476,7.8754,8.3506,9.0503,9.2776,0.0,9.7546,9.7684,9.7638,9.7593,9.6539,9.5856,9.5794,9.5122,9.4717,9.4629,9.4881,9.5382,9.6086,9.5726,9.5496,9.5464,9.4312,9.353,9.2996,9.2063,9.1659,9.1646,0.0,0.0,9.1142,9.1763,9.1436,9.0629,9.0739,9.0298,8.9455,8.8536,8.8206,8.8096,0.0,0.0,0.0,0.0,0.0,0.0,0.0,0.0,0.0,0.0,0.0,0.0,0.0,0.0,0.0,0.0,0.0,0.0,0.0,0.0,0.0,4.1836,4.207,4.332,4.5664,4.5976,4.7109,4.9101,5.0508,5.1406,5.1836,5.3945,5.3203,5.0117,4.8242,4.6562,4.5234,0.0,0.0,4.5078,4.5781,0.0,0.0,0.0,0.0,0.0,0.0,0.0,0.0,4.5742,4.6289,4.6289,4.6153,0.0,0.0,0.0,0.0,0.0,4.5603,4.7826,4.9442,4.6518,4.6355,4.6701,4.597,4.571,4.5594,4.5594,4.6201,4.7163,4.874,5.0394,5.2549,5.5703,6.2935,7.1168,7.99,8.3867,8.7406,9.1491,0.0,9.5515,9.4971,9.5401,9.5613,9.5336,9.5156,9.4877,9.4411,9.4562,9.4385,9.3897,9.2686,9.2299,9.2809,9.4114,9.464,9.4312,9.3012,9.2182,9.1631,9.0147,8.9621,8.9811,0.0,8.9707,8.9854,9.2023,9.1987,9.0665,9.1363,9.1106,9.0262,8.8757,8.8206,8.8096,0.0,0.0,0.0,0.0,0.0,0.0,0.0,0.0,0.0,0.0,0.0,0.0,0.0,0.0,0.0,0.0,0.0,0.0,0.0,0.0,0.0,4.375,4.3789,4.4609,4.625,4.7226,4.8555,5.0234,5.1484,5.2344,5.2812,5.2617,5.1211,4.875,4.7461,4.6445,4.5742,4.6133,4.6055,4.5703,0.0,0.0,0.0,0.0,0.0,0.0,0.0,0.0,0.0,0.0,4.5153,4.5492,4.5434,0.0,0.0,0.0,0.0,0.0,4.5594,4.7086,4.8471,4.7817,4.8971,4.9971,4.8673,4.8702,4.8894,4.8442,4.9009,4.9846,5.0625,5.328,5.7703,6.4782,6.9975,7.5216,8.1294,8.3763,8.6432,0.0,0.0,9.3529,9.459,9.4378,9.3969,9.338,9.3536,9.337,9.2666,9.2796,9.2737,9.2486,9.1358,9.0982,9.1477,9.1655,9.1878,9.2013,9.1354,9.1042,9.0907,8.9285,8.8854,8.9345,0.0,8.8757,8.8867,9.0445,9.0922,9.0702,9.1473,9.1583,9.1106,8.9931,8.894,8.8206,0.0,0.0,0.0,0.0,0.0,0.0,0.0,0.0,0.0,0.0,0.0,0.0,0.0,0.0,0.0,0.0,0.0,0.0,0.0,0.0,4.3086,4.4648,4.5273,4.6211,4.7461,4.8437,4.9805,5.1719,5.2578,5.3242,5.3633,5.1484,4.9453,4.7578,4.6914,4.6367,4.6016,4.6016,4.5898,4.5625,0.0,0.0,0.0,0.0,0.0,0.0,0.0,0.0,0.0,0.0,0.0,0.0,0.0,0.0,0.0,4.5768,4.5688,4.5594,4.5594,4.6509,4.7702,4.8586,5.0279,5.1702,5.1587,5.1741,5.1962,5.2135,5.2972,5.3538,5.3154,5.6934,6.3089,7.2283,7.5861,7.8922,8.3042,8.4289,8.6001,8.9449,9.0227,9.1433,9.3814,9.3059,9.2173,9.1703,9.1779,9.1555,9.096,9.0923,9.0923,9.0923,9.0147,8.9901,9.0248,8.9319,8.9293,9.0197,8.988,8.9946,9.0262,8.8647,8.8353,8.9087,8.828,8.7912,8.7986,8.8793,8.9491,9.0152,9.1326,9.1913,9.1987,9.0959,8.9968,8.9124,0.0,0.0,0.0,0.0,0.0,0.0,0.0,0.0,0.0,0.0,0.0,0.0,0.0,0.0,0.0,0.0,0.0,0.0,0.0,0.0,4.2812,4.375,4.6133,4.8555,5.0976,4.9648,5.0117,5.2617,5.3476,5.3516,5.2773,5.1797,5.0,4.7617,4.7539,4.6601,4.5078,4.5078,4.4648,4.3867,4.3828,0.0,0.0,0.0,0.0,0.0,0.0,0.0,0.0,0.0,0.0,0.0,0.0,0.0,4.5789,4.564,4.5603,4.5594,4.5594,4.7355,4.8894,4.7432,4.7231,4.8548,5.3164,5.301,5.2769,5.5906,5.7819,5.8473,5.6923,6.1396,6.7398,7.3591,7.8669,8.3389,8.7798,0.0,8.9487,8.9947,9.013,9.0483,9.1141,9.0284,8.9878,9.0272,8.9912,8.96,8.9526,8.9526,8.9526,8.9526,8.879,8.8349,8.8419,8.758,8.8188,9.0197,8.8922,8.8755,8.9419,8.7839,8.7545,8.8243,8.7435,8.7105,8.7142,8.7949,8.8316,8.861,9.0886,9.2281,9.2831,9.1179,9.1033,9.151,0.0,0.0,0.0,0.0,0.0,0.0,0.0,0.0,0.0,0.0,0.0,0.0,0.0,0.0,0.0,0.0,0.0,0.0,0.0,4.1172,4.3047,4.4453,4.5976,4.8008,5.0586,5.0508,5.1445,5.3516,5.3281,5.25,5.1133,5.0234,4.875,4.6797,4.6797,4.6445,4.582,4.582,4.5312,4.4492,4.4492,4.3631,0.0,0.0,0.0,0.0,0.0,0.0,0.0,0.0,4.3864,4.3943,4.4724,4.5307,4.5665,4.562,4.5594,4.5594,4.5594,4.7471,4.924,4.8625,4.924,5.0923,5.4434,5.678,5.8742,6.055,6.3128,6.4666,6.3512,6.7321,7.2164,7.6939,8.1681,8.5833,8.8857,8.9667,8.9769,8.936,8.984,9.0132,8.9965,8.9627,8.9268,8.8996,8.9229,8.9197,8.8683,8.8647,8.8647,8.8647,8.7876,8.7472,8.7472,8.7142,8.7429,8.8185,8.7723,8.7876,8.861,8.7509,8.7729,8.8867,8.7582,8.7288,8.7729,8.7545,8.7766,8.839,9.0298,9.1877,9.2905,9.1216,9.0482,9.0372,0.0,0.0,0.0,0.0,0.0,0.0,0.0,0.0,0.0,0.0,0.0,0.0,0.0,0.0,0.0,0.0,0.0,0.0,3.8047,4.0351,4.2266,4.375,4.5391,4.7266,4.9336,5.0195,5.1601,5.3594,5.2734,5.1445,4.9766,4.8906,4.7851,4.6719,4.6406,4.6445,4.6641,4.582,4.5117,4.4527,4.3941,4.2988,0.0,0.0,0.0,0.0,0.0,0.0,0.0,0.0,4.3679,4.3776,4.4573,4.5202,4.5594,4.5594,4.5594,4.5556,4.5248,4.6663,4.8317,4.8856,5.0471,5.3,5.7165,6.0358,6.3166,6.5628,6.7744,6.9154,6.9061,7.1852,7.5372,7.8994,8.3519,8.7209,8.8854,8.9264,8.9108,8.8372,8.886,8.9024,8.8682,8.8611,8.8426,8.7876,8.8353,8.8426,8.7839,8.7839,8.7839,8.7839,8.7288,8.6995,8.6995,8.6995,8.6995,8.6995,8.6995,8.7288,8.7802,8.7252,8.7619,8.861,8.7509,8.7325,8.7766,8.7252,8.7619,8.8683,8.9528,9.1033,9.2501,9.0849,9.0188,9.0225,0.0,0.0,0.0,0.0,0.0,0.0,0.0,0.0,0.0,0.0,0.0,0.0,0.0,0.0,0.0,0.0,0.0,0.0,3.7148,3.8906,4.0273,4.1172,4.4453,4.668,4.7578,4.8437,5.0117,5.2656,5.1797,5.0508,4.8867,4.8008,4.7617,4.7539,4.668,4.6797,4.7422,4.4805,4.3666,4.3439,4.1718,4.0936,4.0817,0.0,0.0,0.0,0.0,0.0,0.0,0.0,4.4518,4.4639,4.5384,4.5594,4.5594,4.5594,4.5594,4.5402,4.4547,4.4979,4.6056,4.7702,5.0077,5.3962,6.1577,6.3308,6.5051,7.1052,7.1552,7.142,7.297,7.4609,7.6585,7.925,8.3952,8.7436,8.7996,8.807,8.7799,8.7061,8.6995,8.6995,8.6995,8.6995,8.6995,8.6995,8.6995,8.6995,8.6995,8.6995,8.6995,8.6995,8.6995,8.6995,8.6995,8.6995,8.6995,8.6995,8.6995,8.6995,8.6995,8.6995,8.6995,8.7031,8.6995,8.6995,8.7031,8.6995,8.7949,8.9344,8.85,8.9674,9.1583,9.0005,9.0408,9.1657,0.0,0.0,0.0,0.0,0.0,0.0,0.0,0.0,0.0,0.0,0.0,0.0,0.0,0.0,0.0,0.0,0.0,0.0,3.7148,3.7773,3.9258,4.1914,4.3594,4.5156,4.6641,4.7539,4.8672,5.0039,4.9766,4.9062,4.8008,4.8359,4.7851,4.6719,4.6943,4.6593,4.5703,4.4832,4.3761,4.2696,4.2809,4.1993,0.0,0.0,0.0,0.0,0.0,0.0,0.0,0.0,0.0,0.0,4.5342,4.5594,4.5594,4.5594,4.5594,4.5556,4.5287,4.7586,5.001,4.9933,5.4549,5.9973,6.3435,6.559,6.8885,7.6092,7.6021,7.4834,7.5315,7.6862,7.8284,7.8935,8.2057,8.4769,8.5966,8.5857,8.5754,8.6111,8.6151,8.6371,8.6958,8.6995,8.6995,8.6995,8.6995,8.6995,8.6995,8.6995,8.6995,8.6995,8.6995,8.6995,8.6995,8.6995,8.6995,8.6995,8.6995,8.6995,8.6995,8.6995,8.7325,8.7802,8.7252,8.7325,8.7802,8.7252,8.7619,8.8536,8.828,8.8977,9.0005,8.894,8.8867,8.9234,0.0,0.0,0.0,0.0,0.0,0.0,0.0,0.0,0.0,0.0,2.9647,0.0,0.0,0.0,0.0,0.0,0.0,0.0,0.0,3.6321,3.7965,4.0739,4.2343,4.4141,4.625,4.6797,4.7344,4.7851,4.8203,4.793,4.7109,4.7969,4.7812,4.6836,4.7297,4.6708,4.5384,4.4621,4.368,4.2684,4.2875,4.2451,4.1717,0.0,0.0,0.0,0.0,0.0,0.0,0.0,0.0,0.0,4.5441,4.5594,4.5594,4.5594,4.5364,4.524,4.5932,4.8471,5.1279,5.2828,5.7945,6.3591,6.7372,7.0202,7.3613,7.9242,7.879,7.759,7.8187,7.8934,7.9654,8.0298,8.2135,8.384,8.4875,8.4772,8.4792,8.527,8.5306,8.5527,8.6004,8.604,8.604,8.604,8.604,8.604,8.604,8.6371,8.6518,8.6518,8.6848,8.6848,8.6518,8.6848,8.6701,8.6077,8.6701,8.6848,8.6518,8.6848,8.7252,8.7692,8.7215,8.7288,8.7692,8.7215,8.7288,8.7729,8.7729,8.8023,8.839,8.7912,8.7729,8.7729,0.0,0.0,0.0,0.0,0.0,0.0,0.0,0.0,0.0,0.0,2.9883,3.0898,0.0,0.0,0.0,0.0,0.0,0.0,0.0,0.0,3.6579,3.8654,4.1326,4.3867,4.625,4.6289,4.6289,4.6289,4.7109,4.707,4.6328,4.7266,4.7617,4.746,4.7538,4.6943,4.5738,4.4129,4.3261,4.2917,4.2246,4.2335,4.2777,4.2085,0.0,0.0,0.0,0.0,0.0,0.0,0.0,0.0,4.5594,4.5594,4.5594,4.5594,4.5086,4.4932,4.674,4.8586,5.1202,5.6291,6.0911,6.5893,7.2609,7.5875,7.8176,8.0692,8.0204,7.9803,8.1217,8.0776,8.0746,8.2497,8.3405,8.4025,8.4345,8.4389,8.4425,8.4499,8.4499,8.4535,8.4609,8.4609,8.4609,8.4609,8.4609,8.4609,8.4609,8.527,8.5673,8.5673,8.6407,8.6444,8.571,8.6407,8.604,8.4609,8.6077,8.6407,8.571,8.6591,8.6995,8.6995,8.6921,8.6921,8.6995,8.6995,8.6995,8.6995,8.6995,8.6995,8.6995,8.6995,8.6995,8.6995,0.0,0.0,0.0,0.0,0.0,0.0,0.0,0.0,0.0,0.0,0.0,0.0,0.0,0.0,0.0,0.0,0.0,0.0,0.0,0.0,3.5885,4.0428,4.3711,4.5703,4.6289,4.6289,4.6289,4.6289,4.6484,4.6484,4.6328,4.7891,4.7848,4.6456,4.7078,4.6105,4.3927,4.2825,4.1923,4.1284,4.1782,4.1601,4.1131,4.1623,4.2,0.0,0.0,0.0,0.0,0.0,0.0,0.0,4.5594,4.5594,4.5594,4.5594,4.5932,4.6855,4.924,5.2049,5.5549,6.0666,6.6308,7.1706,7.5853,7.697,7.7766,8.0136,8.0981,8.1605,8.2622,8.2216,8.1876,8.227,8.2495,8.2647,8.2733,8.27,8.2957,8.3581,8.3654,8.3911,8.4535,8.4609,8.4609,8.4609,8.4609,8.4609,8.4609,8.4756,8.4866,8.4866,8.5049,8.5049,8.4866,8.5049,8.4939,8.4609,8.4939,8.5049,8.4903,8.6371,8.6995,8.6958,8.6334,8.6407,8.6995,8.6995,8.6995,8.6995,8.6995,8.6995,8.6995,8.6995,8.6995,8.6995,0.0,0.0,0.0,0.0,0.0,0.0,0.0,0.0,0.0,0.0,0.0,0.0,0.0,0.0,0.0,0.0,0.0,0.0,0.0,0.0,3.5636,4.0976,4.4062,4.5664,4.5664,4.5661,4.566,4.5664,4.5142,4.5366,4.624,4.7569,4.7393,4.6037,4.6466,4.5438,4.3262,4.2371,4.1706,4.1272,4.1735,4.1832,4.1739,4.1777,4.2038,4.247,4.2931,0.0,0.0,0.0,0.0,0.0,0.0,0.0,4.5594,4.5594,4.5624,4.6385,4.971,5.2735,5.6824,6.4494,6.9362,7.3019,7.6057,7.6867,7.7473,7.9166,8.0568,8.1747,8.2554,8.2434,8.2186,8.2186,8.2186,8.2076,8.1672,8.1636,8.1782,8.2223,8.226,8.259,8.3361,8.3104,8.303,8.3434,8.3104,8.303,8.3434,8.3838,8.4022,8.4022,8.4389,8.4425,8.4022,8.4425,8.4205,8.3471,8.4242,8.4609,8.4646,8.5857,8.6628,8.6995,8.6554,8.6628,8.6995,8.6995,8.6995,8.6995,8.6995,8.6995,8.6995,8.6995,8.6995,8.6995,0.0,0.0,0.0,0.0,0.0,0.0,0.0,0.0,0.0,0.0,0.0,0.0,0.0,0.0,0.0,0.0,0.0,0.0,0.0,0.0,0.0,4.0781,4.3242,4.453,4.453,4.4585,4.4623,4.453,4.3758,4.4377,4.6304,4.6894,4.6697,4.5891,4.5788,4.4782,4.3112,4.2144,4.1672,4.1585,4.1585,4.2008,4.2585,4.1854,4.2124,4.2893,4.3047,4.3624,4.4432,4.5325,0.0,0.0,0.0,0.0,4.5541,4.5577,4.5136,4.5514,4.9458,5.3035,5.7875,6.7192,7.0604,7.2312,7.4835,7.5942,7.6783,7.8088,7.98,8.1195,8.1856,8.2003,8.2039,8.2186,8.1966,8.1599,8.1085,8.0901,8.0791,8.0791,8.0791,8.1122,8.1893,8.1269,8.1122,8.1929,8.1379,8.1305,8.1966,8.2774,8.3214,8.3214,8.3838,8.3875,8.3214,8.3838,8.3508,8.2223,8.3544,8.4278,8.4425,8.5233,8.5967,8.6591,8.6591,8.6664,8.6811,8.6958,8.6995,8.6995,8.6995,8.6995,8.6995,8.6995,8.6995,8.6995,0.0,0.0,0.0,0.0,0.0,0.0,0.0,0.0,0.0,0.0,0.0,0.0,0.0,0.0,0.0,0.0,0.0,0.0,3.3041,0.0,0.0,4.0,4.1746,4.2669,4.2672,4.3275,4.3275,4.2672,4.3146,4.4642,4.7042,4.645,4.6047,4.5776,4.5019,4.4111,4.3018,4.1401,4.0693,4.0669,4.0669,4.0746,4.0823,4.0708,4.12,4.2077,4.2816,4.3624,4.4432,4.5325,4.5594,0.0,0.0,0.0,4.5222,4.5494,4.5822,4.6723,4.9826,5.5949,6.2582,6.724,6.9772,7.1576,7.3305,7.3922,7.4779,7.7011,7.936,8.1048,8.1158,8.1158,8.1379,8.2076,8.1012,8.0314,8.0938,8.0388,7.9947,7.9947,7.9947,8.0277,8.1085,8.0424,8.0277,8.1122,8.1048,8.1048,8.1158,8.1929,8.237,8.237,8.2443,8.248,8.237,8.248,8.2406,8.2186,8.2406,8.2884,8.3618,8.4389,8.4829,8.4939,8.4939,8.5306,8.6004,8.6701,8.6995,8.6995,8.6995,8.6995,8.6995,8.6995,8.6995,8.6995,0.0,0.0,0.0,0.0,0.0,0.0,0.0,0.0,0.0,0.0,0.0,0.0,0.0,0.0,0.0,2.9504,3.1008,3.2532,3.3958,3.6392,3.8192,3.9013,4.0652,4.1284,4.0786,4.1972,4.2235,4.1518,4.1699,4.3594,4.706,4.6184,4.6752,4.8467,4.6661,4.534,4.4355,4.2162,4.0931,4.0516,4.0516,4.0745,4.1089,4.0646,4.1283,4.2454,4.2679,4.3434,4.4414,4.5084,4.5438,4.5568,4.539,0.0,0.0,0.0,4.5171,4.6328,5.077,5.5394,6.0191,6.5518,6.7662,6.923,7.2224,7.2972,7.3707,7.613,7.7488,7.8699,8.0057,8.0314,8.0424,8.0791,8.0241,7.9764,7.9653,7.936,7.914,7.914,7.914,7.9433,8.0241,7.958,7.947,8.0277,8.0314,8.0314,8.0314,8.1085,8.1525,8.1525,8.1525,8.1746,8.2186,8.1746,8.1525,8.1525,8.2443,8.3067,8.3434,8.4242,8.4866,8.5306,8.5747,8.5894,8.582,8.6187,8.6334,8.6334,8.6334,8.6591,8.6995,8.6995,8.6995,8.6995,0.0,0.0,0.0,0.0,0.0,0.0,0.0,0.0,0.0,0.0,0.0,0.0,0.0,0.0,0.0,0.0,3.1274,3.3111,3.483,3.6145,3.7347,3.8364,3.9338,3.9785,3.9564,4.0704,4.1048,4.0524,4.072,4.2965,4.6989,4.6497,4.8048,5.1202,4.8432,4.6624,4.5441,4.3124,4.1777,4.1123,4.0646,4.0781,4.125,4.0577,4.1232,4.2441,4.2432,0.0,0.0,0.0,0.0,4.5293,4.5033,4.4908,0.0,0.0,0.0,4.5615,5.0365,5.2882,5.5697,6.1934,6.4242,6.5999,7.0036,7.1468,7.2532,7.4735,7.5359,7.613,7.8185,7.8883,7.9286,7.9727,7.9433,7.9029,7.8662,7.8405,7.8259,7.8259,7.8259,7.8589,7.9396,7.8736,7.8626,7.9433,7.9507,7.958,7.9764,8.0571,8.1085,8.1305,8.1305,8.1489,8.1893,8.1305,8.1012,8.1012,8.2627,8.3398,8.3434,8.4462,8.5233,8.582,8.6444,8.6224,8.5527,8.593,8.5857,8.5527,8.593,8.6334,8.6738,8.6921,8.6995,8.6995,0.0,0.0,0.0,0.0,0.0,0.0,0.0,0.0,0.0,0.0,0.0,0.0,2.8106,2.906,2.9609,2.9609,3.1875,3.4062,3.582,3.5962,3.6682,3.8317,3.7587,0.0,3.937,3.9437,3.943,3.9486,4.0998,4.3528,4.7013,4.7675,4.9779,5.2933,4.9548,4.7124,4.5479,4.3739,4.3008,4.2808,4.1119,4.0432,4.0436,4.008,4.0484,4.1347,0.0,0.0,0.0,0.0,0.0,0.0,0.0,4.4359,4.4132,0.0,0.0,0.0,4.7372,4.8604,5.0563,5.5926,5.8988,6.1777,6.5888,6.8568,7.0697,7.2349,7.3303,7.4111,7.4992,7.6393,7.7965,7.9543,7.8479,7.7677,7.8479,7.7892,7.7347,7.7347,7.7347,7.7708,7.8589,7.7892,7.7745,7.8589,7.8662,7.8993,7.9764,8.0571,8.1342,8.2113,8.215,8.1782,8.1085,8.1012,8.1012,8.1012,8.2627,8.3398,8.3471,8.5013,8.5747,8.5783,8.582,8.5416,8.4792,8.6334,8.604,8.4829,8.6334,8.6518,8.593,8.6738,8.6995,8.6995,0.0,0.0,0.0,0.0,0.0,0.0,0.0,0.0,0.0,0.0,0.0,0.0,0.0,2.9528,3.0664,3.1211,3.3086,3.4961,3.6719,3.668,3.7127,3.8299,3.8391,3.8452,3.8498,3.9514,3.9822,3.9346,4.0431,4.2433,4.531,4.6121,4.7432,4.9163,4.9009,4.8279,4.7048,4.4816,4.3239,4.2184,4.132,4.1265,4.148,3.9656,0.0,0.0,0.0,0.0,0.0,0.0,0.0,0.0,0.0,0.0,0.0,4.3896,4.3902,4.439,4.6685,4.7517,4.8827,5.3377,5.6712,5.9648,6.2658,6.6035,6.9009,7.0624,7.1615,7.2569,7.3891,7.5028,7.5983,7.657,7.6166,7.6056,7.6864,7.6276,7.6136,7.7163,7.6864,7.6864,7.7708,7.7457,7.742,7.7745,7.8295,7.8479,7.8222,7.9507,8.0351,8.0645,8.1158,8.1305,8.1012,8.1525,8.1525,8.1012,8.2627,8.3398,8.3471,8.5086,8.5527,8.5086,8.6114,8.6114,8.538,8.5416,8.5123,8.4609,8.4682,8.5159,8.582,8.6114,8.6554,8.6995,0.0,0.0,0.0,0.0,0.0,0.0,0.0,0.0,0.0,0.0,0.0,0.0,0.0,0.0,3.1797,3.293,3.4062,3.543,3.7187,3.7091,3.7509,3.868,3.8819,3.8854,3.8854,3.94,3.9669,3.9708,4.0246,4.167,4.3932,4.4778,4.5624,4.6509,4.7317,4.7702,4.7586,4.5586,4.4085,4.2983,4.2058,4.2102,4.2625,0.0,0.0,0.0,0.0,0.0,0.0,0.0,0.0,0.0,0.0,0.0,0.0,0.0,4.3515,4.3828,4.548,4.5883,4.6874,5.0949,5.3371,5.5721,5.9538,6.2915,6.5852,6.8054,6.9559,7.0917,7.2239,7.2936,7.356,7.4368,7.4735,7.4992,7.5249,7.5065,7.5322,7.6356,7.6019,7.5909,7.643,7.6723,7.69,7.69,7.7965,0.0,7.7781,7.9029,7.98,7.98,8.0057,8.0204,8.0204,8.0718,8.0865,8.0608,8.2223,8.3141,8.3471,8.4792,8.5123,8.4646,8.5747,8.5894,8.538,8.5416,8.5086,8.4572,8.4315,8.4682,8.5416,8.571,8.6151,8.6628,0.0,0.0,0.0,0.0,0.0,0.0,0.0,0.0,0.0,2.8129,0.0,0.0,0.0,0.0,0.0,3.4609,3.4805,3.5508,3.7187,3.7169,3.7817,3.9525,3.862,3.8854,4.0477,3.8892,3.8854,4.0516,4.0516,4.1362,4.3047,4.3855,4.4662,4.5441,4.4624,4.524,4.6778,4.5932,4.5586,4.5396,0.0,4.2963,4.3653,0.0,0.0,0.0,4.5385,4.4892,0.0,4.4488,0.0,0.0,0.0,0.0,0.0,0.0,0.0,4.3515,0.0,0.0,0.0,4.8343,4.882,4.9958,5.6271,5.9024,6.1153,6.4457,6.7026,6.8972,6.9853,7.0036,7.0844,7.3156,7.4258,7.4551,7.378,7.4368,7.4845,7.4918,7.4882,7.4882,7.4955,7.5652,7.6093,7.613,7.7635,7.8589,7.8589,7.936,7.98,7.98,7.9029,7.8626,7.8626,7.8626,7.9029,7.98,8.1415,8.259,8.3361,8.4205,8.4535,8.4535,8.4572,8.4609,8.4682,8.6297,8.6004,8.4682,8.5453,8.527,8.4682,8.549,8.5747,8.5857,0.0,0.0,0.0,0.0,0.0,0.0,3.0544,0.0,2.9326,0.0,0.0,0.0,3.1387,3.3513,3.5156,3.5586,3.6797,3.7461,3.7305,3.8295,3.9097,3.9564,3.9741,4.0015,4.0477,4.0054,4.0054,4.0516,4.0516,4.0746,4.1247,4.2085,4.2624,4.2854,4.3278,4.4008,4.5009,4.4739,4.4863,4.5104,4.4294,4.4318,0.0,0.0,0.0,0.0,0.0,4.5112,4.5369,0.0,4.5498,4.4268,0.0,0.0,0.0,0.0,0.0,0.0,4.3515,0.0,0.0,0.0,0.0,0.0,5.0582,5.3628,5.6969,6.0212,6.2365,6.4604,6.776,6.8825,6.9449,7.011,7.1394,7.2642,7.356,7.3377,7.3597,7.4771,7.4404,7.4478,7.5652,7.5983,7.635,0.0,7.7384,7.7804,7.8135,7.8902,7.9507,7.98,7.958,7.947,7.947,7.947,7.958,7.98,8.0828,8.1452,8.1709,8.3104,8.3434,8.292,8.4095,8.4278,8.3838,8.4829,8.5013,8.4609,8.4866,8.4792,8.4646,8.4866,8.4939,8.5049,0.0,0.0,0.0,0.0,0.0,0.0,3.266,3.199,3.1798,0.0,0.0,0.0,3.4174,3.5936,3.707,3.707,3.8008,3.8515,3.8314,3.9137,3.9738,4.0039,4.0359,4.0516,4.0516,4.0169,4.0169,4.0516,4.0169,4.0362,4.1046,4.12,4.147,4.1808,4.2316,4.2911,4.355,4.3934,4.4449,0.0,4.4912,0.0,0.0,4.5014,4.5663,0.0,0.0,0.0,4.7462,4.7572,4.6305,0.0,0.0,0.0,0.0,0.0,0.0,0.0,0.0,0.0,4.3662,4.4305,0.0,0.0,4.8453,5.0655,5.3371,5.6969,5.8988,6.1117,6.453,6.5815,6.6696,6.7724,6.8972,7.0367,7.1982,7.2092,7.2496,7.3744,7.3487,7.3707,7.4992,7.5395,7.5946,7.6754,7.7291,7.7623,7.7807,7.7919,7.8125,7.8321,7.8451,7.8547,7.8547,7.871,7.8919,7.9286,7.9764,8.0167,8.0534,8.1619,8.1882,8.1516,8.2625,8.2849,8.2484,8.3652,8.4483,8.5086,8.4916,8.4767,8.4609,8.4609,8.4389,8.4278,0.0,0.0,0.0,3.409,3.4513,3.4629,3.4629,3.4798,3.4902,0.0,3.5135,3.5976,3.7812,3.8555,3.8906,3.8984,3.8906,3.9095,3.964,3.9721,3.9966,4.0548,4.0612,4.0631,4.0631,4.0054,4.0054,4.0785,4.0054,4.0469,4.1923,4.1162,4.1192,4.189,4.189,4.2134,4.265,4.3368,4.4205,4.5007,4.5236,4.5797,0.0,0.0,4.8379,4.8636,5.0215,5.0288,4.9463,4.8489,4.6764,0.0,0.0,0.0,0.0,0.0,4.3534,0.0,0.0,0.0,0.0,0.0,0.0,0.0,4.8105,4.8949,5.0068,5.3959,5.5941,5.7703,6.0309,6.1447,6.2768,6.5044,6.6402,6.7834,6.9816,7.0807,7.1541,7.2165,7.2312,7.2679,7.3487,7.4265,7.5079,7.5959,7.7153,7.7701,7.7287,7.6604,7.6205,7.6167,7.6356,7.6555,7.6737,7.6983,7.7536,7.838,7.849,7.8893,7.959,8.0001,8.0271,8.0347,8.0726,8.0911,8.1092,8.2613,8.4136,8.5605,8.5404,8.5107,8.4719,8.4646,8.4095,8.3618,0.0,0.0,3.4045,3.5077,3.6353,3.7276,3.7276,3.7427,3.7576,3.7555,3.8336,3.9805,4.2187,4.1406,4.0935,4.1535,4.0948,4.0262,3.9586,4.0146,4.0256,3.9673,4.0868,4.1546,4.1546,4.2085,4.2431,4.2585,4.2431,4.2547,4.2854,4.2662,4.2522,4.2354,4.2354,4.2656,4.3139,4.3042,4.3479,4.4317,4.5631,0.0,4.7059,4.7958,4.8746,4.9463,5.0435,5.0288,4.939,4.7865,4.7003,4.6415,0.0,0.0,0.0,0.0,0.0,0.0,0.0,0.0,0.0,0.0,0.0,0.0,4.4635,4.5186,4.6434,4.915,4.9958,5.1353,5.5097,5.6455,5.7373,5.851,6.1557,6.5228,6.9486,7.0807,7.1138,7.0624,7.1138,7.1872,7.2679,7.3251,7.4128,7.5583,7.6599,7.6651,7.5623,7.5715,7.5644,7.5334,7.478,7.5103,7.6376,7.6081,7.635,7.7153,7.781,7.8208,7.8358,7.8828,7.9384,8.0001,8.0112,8.0476,8.1056,8.1667,8.2903,8.4456,8.5699,8.5913,8.549,8.4829,8.4095,8.3471,3.2045,3.3314,3.4898,3.7007,3.8084,3.8813,3.9289,3.9446,3.9579,3.9644,4.1276,4.2734,4.3545,4.327,4.2786,4.2253,4.2205,4.1583,0.0,4.0887,4.1119,4.0633,4.1355,4.2,4.2431,4.2893,4.3085,4.3085,4.3085,4.3316,4.3701,4.3079,4.2499,4.196,4.2628,4.2497,4.1863,4.2924,4.3785,4.4445,4.5665,0.0,4.6654,4.7829,4.8563,4.904,4.9884,4.9941,4.961,4.9554,4.8196,0.0,0.0,4.5626,4.5149,0.0,4.4378,4.4525,0.0,0.0,0.0,4.4011,0.0,0.0,0.0,4.4709,4.5388,4.7792,4.7976,4.869,5.2013,5.2931,5.3849,5.5868,5.8914,6.1863,6.431,6.7797,7.011,7.011,7.0299,7.0762,7.1567,7.1739,7.2227,7.3229,7.406,7.4216,7.3458,7.3935,7.415,7.3964,7.3771,7.4052,7.4882,7.4942,7.5316,7.596,7.6555,7.6956,7.7159,7.7585,7.8024,7.8457,7.9035,7.9538,7.9933,8.0928,8.2202,8.3592,8.4972,8.5518,8.5433,8.4835,8.4095,8.3364,3.3551,3.4359,3.5584,3.8553,3.9323,3.9813,4.0596,4.0888,4.1172,4.1468,4.3672,4.4912,4.4122,4.4777,4.4861,4.3855,4.353,4.3091,0.0,0.0,4.1826,4.1554,4.2008,4.247,4.2854,4.3316,4.3585,4.3585,4.3585,4.3868,4.4438,4.3453,4.2622,4.1928,4.2812,4.236,4.1022,4.2909,4.4075,4.4782,0.0,4.5993,4.6287,4.7755,4.8416,4.8636,4.9353,4.961,4.9757,5.0729,4.8857,4.6214,4.6709,4.6085,0.0,0.0,0.0,0.0,0.0,0.0,0.0,0.0,0.0,4.4415,0.0,0.0,0.0,4.7021,4.6874,4.7003,4.904,4.9517,5.0472,5.3078,5.5941,5.779,5.779,6.2879,0.0,6.8091,6.8503,6.8961,6.9829,6.9751,6.9999,7.0842,7.1126,7.1244,7.1262,7.1942,7.237,7.237,7.2683,7.2963,7.325,7.3736,7.4232,7.481,7.5077,7.5409,7.5829,7.6051,7.6263,7.6477,7.7576,7.8248,7.8604,8.0039,8.1305,8.2509,8.402,8.4937,8.5371,8.4918,8.411,8.3242,3.2993,3.4853,3.6776,3.7969,3.94,4.0429,4.0674,4.1398,4.227,4.3188,4.4846,4.5874,4.5675,4.6424,0.0,0.0,0.0,0.0,4.817,0.0,4.1455,4.0669,4.2816,4.3355,4.1962,4.4162,4.5325,4.5325,4.5325,4.5208,4.5006,4.4859,4.4397,4.3669,4.3094,4.2953,4.3105,4.27,4.3365,0.0,4.559,4.6324,0.0,4.7976,4.8783,4.9463,4.9574,4.961,4.939,0.0,4.7333,4.6856,0.0,4.6397,4.6672,0.0,0.0,0.0,0.0,0.0,0.0,0.0,4.5682,0.0,0.0,0.0,4.4599,4.4121,0.0,4.3975,4.4268,0.0,0.0,4.5883,4.9811,5.2821,5.2821,5.5904,5.9024,6.1227,6.3785,6.5642,6.6453,6.6896,6.8074,7.0366,6.8851,6.8382,6.9515,7.0336,7.0764,7.0764,7.0798,7.1475,7.2869,7.2602,7.2893,7.3761,7.3797,7.3896,7.4072,7.3747,7.4042,7.4711,7.5477,7.6521,7.7868,7.8672,7.9519,8.0617,8.3464,8.53,8.6174,8.5407,8.4246,8.2865,3.3595,3.5315,3.7123,3.8507,3.9795,4.081,4.1422,4.3156,4.4526,4.49,4.6824,4.8335,0.0,0.0,0.0,0.0,0.0,4.7452,0.0,0.0,4.3624,4.2739,4.3739,4.4201,4.4008,4.5056,4.5594,4.5594,4.541,4.5232,4.5105,4.4663,4.3792,4.2619,4.3024,4.3058,4.28,4.2947,4.3938,0.0,0.0,0.0,0.0,4.7993,4.8526,4.8893,4.9427,4.928,4.882,0.0,4.7609,0.0,0.0,0.0,0.0,0.0,0.0,0.0,0.0,0.0,0.0,0.0,0.0,0.0,4.449,0.0,4.4745,0.0,0.0,0.0,0.0,0.0,0.0,0.0,4.7902,4.9701,4.9224,5.1977,5.5097,5.796,0.0,0.0,6.1851,6.2614,6.3758,6.5586,6.4274,6.4523,6.7124,6.7749,6.832,6.9087,6.9243,6.9601,7.0239,7.0806,7.1404,7.2082,7.2733,7.3178,7.3477,7.3276,7.3369,7.3792,7.4945,7.5837,7.6508,7.7709,7.8644,7.957,8.113,8.2571,8.3808,8.4112,8.3274,8.1862,3.4432,3.5964,3.7507,3.8786,3.9928,4.1008,4.1965,4.4179,4.5764,4.5867,4.7861,4.9705,5.065,5.1592,0.0,0.0,5.2482,5.102,0.0,0.0,4.5577,0.0,0.0,0.0,0.0,0.0,4.5457,4.5457,4.5148,4.4908,4.4775,4.4261,4.3341,4.2158,4.3098,4.3277,4.302,4.3571,4.4745,4.625,4.625,4.6581,4.7186,4.7993,4.8306,4.8379,4.9003,4.882,4.8379,4.8783,4.7719,0.0,4.7609,0.0,0.0,0.0,0.0,0.0,4.581,0.0,0.0,0.0,0.0,0.0,0.0,0.0,0.0,0.0,0.0,0.0,0.0,0.0,0.0,0.0,0.0,4.7352,4.6562,4.8489,0.0,0.0,0.0,0.0,0.0,5.7971,5.8729,6.0539,5.9324,6.025,6.4208,6.5011,6.5965,6.7296,6.7694,6.7937,6.8148,6.9054,6.9837,7.0412,7.1424,7.207,7.2382,7.2589,7.2693,7.2762,7.4079,7.4849,7.5377,7.6833,7.798,7.8786,7.9662,8.05,8.13,8.2607,8.2259,8.0985,3.5434,3.6992,3.8098,3.8191,3.958,4.1038,4.195,4.3656,4.5053,0.0,0.0,0.0,0.0,0.0,0.0,0.0,0.0,5.5472,5.5395,0.0,4.6502,0.0,0.0,4.4743,0.0,0.0,4.5126,4.5126,4.4788,4.4414,4.4028,4.3998,4.3818,4.3458,4.3478,4.3901,4.4618,4.4654,4.5572,4.7076,4.7076,4.7076,4.7186,0.0,4.8306,4.8306,4.8343,0.0,0.0,4.7443,4.7113,0.0,0.0,0.0,0.0,0.0,0.0,0.0,0.0,0.0,0.0,4.6635,0.0,0.0,0.0,0.0,4.5663,0.0,0.0,0.0,0.0,0.0,0.0,0.0,0.0,0.0,0.0,0.0,0.0,0.0,0.0,0.0,0.0,5.3274,5.3352,5.6274,5.453,5.5548,6.0588,6.2265,6.3799,6.5331,6.6063,6.6795,6.7527,6.7596,6.8054,6.8973,6.9763,7.014,7.0317,7.1018,7.1356,7.1401,7.2072,7.3232,7.4728,7.6063,7.7144,7.8121,8.0338,8.0359,7.9405,8.13,8.1453,8.0628,3.7235,3.8832,3.9838,3.9233,3.9618,0.0,0.0,4.5816,0.0,0.0,5.3558,0.0,0.0,6.1435,6.2781,0.0,0.0,5.9781,5.7588,5.4241,0.0,0.0,0.0,4.754,0.0,0.0,0.0,0.0,4.4776,4.4387,4.3982,4.3791,4.3614,4.3515,4.3515,4.4232,4.5443,4.4929,0.0,0.0,0.0,4.7609,4.9407,0.0,0.0,4.759,4.8122,4.8306,0.0,4.7993,4.744,4.6995,4.7543,4.6822,4.6041,4.7368,4.785,0.0,0.0,0.0,5.0783,4.7992,0.0,0.0,0.0,0.0,0.0,0.0,0.0,0.0,0.0,0.0,0.0,0.0,0.0,0.0,0.0,0.0,4.3866,0.0,4.8208,5.0044,0.0,5.0619,5.1687,5.3073,5.2306,5.3739,5.8186,5.9561,6.1086,6.2997,6.4339,6.5393,6.6152,6.6719,6.7421,6.8234,6.9526,7.0144,7.0229,7.0973,7.1312,7.1345,7.2055,7.2926,7.3992,7.5413,7.6492,7.7394,7.8586,7.9061,7.9309,8.091,8.076,7.9391,3.906,3.9997,4.0519,4.0151,0.0,0.0,0.0,0.0,0.0,0.0,5.7708,0.0,6.4628,0.0,6.6782,0.0,6.6051,6.3628,5.905,5.7428,0.0,5.2235,5.1304,0.0,0.0,0.0,0.0,0.0,0.0,4.4639,4.3802,4.3597,4.3515,4.3497,4.3791,4.4672,4.5883,4.5663,4.6305,0.0,0.0,4.7168,0.0,0.0,4.7406,4.8397,0.0,4.8306,4.8287,4.8209,4.7782,4.7315,4.7745,4.7197,4.6648,4.7623,4.846,4.9064,4.9095,5.0734,0.0,4.9343,4.9554,0.0,4.7195,0.0,0.0,0.0,0.0,0.0,0.0,0.0,0.0,0.0,0.0,0.0,0.0,4.2599,0.0,0.0,4.5098,4.6424,4.663,4.7254,4.818,4.9428,4.9309,5.0931,5.4937,5.678,5.8769,6.1185,6.2538,6.3747,6.4771,6.563,6.6406,6.7151,6.8944,6.9789,6.9823,7.0838,7.1312,7.1345,7.1819,7.2428,7.3206,7.4695,7.5777,7.6555,7.7604,7.828,7.8837,8.0092,7.9571,7.8044,4.074,4.0616,0.0,0.0,4.3315,0.0,0.0,0.0,5.4549,0.0,5.9608,6.2474,6.5974,6.7821,6.8783,6.8744,6.9385,6.7,6.0423,6.052,0.0,0.0,5.3622,5.2981,5.1148,0.0,0.0,0.0,0.0,4.502,4.3551,4.3515,4.3515,4.3551,4.4342,4.5112,4.5883,4.6709,4.748,4.8049,4.6507,4.5957,4.6049,4.5975,4.7957,5.0541,4.8874,4.8287,4.8248,4.8052,4.7972,4.7931,4.7741,4.8049,4.8484,4.852,5.0008,5.1365,5.0174,5.1515,5.2749,5.0633,0.0,0.0,0.0,0.0,4.9713,0.0,0.0,0.0,0.0,0.0,0.0,0.0,0.0,0.0,0.0,0.0,4.1833,0.0,4.2542,4.3499,4.5113,4.3425,4.3184,4.549,4.5703,4.7327,5.0982,5.4059,5.7002,5.9911,6.0926,6.211,6.3565,6.4241,6.4986,6.5764,6.7996,6.9079,6.9147,7.0635,7.1312,7.1312,7.1312,7.1718,7.2529,7.395,7.4999,7.5811,7.7333,7.7942,7.801,7.872,7.8077,7.6555,4.1882,4.3431,4.4726,0.0,4.496,4.5781,0.0,0.0,0.0,0.0,6.4237,6.7975,7.2014,7.3399,7.3783,7.3129,7.2016,0.0,0.0,0.0,0.0,5.9847,5.8726,5.6938,5.4242,5.178,0.0,4.7934,0.0,4.4445,4.4378,4.3791,4.3515,4.3551,4.4342,4.4801,4.5076,4.5883,4.6324,4.6471,4.6067,4.6891,4.8218,0.0,4.8117,5.011,4.8616,4.7972,4.7845,4.7804,4.7642,4.7493,4.7428,4.7828,4.8399,4.8948,4.9901,5.0994,5.1844,5.2916,5.3473,5.2172,5.2468,5.2549,0.0,0.0,0.0,0.0,0.0,0.0,0.0,0.0,0.0,0.0,0.0,0.0,0.0,0.0,0.0,4.2005,0.0,0.0,4.2202,4.2754,4.3593,4.4784,4.5399,4.7327,5.0982,5.3551,5.5987,5.8389,6.1366,6.3396,6.4309,6.4512,6.5256,6.6542,6.7658,6.8504,6.9147,7.0635,7.1312,7.1312,7.1312,7.1718,7.2462,7.3409,7.4221,7.5033,7.6589,7.7164,7.7198,7.7401,7.6521,7.5067,4.2857,4.5345,0.0,4.7844,0.0,0.0,5.1857,5.3896,0.0,6.2773,6.6676,0.0,7.2745,7.4822,7.5668,7.4784,7.333,0.0,6.8982,0.0,0.0,6.276,6.1937,5.9891,5.6237,5.3628,0.0,4.8104,0.0,4.462,4.4158,4.3718,4.3515,4.3515,4.3975,4.4562,4.5296,4.6471,4.6708,4.6304,4.6304,4.6973,0.0,4.7013,4.7596,4.8786,4.7989,4.7684,4.7678,4.7572,4.7428,4.737,4.7617,4.8148,4.8817,4.9603,5.0637,5.1744,5.2661,5.354,5.4063,5.3493,5.3823,5.3795,5.215,5.2114,5.1841,0.0,0.0,0.0,0.0,0.0,0.0,0.0,0.0,0.0,0.0,0.0,0.0,0.0,4.1027,0.0,4.0696,4.1474,4.2422,4.3504,4.4282,4.5602,0.0,5.1488,5.4465,5.6393,6.008,6.255,6.3632,6.3971,6.4546,6.5392,6.6779,6.7658,6.8166,6.9654,7.0534,7.0804,7.0804,7.1244,7.1988,7.2699,7.3274,7.3781,7.4965,7.5202,7.4931,7.4931,7.4593,7.4018,4.3917,0.0,0.0,0.0,0.0,0.0,0.0,5.7898,0.0,6.4687,0.0,7.0552,7.1475,7.413,7.55,7.4755,0.0,7.185,6.8755,6.8705,6.7255,6.386,6.3862,6.1991,5.7656,5.5491,0.0,0.0,0.0,4.5039,4.3662,4.3551,4.3515,4.3515,4.3608,4.4471,4.5957,4.7241,4.7326,4.662,4.6729,4.6646,4.6442,4.6551,4.6894,4.7276,4.7276,4.7407,4.7572,4.7341,4.7276,4.7375,4.8018,4.871,4.9436,5.0171,5.1454,5.2666,5.2685,5.3422,5.4112,5.4266,5.4505,5.4374,5.3235,5.2986,5.2277,4.9786,4.8734,4.7842,0.0,0.0,0.0,0.0,0.0,0.0,0.0,0.0,0.0,0.0,0.0,0.0,0.0,4.018,4.0722,4.2185,4.2794,0.0,0.0,0.0,5.3044,5.4972,5.8524,6.1095,6.2516,6.3193,6.3565,6.3666,6.5696,6.6711,6.688,6.8402,6.9451,7.006,7.0161,7.0567,7.121,7.1954,7.2259,7.2326,7.2834,7.2665,7.209,7.1988,7.2428,7.2969,4.5702,0.0,0.0,0.0,0.0,5.7234,6.0701,6.3118,6.5306,6.7645,7.0786,7.3399,7.4938,7.5014,7.4802,7.4566,7.3565,0.0,0.0,0.0,0.0,6.594,6.4949,6.2706,5.8934,5.5926,5.3004,0.0,0.0,0.0,4.4488,4.3791,4.3515,4.3551,4.4195,4.4912,4.5642,4.5258,0.0,4.5619,4.6291,4.6422,4.6226,4.6895,4.7124,4.7066,4.7066,4.7088,4.7133,4.7088,4.7066,4.7209,4.7949,4.871,4.9387,4.9786,5.0593,5.1388,5.1668,5.1885,5.2265,5.3134,5.3394,5.3413,5.3405,5.3409,5.307,5.1919,5.1579,5.0699,4.8003,0.0,0.0,0.0,0.0,0.0,0.0,0.0,0.0,0.0,0.0,4.1813,0.0,0.0,0.0,0.0,0.0,0.0,0.0,0.0,5.3213,0.0,6.0351,6.2415,0.0,0.0,6.3835,6.441,6.5425,6.6203,6.688,6.8402,6.918,6.9316,6.9925,7.0263,7.0432,7.121,7.1515,7.1447,7.0973,7.0703,7.05,6.9891,7.0128,7.0838,4.8672,0.0,0.0,0.0,0.0,0.0,0.0,6.7031,6.9025,6.8574,7.0632,7.2476,7.3283,7.4096,7.4559,7.452,7.3051,7.1837,7.1181,6.9242,6.7509,6.6156,6.5153,0.0,5.9281,5.6051,5.3004,5.0141,0.0,0.0,4.4085,4.3681,4.3515,4.3534,4.4674,4.5351,4.5621,0.0,0.0,4.6389,4.675,4.6802,4.6619,4.6977,4.7075,4.6998,4.6998,4.6998,4.6998,4.6998,4.6998,4.7189,4.8151,4.8717,4.9114,4.9863,5.0387,5.0815,5.1324,5.1304,5.145,5.2757,5.2882,5.283,5.3382,5.3518,5.3281,5.2469,5.23,5.1522,4.8951,4.6075,0.0,0.0,0.0,0.0,0.0,0.0,0.0,0.0,0.0,0.0,0.0,0.0,0.0,0.0,0.0,0.0,0.0,0.0,5.2334,0.0,0.0,0.0,6.3497,0.0,6.37,6.4038,6.4783,6.5324,6.573,6.7218,6.8132,6.8504,6.9282,6.9857,7.0263,7.1007,7.1075,7.0703,7.0331,7.0195,7.0094,6.9383,6.9823,7.077,0.0,5.2789,0.0,0.0,6.0599,0.0,6.5793,6.959,7.1552,6.9744,7.0629,7.15,7.1664,7.3353,7.4296,7.3887,7.2421,7.1257,7.0587,6.8734,6.7045,6.5851,6.4779,6.263,5.9281,5.6381,5.3225,0.0,0.0,0.0,0.0,4.3588,4.3553,4.3721,0.0,0.0,0.0,0.0,4.7666,4.7698,4.7555,4.7393,4.7235,4.7069,4.7127,4.727,4.727,4.7354,4.7497,4.7404,4.7239,4.7275,4.8377,4.8755,4.9021,4.9952,5.0257,5.0367,5.0835,5.0715,5.0792,5.2298,5.2355,5.2334,5.3281,5.3518,5.3315,5.2706,5.2435,5.1725,4.983,4.78,0.0,0.0,0.0,0.0,0.0,0.0,0.0,0.0,0.0,0.0,4.2861,0.0,0.0,0.0,0.0,0.0,4.3781,0.0,0.0,0.0,0.0,6.1298,6.2787,0.0,6.3531,6.3531,6.4106,6.4444,6.4647,6.5967,6.6981,6.7726,6.8504,6.935,7.0229,7.0838,7.0635,6.9958,6.9958,6.9857,6.962,6.9045,6.9789,7.0973,0.0,0.0,0.0,0.0,0.0,0.0,6.664,6.9937,7.2399,7.2937,7.3168,7.3495,7.409,7.4328,7.3686,7.1852,7.1883,7.1305,6.9549,6.7307,6.5936,6.579,6.3972,6.1802,5.9258,5.7483,5.4656,0.0,0.0,0.0,0.0,0.0,0.0,0.0,0.0,0.0,0.0,4.7284,4.8012,4.9055,4.84,4.8115,4.802,4.7283,4.7449,4.8091,4.8091,4.8532,4.9031,4.8664,4.808,4.7597,4.8453,4.8899,4.9229,4.9671,4.9767,4.9679,4.9331,4.9178,4.952,5.1011,5.1351,5.1691,5.3179,5.3518,5.3484,5.3416,5.2807,5.2029,5.1183,4.9729,4.8511,0.0,0.0,0.0,0.0,0.0,0.0,0.0,0.0,0.0,0.0,4.1805,0.0,0.0,4.2151,0.0,0.0,0.0,0.0,5.3484,5.6596,5.893,6.0419,6.2482,6.3531,6.3531,6.3599,6.3971,6.4647,6.5425,6.6203,6.6948,6.7692,6.8842,7.0195,7.0263,6.9857,6.9214,6.9214,6.8774,6.8098,6.803,6.8977,7.0195,0.0,0.0,0.0,0.0,0.0,0.0,0.0,6.9821,7.114,7.2385,7.3407,7.3952,7.3752,7.3309,7.2509,7.1219,7.0479,6.9694,6.8679,6.6871,6.573,6.552,6.3762,6.19,5.9979,5.8327,5.5537,0.0,0.0,0.0,0.0,0.0,0.0,0.0,0.0,4.6675,4.7348,4.8181,4.8817,4.9257,4.8996,4.8853,4.8817,4.8496,4.8568,4.8853,4.8853,4.8899,4.8926,4.8751,4.8489,4.8246,4.8491,4.8668,4.8856,4.9172,4.926,4.9229,4.908,4.9018,4.9357,5.0845,5.1185,5.1591,5.3145,5.3518,5.3518,5.3518,5.3247,5.2942,5.2638,5.1352,5.0676,0.0,0.0,0.0,0.0,0.0,0.0,0.0,0.0,4.5399,0.0,0.0,0.0,0.0,0.0,0.0,0.0,0.0,0.0,5.2063,0.0,6.0655,6.0825,6.3463,6.4816,6.4816,6.4816,6.4952,6.529,6.6034,6.6779,6.7489,6.8267,6.9214,7.0195,7.0195,6.9755,6.9045,6.8571,6.8199,6.7895,6.7895,6.8876,7.0161,6.1164,0.0,6.1819,0.0,6.4876,6.5436,6.9436,6.9781,7.0057,7.1375,7.2581,7.3132,7.2559,7.2187,7.1505,7.0365,6.9514,6.87,6.7889,6.647,6.5459,6.4971,6.3576,0.0,6.0786,5.9171,5.6748,5.3408,5.1336,0.0,0.0,0.0,0.0,0.0,4.7479,4.8088,4.8312,4.9102,4.9659,4.9971,4.9757,4.965,4.9614,4.94,4.9436,4.965,4.965,4.9547,4.937,4.924,4.9109,4.8939,4.8615,4.8567,4.8699,4.8941,4.9018,4.9018,4.9018,4.9154,4.9627,5.0913,5.1386,5.1894,5.3213,5.3518,5.3518,5.3518,5.3518,5.3518,5.3518,5.2604,5.2266,5.3416,0.0,0.0,0.0,0.0,0.0,0.0,4.7259,4.5805,4.5326,4.2516,0.0,0.0,0.0,0.0,0.0,0.0,0.0,0.0,0.0,0.0,6.1298,6.4208,6.5696,6.5696,6.5459,6.5358,6.5392,6.6136,6.6779,6.732,6.8571,6.9248,6.9519,6.9755,6.9417,6.8707,6.8132,6.7895,6.7929,6.8166,6.9079,7.0195,6.3326,6.3068,6.3701,6.7679,6.6974,6.7013,7.036,7.0043,6.9711,7.0608,7.0794,7.0853,7.0911,7.1341,7.0848,6.9004,6.9248,6.8803,6.7123,6.5937,6.4934,0.0,0.0,6.2438,6.1594,6.0015,5.8377,5.6748,0.0,0.0,4.9537,0.0,4.8104,4.8497,4.8817,4.9528,5.0434,4.9973,5.051,5.1601,5.0816,5.0495,5.0423,4.9578,4.9792,5.0495,5.0495,5.0708,5.0929,5.0502,5.0051,4.9536,4.8757,4.8737,4.8984,4.9018,4.9018,4.9018,4.9018,4.9526,5.027,5.1014,5.1758,5.2503,5.3315,5.3518,5.3518,5.3518,5.3518,5.3518,5.3518,5.3484,5.2976,5.1455,0.0,0.0,0.0,0.0,0.0,0.0,4.7699,4.6786,4.6752,4.4045,0.0,0.0,0.0,0.0,0.0,0.0,0.0,5.3348,5.7103,0.0,6.1298,6.4208,6.5696,6.5662,6.4952,6.4613,6.4647,6.5358,6.5696,6.5831,6.8132,6.8639,6.7996,6.8808,6.8639,6.7895,6.7895,6.7895,6.7996,6.8808,6.9553,7.0195,6.539,6.5207,6.5332,6.6486,6.6244,6.6628,6.8859,6.88,6.8976,7.0324,6.9948,6.9536,6.946,6.9892,6.9668,0.0,6.8343,6.8047,0.0,6.6628,6.5778,6.4971,6.4127,6.3025,6.163,6.108,5.9501,5.6822,0.0,0.0,0.0,5.1297,5.0583,4.9426,5.0282,5.0256,4.9653,5.0018,5.0619,5.1192,5.0944,5.1028,5.128,5.103,5.0891,5.0838,5.0838,5.0538,5.008,4.9971,4.9619,4.9165,4.8927,4.9277,4.9661,4.9154,4.9357,4.9729,4.9729,4.9898,5.0405,5.1657,5.2131,5.2503,5.3315,5.3518,5.3653,5.416,5.4262,5.4397,5.4938,5.46,5.4262,5.4296,5.4025,0.0,0.0,0.0,0.0,0.0,4.5432,4.4688,4.5258,4.3498,0.0,0.0,0.0,0.0,0.0,0.0,0.0,0.0,5.9066,0.0,6.2042,6.4986,6.644,6.644,6.6203,6.6102,6.6102,6.5831,6.5967,6.6542,6.8335,6.8944,6.8741,6.8977,6.8944,6.8605,6.7557,6.7455,6.7996,6.8808,6.9553,7.0263,6.6764,6.6458,6.62,6.6332,6.609,6.6474,6.8129,6.8182,6.8464,6.9731,6.9436,6.901,6.8817,6.8926,0.0,6.807,6.781,6.7577,6.7247,6.6769,6.5999,6.4897,6.4347,6.3466,6.2071,6.1741,0.0,5.8621,5.7587,5.5965,5.3748,5.3604,5.2706,5.1131,5.1489,5.1032,5.0056,5.0131,5.0363,5.0776,5.0776,5.0937,5.1211,5.1211,5.1017,5.0776,5.0776,5.048,5.012,5.012,4.9994,4.983,4.983,5.0135,5.0304,4.9289,4.9729,5.0439,5.0168,5.0507,5.115,5.2063,5.2536,5.2875,5.3382,5.3518,5.3721,5.4431,5.46,5.4837,5.5581,5.5344,5.5074,5.5277,5.4296,5.3213,5.2334,0.0,0.0,0.0,0.0,0.0,0.0,4.5365,4.5331,0.0,0.0,0.0,0.0,0.0,0.0,5.5919,6.0892,0.0,6.3632,6.573,6.6812,6.6812,6.6542,6.6542,6.6779,6.6034,6.5933,6.6474,6.7996,6.8504,6.8267,6.8538,6.8504,6.8132,6.7184,6.7083,6.7624,6.8707,6.9383,6.9925,6.7401,6.6871,6.6496,0.0,6.6397,0.0,6.8129,6.8133,6.8187,6.9082,6.9266,6.9193,6.8863,6.8467,6.8047,6.7767,0.0,0.0,0.0,6.6586,6.5852,6.4237,6.4163,6.3759,6.2817,6.2071,6.1667,6.1569,5.8994,5.7194,5.6063,5.533,5.4386,5.3247,5.2364,5.177,5.1333,5.0135,4.9913,5.0341,5.0341,5.0369,5.0397,5.0397,5.0369,5.0341,5.0411,5.0576,5.0746,5.0815,5.0986,5.1185,5.1185,5.1251,5.1014,4.9593,5.0135,5.1082,5.0439,5.1251,5.23,5.2367,5.2942,5.3518,5.3551,5.3585,5.3788,5.4566,5.4735,5.4972,5.5716,5.5818,5.5547,5.4735,5.389,5.2536,5.027,0.0,0.0,0.0,0.0,0.0,0.0,4.9086,4.939,0.0,0.0,0.0,0.0,0.0,5.4397,6.0148,6.2482,6.4343,6.5764,6.6474,6.6846,6.688,6.6068,6.6102,6.6846,6.6068,6.573,6.5865,6.7286,6.7523,6.6948,6.7557,6.7455,6.688,6.6779,6.6812,6.7049,6.8504,6.9079,6.9383,0.0,0.0,6.674,6.6269,6.6013,6.6474,6.8129,6.8133,6.8416,6.9922,6.9607,6.9277,6.9193,6.8572,6.8173,6.8109,6.7836,6.7614,6.743,6.7393,6.6696,6.5081,6.5007,6.4347,6.2817,6.2622,6.2118,6.1295,6.0051,5.8575,5.691,5.6715,5.5408,5.3103,5.2368,5.1436,5.0376,4.9539,4.9441,4.9884,4.9884,5.0086,5.0397,5.0397,5.0171,4.9923,5.0474,5.0518,5.0357,5.0903,5.1178,5.1185,5.1185,5.1589,5.186,5.0947,5.0947,5.1285,5.1657,5.2029,5.2469,5.3078,5.3382,5.3653,5.4194,5.4329,5.4702,5.6021,5.6292,5.6494,5.7239,5.6934,5.6122,5.4803,5.2976,5.098,4.8717,4.7293,0.0,0.0,4.6786,4.7597,4.9627,4.983,5.0135,0.0,0.0,0.0,0.0,5.6224,5.8863,6.2584,6.4309,6.5628,6.6542,6.6711,6.7083,6.7624,6.6305,6.6373,6.759,6.6271,6.6,6.6609,6.7489,6.7793,6.7624,6.7218,6.7286,6.7523,6.6406,6.6643,6.7692,6.8064,6.8944,6.9992,6.6893,6.7018,6.6933,6.6038,6.5897,6.6295,6.7535,6.7821,6.8346,6.9578,6.9626,6.946,6.9106,6.8726,6.8321,6.8007,6.781,6.7687,6.7687,6.7687,6.699,6.5375,6.5301,6.453,6.2842,6.278,6.2434,6.1777,6.0926,5.9761,5.8265,5.7314,5.5869,5.4068,5.2748,5.1743,5.1048,5.0338,5.0156,5.0373,5.0373,5.0351,5.0317,5.063,5.0412,4.9994,5.0745,5.1034,5.115,5.1589,5.1961,5.2266,5.2266,5.2266,5.23,5.2266,5.2266,5.2334,5.2739,5.2841,5.3044,5.3822,5.4262,5.4634,5.5006,5.5108,5.5446,5.6562,5.6799,5.7036,5.7746,5.7306,5.6325,5.4837,5.2401,5.0105,4.8366,4.6735,0.0,4.8048,4.8711,4.9985,5.2334,5.2739,5.2875,5.2909,5.4463,0.0,5.6055,5.9573,6.2009,6.2956,6.4749,6.6034,6.6812,6.6812,6.7184,6.7895,6.6406,6.6305,6.7354,6.6203,6.5899,6.6339,6.7083,6.7421,6.7387,6.6981,6.7049,6.732,6.6508,6.6677,6.7455,6.7793,6.8436,6.918,6.7237,6.7239,6.6977,6.605,6.5885,6.6127,6.695,6.75,6.8128,6.8967,6.9512,6.9579,6.893,6.8772,6.848,6.781,6.7741,6.7687,6.7687,6.7687,6.699,6.5375,6.5301,6.453,6.2842,6.2755,6.2578,6.2238,6.1479,6.0499,5.9244,5.7374,5.6026,5.5105,5.3175,5.23,5.2266,5.1522,5.1185,5.1185,5.1185,5.0845,5.0338,5.098,5.0811,5.0371,5.1116,5.1792,5.2334,5.2435,5.2942,5.3518,5.3518,5.3044,5.2604,5.3315,5.3585,5.3687,5.3687,5.3754,5.3991,5.46,5.5243,5.5715,5.5817,5.5953,5.6224,5.6833,5.7137,5.7408,5.7814,5.7306,5.6224,5.4532,5.1623,4.9263,4.8279,0.0,4.6928,5.0022,5.1522,5.3221,5.5577,5.6146,5.617,5.5709,5.779,5.889,5.8423,6.2245,6.3829,6.2505,6.4674,6.6128,6.6686,6.6686,6.7057,6.7646,6.6382,6.612,6.6652,6.5993,6.5696,6.573,6.6373,6.6711,6.6812,6.6677,6.6711,6.6812,6.6677,6.6711,6.688,6.7489,6.7793,6.7996,6.646,6.675,6.6859,6.6025,6.5755,6.6159,6.7664,6.7751,6.8185,6.9728,6.9606,6.934,6.9235,6.8679,6.8247,6.8123,6.7863,6.7687,6.7687,6.7687,6.699,6.5375,6.5301,6.453,6.2842,6.2578,6.2095,6.1394,6.098,5.98,5.7872,5.6948,5.5858,5.4635,5.301,5.23,5.2266,5.1522,5.1185,5.1185,5.1185,5.1117,5.1048,5.1183,5.115,5.115,5.186,5.2198,5.2401,5.3078,5.3416,5.3518,5.3518,5.3416,5.3348,5.345,5.3923,5.4431,5.4431,5.4871,5.5412,5.5513,5.5649,5.5886,5.6494,5.7103,5.7577,5.7712,5.8727,5.9235,5.8084,5.7306,5.5886,5.3112,4.9627,4.7259,4.7098,0.0,4.7684,5.1896,5.3878,5.5549,5.7198,5.7442,5.7836,5.8719,5.9203,5.9833,6.0719,6.2618,6.3364,6.2762,6.5252,6.6466,6.6225,6.6225,6.6377,6.6723,6.6243,6.6124,6.6192,6.5867,6.5696,6.5696,6.5797,6.6203,6.6779,6.6136,6.6237,6.6745,6.6102,6.6237,6.6812,6.6948,6.7387,6.7929,6.6148,6.6576,6.6808,6.5909,6.6071,6.6648,6.7652,6.81,6.8633,6.955,6.9463,6.9171,6.8734,6.8381,6.8123,6.793,6.7784,6.7687,6.7687,6.7283,6.6512,6.5375,6.4897,6.4013,6.2614,6.2449,6.1933,6.0921,6.0494,5.9564,5.8153,5.7123,5.613,5.5141,5.4025,5.3315,5.2909,5.2604,5.2435,5.2435,5.2435,5.2198,5.186,5.2266,5.2164,5.1894,5.2672,5.2942,5.3078,5.3822,5.4093,5.416,5.4566,5.4702,5.4702,5.4702,5.4938,5.5209,5.5209,5.6021,5.6799,5.6393,5.6596,5.707,5.7814,5.7949,5.8017,5.8423,5.9032,5.9092,5.7827,5.6982,5.577,5.3582,5.0117,0.0,0.0,4.909,4.9959,5.3757,5.5824,5.7255,5.81,5.8437,5.8938,5.987,6.0181,6.0724,6.1695,6.3133,6.3818,6.3606,6.5187,6.5922,6.5702,6.5702,6.5814,6.5889,6.5382,6.4904,6.4547,6.4428,6.4145,6.3886,6.4867,6.5531,6.5834,6.6187,6.6508,6.6779,6.644,6.6508,6.6812,6.6812,6.7015,6.732,6.6013,6.6372,6.6512,6.5737,6.6265,6.6957,6.7414,6.8162,6.8812,6.9143,6.9106,6.8825,6.8272,6.8123,6.7982,6.7741,6.7687,6.7687,6.7687,6.6769,6.5962,6.5338,6.4296,6.3298,6.2433,6.2158,6.1536,6.0494,5.9931,5.9247,5.8492,5.7352,5.6494,5.5919,5.5006,5.4296,5.3754,5.3585,5.3518,5.3518,5.3518,5.3145,5.2638,5.3281,5.3112,5.2672,5.3281,5.3518,5.3619,5.4329,5.46,5.4735,5.548,5.5681,5.5681,5.5681,5.5781,5.5812,5.5812,5.6757,5.7637,5.706,5.733,5.7941,5.8589,5.8457,5.8254,5.866,5.8957,5.874,5.7532,5.6746,5.5773,5.424,0.0,0.0,0.0,5.1785,5.2329,5.5612,5.733,5.847,5.9036,5.9599,6.0206,6.1022,6.1521,6.2141,6.2832,6.3759,6.4211,6.4156,6.4939,6.5281,6.4982,6.5147,6.5102,6.4848,6.4541,6.3991,6.3297,6.3428,6.3173,6.2785,6.4191,6.4963,6.5163,6.6076,6.6558,6.6643,6.6643,6.6728,6.6812,6.6812,6.6728,6.6643,6.5897,6.5793,6.5685,6.5608,6.6048,6.6595,6.707,6.7728,6.8333,6.8788,6.8514,6.8272,6.8222,6.7904,6.7741,6.7714,6.7687,6.7687,6.7687,6.6256,6.5375,6.5301,6.3503,6.247,6.2407,6.1365,6.0524,5.996,5.918,5.8492,5.7954,5.7173,5.6765,5.6664,5.5243,5.4566,5.4465,5.3788,5.3518,5.3518,5.3518,5.345,5.3416,5.3484,5.345,5.3416,5.3484,5.3518,5.3619,5.4329,5.46,5.4735,5.548,5.5681,5.5681,5.5681,5.5905,5.6154,5.6154,5.6724,5.7327,5.726,5.7331,5.7439,5.7876,5.8457,5.8761,5.8084,5.8766,5.9002,5.7557,5.6882,5.5999,5.4305,0.0,0.0,5.353,5.3086,5.388,5.747,5.8278,5.9101,6.0494,6.1251,6.2113,6.3269,6.3936,6.4556,6.5071,6.4509,6.4035,6.3666,6.4761,6.4871,6.3731,6.4387,6.4159,6.3126,6.4172,6.4289,6.36,6.4013,6.42,6.4167,6.431,6.4741,6.5371,6.5481,6.5746,6.6139,6.6139,6.6397,6.6812,6.6812,6.6525,6.6139,6.5742,6.5635,6.5537,6.5307,6.572,6.6274,6.684,6.7405,6.7928,6.8355,6.8297,6.8097,6.7904,6.7794,6.7687,6.7687,6.7687,6.7467,6.699,6.573,6.4526,6.3539,6.2814,6.2212,6.1859,6.1104,6.0375,5.9644,5.9012,5.8456,5.7881,5.7611,5.7239,5.6799,5.6224,5.5716,5.5277,5.5006,5.46,5.416,5.416,5.3923,5.3518,5.3518,5.3518,5.3551,5.4025,5.416,5.4363,5.5547,5.5953,5.6089,5.6833,5.707,5.7034,5.678,5.6579,5.6473,5.6206,5.652,5.6911,5.6911,5.7101,5.7561,5.8656,5.8757,5.8824,5.943,5.9649,5.9226,5.7489,5.7067,5.6593,5.5424,0.0,5.3522,5.5584,5.5575,5.627,5.8808,5.961,6.0364,6.1336,6.2048,6.2885,6.3771,6.4453,6.5133,6.5778,6.5516,6.5096,6.4486,6.4523,6.4328,6.3849,6.4142,6.4049,6.3603,6.4049,6.3882,6.3166,6.3349,6.3179,6.2754,6.3526,6.3791,6.3803,6.539,6.5913,6.5725,6.6191,6.6446,6.6589,6.6122,6.579,6.5592,6.5635,6.547,6.5291,6.4981,6.533,6.576,6.6057,6.6866,6.7462,6.7628,6.7689,6.7587,6.7373,6.71,6.7026,6.7283,6.7239,6.6929,6.6379,6.5077,6.3684,6.2338,6.1987,6.1648,6.1286,6.0468,5.9806,5.9248,5.8702,5.8278,5.7881,5.7881,5.7611,5.7137,5.69,5.6528,5.6055,5.5818,5.5412,5.4938,5.4938,5.4634,5.4194,5.4194,5.4194,5.4262,5.4769,5.4938,5.5141,5.6393,5.6799,5.6898,5.7499,5.7625,5.7476,5.7176,5.6834,5.6447,5.6165,5.6172,5.633,5.6447,5.6884,5.7614,5.8964,5.9064,5.9231,6.0431,6.0174,5.9367,5.8322,5.8026,5.7854,5.7413,5.6613,5.6605,5.8198,5.8302,5.871,6.017,6.0818,6.14,6.2081,6.2987,6.3862,6.4606,6.5513,6.6161,6.642,6.6452,6.5999,6.5012,6.438,6.3894,6.3667,6.3441,6.3214,6.302,6.3214,6.3182,6.289,6.289,6.2761,6.2534,6.3388,6.346,6.3179,6.497,6.5659,6.5598,6.6093,6.6382,6.6452,6.5955,6.5535,6.5024,6.5622,6.5207,6.4807,6.463,6.485,6.4964,6.4675,6.5975,6.6864,6.6528,6.6512,6.6512,6.6476,6.5778,6.5632,6.6439,6.6208,6.5979,6.597,6.4238,6.2838,6.2005,6.1163,6.0681,6.0681,5.9382,5.8702,5.8702,5.8171,5.7881,5.7881,5.7881,5.7881,5.7848,5.7137,5.6799,5.6765,5.6055,5.5681,5.5716,5.5716,5.5716,5.5681,5.5681,5.5681,5.5681,5.5716,5.5716,5.5817,5.6562,5.6799,5.6862,5.7167,5.7025,5.668,5.668,5.6408,5.6086,5.6086,5.5733,5.5491,5.6006,5.661,5.7379,5.854,5.9381,6.0109,6.0762,6.0074,5.9516,6.0161,5.9979,5.9848,6.0249,6.0564,6.0919,6.1328,6.1052,6.1044,6.1724,6.1821,6.2113,6.2825,6.4185,6.5319,6.6064,6.7424,6.791,6.723,6.7197,6.6517,6.5044,6.438,6.3667,6.289,6.2178,6.1465,6.0818,6.1498,6.2178,6.289,6.289,6.3311,6.4024,6.4024,6.4024,6.4024,6.4024,6.4695,6.5783,6.5783,6.6061,6.6473,6.6473,6.5738,6.4479,6.5175,6.4858,6.4557,6.4172,6.3979,6.4076,6.4517,6.5287,6.5761,6.5668,6.6145,6.6292,6.5742,6.5448,6.5632,6.6439,6.6208,6.5557,6.4578,6.3095,6.1837,6.0848,6.0747,6.0437,5.9873,5.908,5.8702,5.8702,5.8171,5.7881,5.7881,5.7881,5.7881,5.7881,5.7645,5.7577,5.7543,5.734,5.6934,5.6461,5.6461,5.6156,5.5681,5.5681,5.5681,5.5749,5.6292,5.6461,5.656,5.6979,5.714,5.7133,5.6958,5.6603,5.6284,5.6284,5.5934,5.5612,5.5612,5.5491,5.5409,5.5572,5.6336,5.747,5.884,5.9694,6.0506,6.1797,6.1545,6.0963,6.0671,6.055,6.0506,6.0639,6.0745,6.0992,6.1613,6.1588,6.1757,6.2469,6.2566,6.3052,6.4283,6.5222,6.6096,6.6809,6.7683,6.8104,6.791,6.791,6.7489,6.6582,6.5351,6.438,6.37,6.2437,6.1692,6.1498,6.1692,6.2178,6.289,6.3441,6.4056,6.4736,6.4736,6.4445,6.4056,6.4542,6.4881,6.5298,6.5818,6.6109,6.6139,6.5651,6.4542,6.3212,6.4841,6.4483,6.4114,6.3749,6.3405,6.3331,6.3811,6.4425,6.4824,6.4824,6.5264,6.5375,6.4897,6.4824,6.5007,6.5521,6.515,6.4541,6.3747,6.219,6.0874,6.004,5.9937,5.9676,5.9181,5.8667,5.8351,5.8351,5.8063,5.7881,5.7881,5.7881,5.7881,5.7881,5.7881,5.7881,5.7881,5.7881,5.7645,5.7239,5.7239,5.6968,5.6562,5.6562,5.6562,5.663,5.707,5.713,5.7052,5.7197,5.7101,5.6796,5.6525,5.6402,5.6205,5.5912,5.6035,5.6219,5.5928,5.6057,5.6284,5.6284,5.701,5.799,5.9164,6.0435,6.1739,6.3173,6.3042,6.2728,6.2858,6.2663,6.2566,6.2858,6.289,6.2955,6.3052,6.3344,6.3473,6.3344,6.357,6.3959,6.4574,6.5254,6.6096,6.71,6.7813,6.8201,6.8201,6.8201,6.7877,6.7197,6.6064,6.4995,6.4024,6.2825,6.2081,6.1789,6.1239,6.166,6.289,6.3052,6.37,6.4606,6.4606,6.438,6.4056,6.4445,6.4768,6.5012,6.5513,6.5288,6.4787,6.4577,6.3434,6.1779,6.4593,6.3995,6.352,6.3382,6.3026,6.278,6.278,6.3539,6.409,6.409,6.409,6.4127,6.42,6.4053,6.4053,6.4248,6.373,6.3365,6.3341,6.1471,6.0081,5.9483,5.8909,5.8632,5.8632,5.8171,5.7881,5.7881,5.7881,5.7881,5.7881,5.7881,5.7881,5.7881,5.7881,5.7881,5.7881,5.7881,5.7881,5.7881,5.7881,5.7881,5.7881,5.7881,5.7881,5.7881,5.7845,5.7625,5.7289,5.7214,5.668,5.6046,5.6046,5.6255,5.6381,5.5701,5.651,5.7417,5.677,5.7126,5.7676,5.7676,5.8292,5.9025,5.9684,6.14,6.3311,6.4736,6.4542,6.4509,6.5869,6.5578,6.5351,6.5999,6.6031,6.5772,6.5077,6.5546,6.5481,6.425,6.4639,6.4785,6.4347,6.4898,6.5869,6.7165,6.7845,6.8201,6.8201,6.8201,6.791,6.7294,6.6582,6.5546,6.4218,6.3408,6.2599,6.1789,6.0526,6.0947,6.2858,6.2275,6.2761,6.4088,6.4088,6.4041,6.3994,6.3929,6.427,6.4755,6.469,6.3886,6.2759,6.3281,6.2202,6.0185,6.3934,6.3624,6.3322,6.2978,6.2855,6.278,6.278,6.3539,6.409,6.409,6.409,6.4347,6.4971,6.387,6.3768,6.5459,6.5202,6.4326,6.2949,6.1568,6.0255,5.8909,5.8351,5.8063,5.8063,5.7954,5.7881,5.7881,5.7881,5.7881,5.7881,5.7881,5.7881,5.7881,5.7881,5.7881,5.7881,5.7881,5.7881,5.7881,5.7881,5.7881,5.7881,5.7881,5.7881,5.7845,5.7551,5.7364,5.7214,5.6564,5.5974,5.5531,5.5531,5.601,5.6478,5.6316,5.6899,5.7589,5.7385,5.7871,5.8346,5.8346,5.9781,6.1012,6.0656,6.1757,6.3311,6.4736,6.485,6.506,6.5934,6.5967,6.5934,6.6064,6.5643,6.5174,6.5012,6.4704,6.4542,6.4768,6.4883,6.5416,6.6388,6.71,6.7651,6.7942,6.8104,6.8201,6.8201,6.8201,6.8136,6.7974,6.7327,6.655,6.5643,6.4412,6.3117,6.1821,6.1498,6.1886,6.289,6.3344,6.3991,6.4753,6.4753,6.4465,6.3785,6.3274,6.3091,6.3079,6.2544,6.2129,6.179,6.1433,6.0279,5.8653,6.358,6.3275,6.3051,6.283,6.278,6.278,6.278,6.3209,6.3415,6.3324,6.3262,6.3591,6.4396,6.3675,6.3731,6.5218,6.467,6.3689,6.2357,6.1085,5.9904,5.8771,5.8207,5.7881,5.7881,5.7881,5.7881,5.7881,5.7881,5.7881,5.7881,5.7881,5.7881,5.7881,5.7881,5.7881,5.7881,5.7881,5.7881,5.7881,5.7881,5.7881,5.7881,5.7881,5.7881,5.7845,5.7439,5.7063,5.6641,5.5974,5.5572,5.5474,5.583,5.6413,5.6996,5.6996,5.7773,5.8518,5.8162,5.8842,5.9652,5.9652,6.1012,6.2145,6.1433,6.2404,6.3829,6.5254,6.5546,6.5869,6.6906,6.71,6.71,6.71,6.6776,6.642,6.6096,6.6031,6.5902,6.5578,6.5837,6.6226,6.6614,6.7294,6.7715,6.7715,6.8007,6.8201,6.8201,6.8201,6.8201,6.8201,6.7845,6.7016,6.5556,6.4818,6.3533,6.1679,6.1745,6.2372,6.3441,6.3473,6.3673,6.3934,6.3934,6.3464,6.2657,6.231,6.2123,6.205,6.1676,6.0944,6.0082,6.002,5.8868,5.7202,6.3336,6.3026,6.278,6.278,6.278,6.278,6.278,6.2755,6.2727,6.2642,6.2453,6.2656,6.3512,6.353,6.3701,6.4353,6.3536,6.2629,6.171,6.0528,5.9487,5.8597,5.8135,5.7881,5.7881,5.7881,5.7881,5.7881,5.7881,5.7881,5.7881,5.7881,5.7881,5.7881,5.7881,5.7881,5.7881,5.7881,5.7881,5.7881,5.7881,5.7881,5.7881,5.7808,5.7808,5.7735,5.7252,5.6603,5.5927,5.5531,5.5507,5.5701,5.6316,5.7061,5.7773,5.7773,5.868,5.9587,5.8928,5.9878,6.0979,6.0979,6.2048,6.2923,6.234,6.3117,6.438,6.5643,6.6031,6.6517,6.778,6.8136,6.8201,6.8201,6.8104,6.7813,6.7262,6.7553,6.7456,6.642,6.6938,6.7083,6.6321,6.6904,6.731,6.716,6.7827,6.8201,6.8201,6.8201,6.8136,6.8039,6.7907,6.6827,6.4734,6.4583,6.3514,6.152,6.1663,6.2468,6.3802,6.3156,6.2858,6.2808,6.2629,6.2103,6.1266,6.1266,6.1215,6.1062,6.0865,5.9686,5.8207,5.8491,5.7535,5.6068,6.2953,6.283,6.278,6.278,6.278,6.278,6.278,6.2603,6.2678,6.3345,6.2621,6.2429,6.3464,6.3492,6.3436,6.3478,6.3273,6.2563,6.1216,6.0464,5.9448,5.8095,5.7918,5.7881,5.7881,5.7881,5.7881,5.7881,5.7881,5.7881,5.7881,5.7881,5.7881,5.7881,5.7881,5.7881,5.7881,5.7881,5.7881,5.7881,5.7881,5.7881,5.7845,5.7514,5.7402,5.7289,5.6525,5.5934,5.5491,5.5409,5.583,5.6381,5.6478,5.7417,5.8443,5.8443,5.9025,5.9684,5.9587,6.0591,6.166,6.166,6.2761,6.3829,6.3732,6.3862,6.425,6.4995,6.5675,6.6355,6.7165,6.7813,6.8201,6.8201,6.7715,6.7294,6.7197,6.6744,6.655,6.7003,6.7651,6.7756,6.6882,6.7572,6.7737,6.699,6.7701,6.8201,6.8201,6.8201,6.791,6.7327,6.6694,6.5536,6.3952,6.3268,6.2453,6.152,6.1534,6.2013,6.2954,6.2858,6.281,6.2759,6.2003,6.1215,6.0472,6.0472,6.0053,5.9302,5.8181,5.7505,5.7182,5.6161,5.558,5.5329,6.283,6.278,6.278,6.278,6.278,6.273,6.2578,6.2485,6.2294,6.2004,6.1581,6.1676,6.2785,6.3604,6.3729,6.2871,6.303,6.2435,6.0632,6.0231,5.9438,5.7949,5.7881,5.7881,5.7881,5.7881,5.7881,5.7881,5.7881,5.7881,5.7881,5.7881,5.7881,5.7881,5.7881,5.7881,5.7881,5.7881,5.7881,5.7881,5.7881,5.7772,5.7551,5.7364,5.7176,5.6872,5.6323,5.6067,5.596,5.5539,5.6154,5.7093,5.7093,5.7806,5.8669,5.9058,5.9749,6.0299,6.0299,6.1336,6.2404,6.2404,6.3214,6.4024,6.4024,6.4024,6.4315,6.5416,6.5869,6.6452,6.7553,6.8007,6.8201,6.8201,6.7558,6.7029,6.7029,6.6365,6.596,6.6278,6.6563,6.6596,6.6195,6.6544,6.6806,6.6878,6.7272,6.7553,6.7651,6.7218,6.6662,6.5938,6.5116,6.3994,6.2477,6.2114,6.1357,6.0158,6.0628,6.1297,6.2053,6.2053,6.1803,6.1399,6.099,6.0368,5.9606,5.9606,5.9392,5.9009,5.8052,5.7214,5.6466,5.5538,5.5179,5.5179]}]]